<?xml version="1.0" encoding="UTF-8" standalone="no" ?>
<gpx xmlns="http://www.topografix.com/GPX/1/1" xmlns:xsi="http://www.w3.org/2001/XMLSchema-instance" xsi:schemaLocation="http://www.topografix.com/GPX/1/1 http://www.topografix.com/GPX/1/1/gpx.xsd" version="1.1" creator="VisuGPX - https://www.visugpx.com">
  <metadata>
    <name>Parcours de Dom</name>
    <desc><![CDATA[Parcours de 32km]]></desc>
  </metadata>
  <trk>
    <name><![CDATA[2012-05-16T17:21:08Z]]></name>
    <trkseg>
      <trkpt lat="46.95475" lon="-0.79918">
        <ele>155.8709717</ele>
        <time>2012-05-16T17:21:08Z</time>
      </trkpt>
      <trkpt lat="46.95475" lon="-0.79918">
        <ele>155.8709717</ele>
        <time>2012-05-16T17:21:09Z</time>
      </trkpt>
      <trkpt lat="46.95475" lon="-0.79918">
        <ele>155.3902588</ele>
        <time>2012-05-16T17:21:10Z</time>
      </trkpt>
      <trkpt lat="46.95473" lon="-0.79914">
        <ele>154.9095459</ele>
        <time>2012-05-16T17:21:15Z</time>
      </trkpt>
      <trkpt lat="46.95473" lon="-0.79906">
        <ele>154.4289551</ele>
        <time>2012-05-16T17:21:21Z</time>
      </trkpt>
      <trkpt lat="46.95475" lon="-0.79904">
        <ele>154.9095459</ele>
        <time>2012-05-16T17:21:23Z</time>
      </trkpt>
      <trkpt lat="46.95477" lon="-0.79898">
        <ele>156.8321533</ele>
        <time>2012-05-16T17:21:26Z</time>
      </trkpt>
      <trkpt lat="46.95481" lon="-0.79896">
        <ele>156.8321533</ele>
        <time>2012-05-16T17:21:28Z</time>
      </trkpt>
      <trkpt lat="46.95497" lon="-0.79887">
        <ele>155.8709717</ele>
        <time>2012-05-16T17:21:35Z</time>
      </trkpt>
      <trkpt lat="46.95511" lon="-0.79879">
        <ele>154.9095459</ele>
        <time>2012-05-16T17:21:40Z</time>
      </trkpt>
      <trkpt lat="46.95512" lon="-0.79863">
        <ele>154.4289551</ele>
        <time>2012-05-16T17:21:44Z</time>
      </trkpt>
      <trkpt lat="46.95503" lon="-0.79825">
        <ele>152.9869385</ele>
        <time>2012-05-16T17:21:52Z</time>
      </trkpt>
      <trkpt lat="46.955" lon="-0.79805">
        <ele>152.0257568</ele>
        <time>2012-05-16T17:21:56Z</time>
      </trkpt>
      <trkpt lat="46.95491" lon="-0.79769">
        <ele>154.9095459</ele>
        <time>2012-05-16T17:22:02Z</time>
      </trkpt>
      <trkpt lat="46.95482" lon="-0.79726">
        <ele>155.3902588</ele>
        <time>2012-05-16T17:22:09Z</time>
      </trkpt>
      <trkpt lat="46.95469" lon="-0.79677">
        <ele>154.9095459</ele>
        <time>2012-05-16T17:22:17Z</time>
      </trkpt>
      <trkpt lat="46.95456" lon="-0.79627">
        <ele>152.9869385</ele>
        <time>2012-05-16T17:22:25Z</time>
      </trkpt>
      <trkpt lat="46.9545" lon="-0.79609">
        <ele>152.5063477</ele>
        <time>2012-05-16T17:22:28Z</time>
      </trkpt>
      <trkpt lat="46.95442" lon="-0.79592">
        <ele>152.0257568</ele>
        <time>2012-05-16T17:22:32Z</time>
      </trkpt>
      <trkpt lat="46.95439" lon="-0.79577">
        <ele>151.5449219</ele>
        <time>2012-05-16T17:22:37Z</time>
      </trkpt>
      <trkpt lat="46.95441" lon="-0.79575">
        <ele>151.064209</ele>
        <time>2012-05-16T17:22:38Z</time>
      </trkpt>
      <trkpt lat="46.95459" lon="-0.79568">
        <ele>149.6223145</ele>
        <time>2012-05-16T17:22:44Z</time>
      </trkpt>
      <trkpt lat="46.9549" lon="-0.7956">
        <ele>148.6610107</ele>
        <time>2012-05-16T17:22:51Z</time>
      </trkpt>
      <trkpt lat="46.95495" lon="-0.79549">
        <ele>147.699707</ele>
        <time>2012-05-16T17:22:55Z</time>
      </trkpt>
      <trkpt lat="46.95493" lon="-0.79546">
        <ele>147.699707</ele>
        <time>2012-05-16T17:22:56Z</time>
      </trkpt>
      <trkpt lat="46.95475" lon="-0.79516">
        <ele>145.7770996</ele>
        <time>2012-05-16T17:23:04Z</time>
      </trkpt>
      <trkpt lat="46.95455" lon="-0.79479">
        <ele>144.8157959</ele>
        <time>2012-05-16T17:23:11Z</time>
      </trkpt>
      <trkpt lat="46.95439" lon="-0.79445">
        <ele>144.3352051</ele>
        <time>2012-05-16T17:23:16Z</time>
      </trkpt>
      <trkpt lat="46.95436" lon="-0.79424">
        <ele>144.8157959</ele>
        <time>2012-05-16T17:23:20Z</time>
      </trkpt>
      <trkpt lat="46.95446" lon="-0.79418">
        <ele>144.3352051</ele>
        <time>2012-05-16T17:23:23Z</time>
      </trkpt>
      <trkpt lat="46.95479" lon="-0.79402">
        <ele>142.8930664</ele>
        <time>2012-05-16T17:23:30Z</time>
      </trkpt>
      <trkpt lat="46.95513" lon="-0.79384">
        <ele>140.970459</ele>
        <time>2012-05-16T17:23:36Z</time>
      </trkpt>
      <trkpt lat="46.95561" lon="-0.79368">
        <ele>139.5284424</ele>
        <time>2012-05-16T17:23:44Z</time>
      </trkpt>
      <trkpt lat="46.95609" lon="-0.79355">
        <ele>137.605835</ele>
        <time>2012-05-16T17:23:52Z</time>
      </trkpt>
      <trkpt lat="46.95666" lon="-0.79339">
        <ele>135.6831055</ele>
        <time>2012-05-16T17:24:01Z</time>
      </trkpt>
      <trkpt lat="46.95698" lon="-0.79312">
        <ele>134.2412109</ele>
        <time>2012-05-16T17:24:07Z</time>
      </trkpt>
      <trkpt lat="46.9573" lon="-0.79272">
        <ele>133.2799072</ele>
        <time>2012-05-16T17:24:14Z</time>
      </trkpt>
      <trkpt lat="46.95749" lon="-0.79227">
        <ele>130.876709</ele>
        <time>2012-05-16T17:24:20Z</time>
      </trkpt>
      <trkpt lat="46.95769" lon="-0.79165">
        <ele>127.5119629</ele>
        <time>2012-05-16T17:24:28Z</time>
      </trkpt>
      <trkpt lat="46.95786" lon="-0.79145">
        <ele>127.0313721</ele>
        <time>2012-05-16T17:24:32Z</time>
      </trkpt>
      <trkpt lat="46.95801" lon="-0.7914">
        <ele>126.5506592</ele>
        <time>2012-05-16T17:24:35Z</time>
      </trkpt>
      <trkpt lat="46.95824" lon="-0.79138">
        <ele>127.0313721</ele>
        <time>2012-05-16T17:24:40Z</time>
      </trkpt>
      <trkpt lat="46.95829" lon="-0.79138">
        <ele>127.0313721</ele>
        <time>2012-05-16T17:24:41Z</time>
      </trkpt>
      <trkpt lat="46.95872" lon="-0.79136">
        <ele>126.5506592</ele>
        <time>2012-05-16T17:24:49Z</time>
      </trkpt>
      <trkpt lat="46.9592" lon="-0.79127">
        <ele>124.6280518</ele>
        <time>2012-05-16T17:24:57Z</time>
      </trkpt>
      <trkpt lat="46.95962" lon="-0.79112">
        <ele>123.1861572</ele>
        <time>2012-05-16T17:25:03Z</time>
      </trkpt>
      <trkpt lat="46.95992" lon="-0.79085">
        <ele>122.7054443</ele>
        <time>2012-05-16T17:25:08Z</time>
      </trkpt>
      <trkpt lat="46.96027" lon="-0.79063">
        <ele>122.7054443</ele>
        <time>2012-05-16T17:25:14Z</time>
      </trkpt>
      <trkpt lat="46.96052" lon="-0.79043">
        <ele>122.2247314</ele>
        <time>2012-05-16T17:25:20Z</time>
      </trkpt>
      <trkpt lat="46.96078" lon="-0.79019">
        <ele>121.7441406</ele>
        <time>2012-05-16T17:25:28Z</time>
      </trkpt>
      <trkpt lat="46.9611" lon="-0.78998">
        <ele>121.2635498</ele>
        <time>2012-05-16T17:25:37Z</time>
      </trkpt>
      <trkpt lat="46.96134" lon="-0.78986">
        <ele>121.7441406</ele>
        <time>2012-05-16T17:25:44Z</time>
      </trkpt>
      <trkpt lat="46.96147" lon="-0.78995">
        <ele>122.7054443</ele>
        <time>2012-05-16T17:25:48Z</time>
      </trkpt>
      <trkpt lat="46.96152" lon="-0.79001">
        <ele>123.1861572</ele>
        <time>2012-05-16T17:25:52Z</time>
      </trkpt>
      <trkpt lat="46.96158" lon="-0.79008">
        <ele>123.666748</ele>
        <time>2012-05-16T17:25:57Z</time>
      </trkpt>
      <trkpt lat="46.96172" lon="-0.79018">
        <ele>124.6280518</ele>
        <time>2012-05-16T17:26:03Z</time>
      </trkpt>
      <trkpt lat="46.96183" lon="-0.7902">
        <ele>124.1473389</ele>
        <time>2012-05-16T17:26:07Z</time>
      </trkpt>
      <trkpt lat="46.962" lon="-0.79014">
        <ele>124.6280518</ele>
        <time>2012-05-16T17:26:13Z</time>
      </trkpt>
      <trkpt lat="46.96229" lon="-0.78997">
        <ele>126.0699463</ele>
        <time>2012-05-16T17:26:22Z</time>
      </trkpt>
      <trkpt lat="46.96252" lon="-0.7899">
        <ele>127.0313721</ele>
        <time>2012-05-16T17:26:29Z</time>
      </trkpt>
      <trkpt lat="46.96261" lon="-0.78992">
        <ele>127.5119629</ele>
        <time>2012-05-16T17:26:32Z</time>
      </trkpt>
      <trkpt lat="46.96264" lon="-0.78984">
        <ele>128.4733887</ele>
        <time>2012-05-16T17:26:36Z</time>
      </trkpt>
      <trkpt lat="46.96258" lon="-0.78971">
        <ele>129.4346924</ele>
        <time>2012-05-16T17:26:40Z</time>
      </trkpt>
      <trkpt lat="46.96238" lon="-0.78925">
        <ele>128.9541016</ele>
        <time>2012-05-16T17:26:50Z</time>
      </trkpt>
      <trkpt lat="46.96221" lon="-0.78884">
        <ele>127.9925537</ele>
        <time>2012-05-16T17:26:58Z</time>
      </trkpt>
      <trkpt lat="46.96199" lon="-0.78833">
        <ele>125.5893555</ele>
        <time>2012-05-16T17:27:08Z</time>
      </trkpt>
      <trkpt lat="46.96179" lon="-0.78787">
        <ele>125.5893555</ele>
        <time>2012-05-16T17:27:17Z</time>
      </trkpt>
      <trkpt lat="46.96161" lon="-0.78748">
        <ele>125.1087646</ele>
        <time>2012-05-16T17:27:25Z</time>
      </trkpt>
      <trkpt lat="46.96143" lon="-0.78714">
        <ele>123.666748</ele>
        <time>2012-05-16T17:27:32Z</time>
      </trkpt>
      <trkpt lat="46.96139" lon="-0.78684">
        <ele>123.1861572</ele>
        <time>2012-05-16T17:27:37Z</time>
      </trkpt>
      <trkpt lat="46.96134" lon="-0.78667">
        <ele>123.1861572</ele>
        <time>2012-05-16T17:27:40Z</time>
      </trkpt>
      <trkpt lat="46.96109" lon="-0.78615">
        <ele>121.2635498</ele>
        <time>2012-05-16T17:27:49Z</time>
      </trkpt>
      <trkpt lat="46.96085" lon="-0.78568">
        <ele>123.1861572</ele>
        <time>2012-05-16T17:27:57Z</time>
      </trkpt>
      <trkpt lat="46.96069" lon="-0.78554">
        <ele>124.1473389</ele>
        <time>2012-05-16T17:28:01Z</time>
      </trkpt>
      <trkpt lat="46.96064" lon="-0.78553">
        <ele>124.1473389</ele>
        <time>2012-05-16T17:28:02Z</time>
      </trkpt>
      <trkpt lat="46.96034" lon="-0.78543">
        <ele>124.1473389</ele>
        <time>2012-05-16T17:28:08Z</time>
      </trkpt>
      <trkpt lat="46.95986" lon="-0.78528">
        <ele>123.1861572</ele>
        <time>2012-05-16T17:28:17Z</time>
      </trkpt>
      <trkpt lat="46.95965" lon="-0.78521">
        <ele>122.7054443</ele>
        <time>2012-05-16T17:28:21Z</time>
      </trkpt>
      <trkpt lat="46.95959" lon="-0.78509">
        <ele>123.1861572</ele>
        <time>2012-05-16T17:28:25Z</time>
      </trkpt>
      <trkpt lat="46.9596" lon="-0.78499">
        <ele>122.7054443</ele>
        <time>2012-05-16T17:28:27Z</time>
      </trkpt>
      <trkpt lat="46.95961" lon="-0.78461">
        <ele>121.7441406</ele>
        <time>2012-05-16T17:28:35Z</time>
      </trkpt>
      <trkpt lat="46.95956" lon="-0.78445">
        <ele>122.2247314</ele>
        <time>2012-05-16T17:28:39Z</time>
      </trkpt>
      <trkpt lat="46.95941" lon="-0.78428">
        <ele>122.2247314</ele>
        <time>2012-05-16T17:28:45Z</time>
      </trkpt>
      <trkpt lat="46.95932" lon="-0.78421">
        <ele>122.2247314</ele>
        <time>2012-05-16T17:28:49Z</time>
      </trkpt>
      <trkpt lat="46.95921" lon="-0.78417">
        <ele>123.1861572</ele>
        <time>2012-05-16T17:28:54Z</time>
      </trkpt>
      <trkpt lat="46.95915" lon="-0.78416">
        <ele>124.6280518</ele>
        <time>2012-05-16T17:28:57Z</time>
      </trkpt>
      <trkpt lat="46.9591" lon="-0.78416">
        <ele>125.5893555</ele>
        <time>2012-05-16T17:29:00Z</time>
      </trkpt>
      <trkpt lat="46.95908" lon="-0.78417">
        <ele>125.5893555</ele>
        <time>2012-05-16T17:29:01Z</time>
      </trkpt>
      <trkpt lat="46.95904" lon="-0.7842">
        <ele>125.5893555</ele>
        <time>2012-05-16T17:29:03Z</time>
      </trkpt>
      <trkpt lat="46.95898" lon="-0.78415">
        <ele>126.0699463</ele>
        <time>2012-05-16T17:29:07Z</time>
      </trkpt>
      <trkpt lat="46.95894" lon="-0.78409">
        <ele>127.0313721</ele>
        <time>2012-05-16T17:29:11Z</time>
      </trkpt>
      <trkpt lat="46.9589" lon="-0.78402">
        <ele>127.5119629</ele>
        <time>2012-05-16T17:29:16Z</time>
      </trkpt>
      <trkpt lat="46.95889" lon="-0.78401">
        <ele>127.5119629</ele>
        <time>2012-05-16T17:29:17Z</time>
      </trkpt>
      <trkpt lat="46.95888" lon="-0.78397">
        <ele>128.9541016</ele>
        <time>2012-05-16T17:29:20Z</time>
      </trkpt>
      <trkpt lat="46.95886" lon="-0.78394">
        <ele>128.4733887</ele>
        <time>2012-05-16T17:29:23Z</time>
      </trkpt>
      <trkpt lat="46.95882" lon="-0.78385">
        <ele>130.3959961</ele>
        <time>2012-05-16T17:29:27Z</time>
      </trkpt>
      <trkpt lat="46.95876" lon="-0.78371">
        <ele>131.8378906</ele>
        <time>2012-05-16T17:29:32Z</time>
      </trkpt>
      <trkpt lat="46.95866" lon="-0.78355">
        <ele>131.3572998</ele>
        <time>2012-05-16T17:29:38Z</time>
      </trkpt>
      <trkpt lat="46.95858" lon="-0.78342">
        <ele>130.3959961</ele>
        <time>2012-05-16T17:29:43Z</time>
      </trkpt>
      <trkpt lat="46.95848" lon="-0.7833">
        <ele>129.9152832</ele>
        <time>2012-05-16T17:29:48Z</time>
      </trkpt>
      <trkpt lat="46.95836" lon="-0.78308">
        <ele>130.3959961</ele>
        <time>2012-05-16T17:29:55Z</time>
      </trkpt>
      <trkpt lat="46.9582" lon="-0.78279">
        <ele>129.4346924</ele>
        <time>2012-05-16T17:30:03Z</time>
      </trkpt>
      <trkpt lat="46.95809" lon="-0.78257">
        <ele>126.5506592</ele>
        <time>2012-05-16T17:30:08Z</time>
      </trkpt>
      <trkpt lat="46.95795" lon="-0.78229">
        <ele>129.4346924</ele>
        <time>2012-05-16T17:30:14Z</time>
      </trkpt>
      <trkpt lat="46.95781" lon="-0.78199">
        <ele>131.3572998</ele>
        <time>2012-05-16T17:30:21Z</time>
      </trkpt>
      <trkpt lat="46.9577" lon="-0.78176">
        <ele>131.8378906</ele>
        <time>2012-05-16T17:30:27Z</time>
      </trkpt>
      <trkpt lat="46.95749" lon="-0.78137">
        <ele>129.9152832</ele>
        <time>2012-05-16T17:30:36Z</time>
      </trkpt>
      <trkpt lat="46.95729" lon="-0.78094">
        <ele>131.8378906</ele>
        <time>2012-05-16T17:30:45Z</time>
      </trkpt>
      <trkpt lat="46.9571" lon="-0.78057">
        <ele>133.2799072</ele>
        <time>2012-05-16T17:30:53Z</time>
      </trkpt>
      <trkpt lat="46.95698" lon="-0.78033">
        <ele>133.2799072</ele>
        <time>2012-05-16T17:30:58Z</time>
      </trkpt>
      <trkpt lat="46.9568" lon="-0.78005">
        <ele>134.7219238</ele>
        <time>2012-05-16T17:31:05Z</time>
      </trkpt>
      <trkpt lat="46.95665" lon="-0.77979">
        <ele>134.2412109</ele>
        <time>2012-05-16T17:31:11Z</time>
      </trkpt>
      <trkpt lat="46.9565" lon="-0.77953">
        <ele>135.2025146</ele>
        <time>2012-05-16T17:31:17Z</time>
      </trkpt>
      <trkpt lat="46.95625" lon="-0.77918">
        <ele>136.6446533</ele>
        <time>2012-05-16T17:31:26Z</time>
      </trkpt>
      <trkpt lat="46.95608" lon="-0.77896">
        <ele>137.1252441</ele>
        <time>2012-05-16T17:31:33Z</time>
      </trkpt>
      <trkpt lat="46.95591" lon="-0.77874">
        <ele>139.0478516</ele>
        <time>2012-05-16T17:31:39Z</time>
      </trkpt>
      <trkpt lat="46.95574" lon="-0.77852">
        <ele>140.0091553</ele>
        <time>2012-05-16T17:31:45Z</time>
      </trkpt>
      <trkpt lat="46.95553" lon="-0.77821">
        <ele>138.0865479</ele>
        <time>2012-05-16T17:31:53Z</time>
      </trkpt>
      <trkpt lat="46.95535" lon="-0.77795">
        <ele>135.6831055</ele>
        <time>2012-05-16T17:32:00Z</time>
      </trkpt>
      <trkpt lat="46.95518" lon="-0.77768">
        <ele>135.6831055</ele>
        <time>2012-05-16T17:32:07Z</time>
      </trkpt>
      <trkpt lat="46.95507" lon="-0.77773">
        <ele>137.605835</ele>
        <time>2012-05-16T17:32:11Z</time>
      </trkpt>
      <trkpt lat="46.95505" lon="-0.77789">
        <ele>137.605835</ele>
        <time>2012-05-16T17:32:14Z</time>
      </trkpt>
      <trkpt lat="46.95496" lon="-0.77828">
        <ele>137.1252441</ele>
        <time>2012-05-16T17:32:21Z</time>
      </trkpt>
      <trkpt lat="46.95493" lon="-0.7784">
        <ele>137.1252441</ele>
        <time>2012-05-16T17:32:23Z</time>
      </trkpt>
      <trkpt lat="46.95483" lon="-0.77851">
        <ele>137.1252441</ele>
        <time>2012-05-16T17:32:27Z</time>
      </trkpt>
      <trkpt lat="46.95478" lon="-0.7784">
        <ele>137.605835</ele>
        <time>2012-05-16T17:32:30Z</time>
      </trkpt>
      <trkpt lat="46.95473" lon="-0.77781">
        <ele>140.0091553</ele>
        <time>2012-05-16T17:32:41Z</time>
      </trkpt>
      <trkpt lat="46.95472" lon="-0.77775">
        <ele>140.0091553</ele>
        <time>2012-05-16T17:32:42Z</time>
      </trkpt>
      <trkpt lat="46.95464" lon="-0.77762">
        <ele>140.4898682</ele>
        <time>2012-05-16T17:32:46Z</time>
      </trkpt>
      <trkpt lat="46.95463" lon="-0.77758">
        <ele>140.4898682</ele>
        <time>2012-05-16T17:32:47Z</time>
      </trkpt>
      <trkpt lat="46.95464" lon="-0.77721">
        <ele>141.4510498</ele>
        <time>2012-05-16T17:32:54Z</time>
      </trkpt>
      <trkpt lat="46.95465" lon="-0.77677">
        <ele>142.8930664</ele>
        <time>2012-05-16T17:33:02Z</time>
      </trkpt>
      <trkpt lat="46.95456" lon="-0.77663">
        <ele>142.8930664</ele>
        <time>2012-05-16T17:33:06Z</time>
      </trkpt>
      <trkpt lat="46.95426" lon="-0.77634">
        <ele>142.8930664</ele>
        <time>2012-05-16T17:33:16Z</time>
      </trkpt>
      <trkpt lat="46.95404" lon="-0.7761">
        <ele>143.3736572</ele>
        <time>2012-05-16T17:33:24Z</time>
      </trkpt>
      <trkpt lat="46.9538" lon="-0.77586">
        <ele>144.3352051</ele>
        <time>2012-05-16T17:33:32Z</time>
      </trkpt>
      <trkpt lat="46.95354" lon="-0.77565">
        <ele>143.3736572</ele>
        <time>2012-05-16T17:33:40Z</time>
      </trkpt>
      <trkpt lat="46.95331" lon="-0.77546">
        <ele>144.3352051</ele>
        <time>2012-05-16T17:33:47Z</time>
      </trkpt>
      <trkpt lat="46.95312" lon="-0.77536">
        <ele>142.8930664</ele>
        <time>2012-05-16T17:33:52Z</time>
      </trkpt>
      <trkpt lat="46.95286" lon="-0.77526">
        <ele>142.8930664</ele>
        <time>2012-05-16T17:33:58Z</time>
      </trkpt>
      <trkpt lat="46.95249" lon="-0.77514">
        <ele>142.8930664</ele>
        <time>2012-05-16T17:34:07Z</time>
      </trkpt>
      <trkpt lat="46.95216" lon="-0.77503">
        <ele>143.3736572</ele>
        <time>2012-05-16T17:34:15Z</time>
      </trkpt>
      <trkpt lat="46.95175" lon="-0.77491">
        <ele>144.8157959</ele>
        <time>2012-05-16T17:34:24Z</time>
      </trkpt>
      <trkpt lat="46.9513" lon="-0.77471">
        <ele>145.2963867</ele>
        <time>2012-05-16T17:34:33Z</time>
      </trkpt>
      <trkpt lat="46.95079" lon="-0.77449">
        <ele>144.3352051</ele>
        <time>2012-05-16T17:34:42Z</time>
      </trkpt>
      <trkpt lat="46.9505" lon="-0.77435">
        <ele>143.3736572</ele>
        <time>2012-05-16T17:34:47Z</time>
      </trkpt>
      <trkpt lat="46.95008" lon="-0.774">
        <ele>142.8930664</ele>
        <time>2012-05-16T17:34:55Z</time>
      </trkpt>
      <trkpt lat="46.94963" lon="-0.77368">
        <ele>143.8543701</ele>
        <time>2012-05-16T17:35:04Z</time>
      </trkpt>
      <trkpt lat="46.94922" lon="-0.7734">
        <ele>143.3736572</ele>
        <time>2012-05-16T17:35:12Z</time>
      </trkpt>
      <trkpt lat="46.94893" lon="-0.77336">
        <ele>143.8543701</ele>
        <time>2012-05-16T17:35:17Z</time>
      </trkpt>
      <trkpt lat="46.94851" lon="-0.77336">
        <ele>143.8543701</ele>
        <time>2012-05-16T17:35:24Z</time>
      </trkpt>
      <trkpt lat="46.94833" lon="-0.77335">
        <ele>144.3352051</ele>
        <time>2012-05-16T17:35:27Z</time>
      </trkpt>
      <trkpt lat="46.94811" lon="-0.77323">
        <ele>144.3352051</ele>
        <time>2012-05-16T17:35:31Z</time>
      </trkpt>
      <trkpt lat="46.94783" lon="-0.77294">
        <ele>143.8543701</ele>
        <time>2012-05-16T17:35:36Z</time>
      </trkpt>
      <trkpt lat="46.94762" lon="-0.77274">
        <ele>144.3352051</ele>
        <time>2012-05-16T17:35:39Z</time>
      </trkpt>
      <trkpt lat="46.94745" lon="-0.77258">
        <ele>145.7770996</ele>
        <time>2012-05-16T17:35:42Z</time>
      </trkpt>
      <trkpt lat="46.94731" lon="-0.77245">
        <ele>146.7384033</ele>
        <time>2012-05-16T17:35:45Z</time>
      </trkpt>
      <trkpt lat="46.94723" lon="-0.77237">
        <ele>147.699707</ele>
        <time>2012-05-16T17:35:47Z</time>
      </trkpt>
      <trkpt lat="46.94719" lon="-0.77233">
        <ele>147.2189941</ele>
        <time>2012-05-16T17:35:48Z</time>
      </trkpt>
      <trkpt lat="46.94701" lon="-0.77216">
        <ele>147.699707</ele>
        <time>2012-05-16T17:35:53Z</time>
      </trkpt>
      <trkpt lat="46.94693" lon="-0.7721">
        <ele>148.1804199</ele>
        <time>2012-05-16T17:35:55Z</time>
      </trkpt>
      <trkpt lat="46.94676" lon="-0.77205">
        <ele>148.1804199</ele>
        <time>2012-05-16T17:35:59Z</time>
      </trkpt>
      <trkpt lat="46.94664" lon="-0.77206">
        <ele>148.6610107</ele>
        <time>2012-05-16T17:36:02Z</time>
      </trkpt>
      <trkpt lat="46.94649" lon="-0.77212">
        <ele>148.1804199</ele>
        <time>2012-05-16T17:36:06Z</time>
      </trkpt>
      <trkpt lat="46.94616" lon="-0.77228">
        <ele>146.2578125</ele>
        <time>2012-05-16T17:36:14Z</time>
      </trkpt>
      <trkpt lat="46.94584" lon="-0.77229">
        <ele>147.699707</ele>
        <time>2012-05-16T17:36:21Z</time>
      </trkpt>
      <trkpt lat="46.94554" lon="-0.77228">
        <ele>147.699707</ele>
        <time>2012-05-16T17:36:28Z</time>
      </trkpt>
      <trkpt lat="46.94549" lon="-0.77228">
        <ele>147.699707</ele>
        <time>2012-05-16T17:36:29Z</time>
      </trkpt>
      <trkpt lat="46.94531" lon="-0.77233">
        <ele>147.699707</ele>
        <time>2012-05-16T17:36:33Z</time>
      </trkpt>
      <trkpt lat="46.94511" lon="-0.77245">
        <ele>146.7384033</ele>
        <time>2012-05-16T17:36:37Z</time>
      </trkpt>
      <trkpt lat="46.94492" lon="-0.77246">
        <ele>147.2189941</ele>
        <time>2012-05-16T17:36:41Z</time>
      </trkpt>
      <trkpt lat="46.94482" lon="-0.77239">
        <ele>147.2189941</ele>
        <time>2012-05-16T17:36:43Z</time>
      </trkpt>
      <trkpt lat="46.94467" lon="-0.77238">
        <ele>148.1804199</ele>
        <time>2012-05-16T17:36:46Z</time>
      </trkpt>
      <trkpt lat="46.94455" lon="-0.77235">
        <ele>150.5836182</ele>
        <time>2012-05-16T17:36:49Z</time>
      </trkpt>
      <trkpt lat="46.94445" lon="-0.77224">
        <ele>151.064209</ele>
        <time>2012-05-16T17:36:53Z</time>
      </trkpt>
      <trkpt lat="46.94436" lon="-0.77227">
        <ele>152.5063477</ele>
        <time>2012-05-16T17:36:57Z</time>
      </trkpt>
      <trkpt lat="46.94423" lon="-0.77249">
        <ele>151.5449219</ele>
        <time>2012-05-16T17:37:03Z</time>
      </trkpt>
      <trkpt lat="46.94407" lon="-0.77277">
        <ele>152.9869385</ele>
        <time>2012-05-16T17:37:09Z</time>
      </trkpt>
      <trkpt lat="46.94401" lon="-0.77287">
        <ele>152.5063477</ele>
        <time>2012-05-16T17:37:12Z</time>
      </trkpt>
      <trkpt lat="46.94388" lon="-0.77307">
        <ele>152.5063477</ele>
        <time>2012-05-16T17:37:17Z</time>
      </trkpt>
      <trkpt lat="46.94359" lon="-0.77323">
        <ele>152.5063477</ele>
        <time>2012-05-16T17:37:24Z</time>
      </trkpt>
      <trkpt lat="46.94316" lon="-0.7733">
        <ele>152.5063477</ele>
        <time>2012-05-16T17:37:34Z</time>
      </trkpt>
      <trkpt lat="46.94281" lon="-0.77336">
        <ele>151.5449219</ele>
        <time>2012-05-16T17:37:41Z</time>
      </trkpt>
      <trkpt lat="46.94238" lon="-0.77341">
        <ele>149.6223145</ele>
        <time>2012-05-16T17:37:48Z</time>
      </trkpt>
      <trkpt lat="46.94204" lon="-0.7734">
        <ele>148.1804199</ele>
        <time>2012-05-16T17:37:53Z</time>
      </trkpt>
      <trkpt lat="46.94158" lon="-0.77345">
        <ele>145.7770996</ele>
        <time>2012-05-16T17:37:59Z</time>
      </trkpt>
      <trkpt lat="46.9415" lon="-0.77348">
        <ele>144.8157959</ele>
        <time>2012-05-16T17:38:00Z</time>
      </trkpt>
      <trkpt lat="46.94126" lon="-0.77373">
        <ele>143.3736572</ele>
        <time>2012-05-16T17:38:04Z</time>
      </trkpt>
      <trkpt lat="46.94125" lon="-0.77405">
        <ele>142.4124756</ele>
        <time>2012-05-16T17:38:07Z</time>
      </trkpt>
      <trkpt lat="46.94127" lon="-0.77415">
        <ele>141.9317627</ele>
        <time>2012-05-16T17:38:08Z</time>
      </trkpt>
      <trkpt lat="46.94146" lon="-0.77488">
        <ele>140.4898682</ele>
        <time>2012-05-16T17:38:15Z</time>
      </trkpt>
      <trkpt lat="46.94161" lon="-0.77549">
        <ele>140.970459</ele>
        <time>2012-05-16T17:38:21Z</time>
      </trkpt>
      <trkpt lat="46.94163" lon="-0.77569">
        <ele>140.970459</ele>
        <time>2012-05-16T17:38:23Z</time>
      </trkpt>
      <trkpt lat="46.9416" lon="-0.7762">
        <ele>139.5284424</ele>
        <time>2012-05-16T17:38:28Z</time>
      </trkpt>
      <trkpt lat="46.94151" lon="-0.77664">
        <ele>138.0865479</ele>
        <time>2012-05-16T17:38:32Z</time>
      </trkpt>
      <trkpt lat="46.9413" lon="-0.77697">
        <ele>137.605835</ele>
        <time>2012-05-16T17:38:36Z</time>
      </trkpt>
      <trkpt lat="46.94108" lon="-0.77698">
        <ele>136.6446533</ele>
        <time>2012-05-16T17:38:39Z</time>
      </trkpt>
      <trkpt lat="46.94101" lon="-0.77696">
        <ele>136.6446533</ele>
        <time>2012-05-16T17:38:40Z</time>
      </trkpt>
      <trkpt lat="46.94088" lon="-0.77691">
        <ele>136.6446533</ele>
        <time>2012-05-16T17:38:42Z</time>
      </trkpt>
      <trkpt lat="46.94075" lon="-0.77702">
        <ele>134.2412109</ele>
        <time>2012-05-16T17:38:46Z</time>
      </trkpt>
      <trkpt lat="46.94067" lon="-0.7775">
        <ele>132.7993164</ele>
        <time>2012-05-16T17:38:52Z</time>
      </trkpt>
      <trkpt lat="46.94053" lon="-0.77776">
        <ele>132.3186035</ele>
        <time>2012-05-16T17:38:56Z</time>
      </trkpt>
      <trkpt lat="46.94023" lon="-0.77806">
        <ele>133.2799072</ele>
        <time>2012-05-16T17:39:02Z</time>
      </trkpt>
      <trkpt lat="46.94001" lon="-0.77835">
        <ele>136.1639404</ele>
        <time>2012-05-16T17:39:08Z</time>
      </trkpt>
      <trkpt lat="46.93983" lon="-0.77864">
        <ele>138.0865479</ele>
        <time>2012-05-16T17:39:14Z</time>
      </trkpt>
      <trkpt lat="46.9398" lon="-0.77869">
        <ele>138.0865479</ele>
        <time>2012-05-16T17:39:15Z</time>
      </trkpt>
      <trkpt lat="46.93974" lon="-0.77886">
        <ele>138.5672607</ele>
        <time>2012-05-16T17:39:18Z</time>
      </trkpt>
      <trkpt lat="46.9397" lon="-0.77905">
        <ele>138.5672607</ele>
        <time>2012-05-16T17:39:21Z</time>
      </trkpt>
      <trkpt lat="46.93965" lon="-0.77942">
        <ele>138.0865479</ele>
        <time>2012-05-16T17:39:27Z</time>
      </trkpt>
      <trkpt lat="46.9396" lon="-0.7798">
        <ele>137.1252441</ele>
        <time>2012-05-16T17:39:33Z</time>
      </trkpt>
      <trkpt lat="46.93955" lon="-0.78">
        <ele>137.1252441</ele>
        <time>2012-05-16T17:39:36Z</time>
      </trkpt>
      <trkpt lat="46.93948" lon="-0.78037">
        <ele>137.1252441</ele>
        <time>2012-05-16T17:39:42Z</time>
      </trkpt>
      <trkpt lat="46.93944" lon="-0.78067">
        <ele>138.0865479</ele>
        <time>2012-05-16T17:39:47Z</time>
      </trkpt>
      <trkpt lat="46.93943" lon="-0.78072">
        <ele>138.0865479</ele>
        <time>2012-05-16T17:39:48Z</time>
      </trkpt>
      <trkpt lat="46.93941" lon="-0.7809">
        <ele>138.5672607</ele>
        <time>2012-05-16T17:39:51Z</time>
      </trkpt>
      <trkpt lat="46.93937" lon="-0.78126">
        <ele>138.5672607</ele>
        <time>2012-05-16T17:39:58Z</time>
      </trkpt>
      <trkpt lat="46.93933" lon="-0.78152">
        <ele>139.5284424</ele>
        <time>2012-05-16T17:40:03Z</time>
      </trkpt>
      <trkpt lat="46.93929" lon="-0.78177">
        <ele>139.5284424</ele>
        <time>2012-05-16T17:40:08Z</time>
      </trkpt>
      <trkpt lat="46.93925" lon="-0.78208">
        <ele>139.5284424</ele>
        <time>2012-05-16T17:40:14Z</time>
      </trkpt>
      <trkpt lat="46.93919" lon="-0.78249">
        <ele>142.8930664</ele>
        <time>2012-05-16T17:40:22Z</time>
      </trkpt>
      <trkpt lat="46.93916" lon="-0.78274">
        <ele>144.3352051</ele>
        <time>2012-05-16T17:40:27Z</time>
      </trkpt>
      <trkpt lat="46.93912" lon="-0.78303">
        <ele>146.2578125</ele>
        <time>2012-05-16T17:40:33Z</time>
      </trkpt>
      <trkpt lat="46.9391" lon="-0.78325">
        <ele>148.1804199</ele>
        <time>2012-05-16T17:40:38Z</time>
      </trkpt>
      <trkpt lat="46.93908" lon="-0.78348">
        <ele>150.1030273</ele>
        <time>2012-05-16T17:40:43Z</time>
      </trkpt>
      <trkpt lat="46.9391" lon="-0.78371">
        <ele>151.5449219</ele>
        <time>2012-05-16T17:40:49Z</time>
      </trkpt>
      <trkpt lat="46.9392" lon="-0.78399">
        <ele>152.0257568</ele>
        <time>2012-05-16T17:40:56Z</time>
      </trkpt>
      <trkpt lat="46.93934" lon="-0.7843">
        <ele>153.9483643</ele>
        <time>2012-05-16T17:41:04Z</time>
      </trkpt>
      <trkpt lat="46.93945" lon="-0.78455">
        <ele>157.3128662</ele>
        <time>2012-05-16T17:41:11Z</time>
      </trkpt>
      <trkpt lat="46.93955" lon="-0.78478">
        <ele>159.2354736</ele>
        <time>2012-05-16T17:41:17Z</time>
      </trkpt>
      <trkpt lat="46.93966" lon="-0.78505">
        <ele>160.6774902</ele>
        <time>2012-05-16T17:41:24Z</time>
      </trkpt>
      <trkpt lat="46.93976" lon="-0.78528">
        <ele>161.1582031</ele>
        <time>2012-05-16T17:41:31Z</time>
      </trkpt>
      <trkpt lat="46.93986" lon="-0.78546">
        <ele>163.0808105</ele>
        <time>2012-05-16T17:41:37Z</time>
      </trkpt>
      <trkpt lat="46.93995" lon="-0.78564">
        <ele>163.5615234</ele>
        <time>2012-05-16T17:41:42Z</time>
      </trkpt>
      <trkpt lat="46.94003" lon="-0.78574">
        <ele>164.5227051</ele>
        <time>2012-05-16T17:41:46Z</time>
      </trkpt>
      <trkpt lat="46.94014" lon="-0.78587">
        <ele>164.5227051</ele>
        <time>2012-05-16T17:41:52Z</time>
      </trkpt>
      <trkpt lat="46.94023" lon="-0.78604">
        <ele>164.5227051</ele>
        <time>2012-05-16T17:41:57Z</time>
      </trkpt>
      <trkpt lat="46.94035" lon="-0.78623">
        <ele>165.9647217</ele>
        <time>2012-05-16T17:42:03Z</time>
      </trkpt>
      <trkpt lat="46.94045" lon="-0.78641">
        <ele>166.4453125</ele>
        <time>2012-05-16T17:42:08Z</time>
      </trkpt>
      <trkpt lat="46.9406" lon="-0.78669">
        <ele>166.4453125</ele>
        <time>2012-05-16T17:42:16Z</time>
      </trkpt>
      <trkpt lat="46.94069" lon="-0.7869">
        <ele>167.4067383</ele>
        <time>2012-05-16T17:42:22Z</time>
      </trkpt>
      <trkpt lat="46.94078" lon="-0.78708">
        <ele>168.8487549</ele>
        <time>2012-05-16T17:42:27Z</time>
      </trkpt>
      <trkpt lat="46.94092" lon="-0.78731">
        <ele>171.732666</ele>
        <time>2012-05-16T17:42:34Z</time>
      </trkpt>
      <trkpt lat="46.94102" lon="-0.78754">
        <ele>173.6552734</ele>
        <time>2012-05-16T17:42:41Z</time>
      </trkpt>
      <trkpt lat="46.94104" lon="-0.78762">
        <ele>174.6165771</ele>
        <time>2012-05-16T17:42:43Z</time>
      </trkpt>
      <trkpt lat="46.94097" lon="-0.78777">
        <ele>176.5393066</ele>
        <time>2012-05-16T17:42:48Z</time>
      </trkpt>
      <trkpt lat="46.94099" lon="-0.78792">
        <ele>176.5393066</ele>
        <time>2012-05-16T17:42:52Z</time>
      </trkpt>
      <trkpt lat="46.94109" lon="-0.78803">
        <ele>177.5006104</ele>
        <time>2012-05-16T17:42:58Z</time>
      </trkpt>
      <trkpt lat="46.94118" lon="-0.7881">
        <ele>178.942627</ele>
        <time>2012-05-16T17:43:03Z</time>
      </trkpt>
      <trkpt lat="46.94123" lon="-0.78818">
        <ele>179.4232178</ele>
        <time>2012-05-16T17:43:06Z</time>
      </trkpt>
      <trkpt lat="46.94132" lon="-0.78829">
        <ele>179.4232178</ele>
        <time>2012-05-16T17:43:12Z</time>
      </trkpt>
      <trkpt lat="46.94136" lon="-0.78834">
        <ele>179.4232178</ele>
        <time>2012-05-16T17:43:15Z</time>
      </trkpt>
      <trkpt lat="46.94147" lon="-0.7885">
        <ele>179.9038086</ele>
        <time>2012-05-16T17:43:22Z</time>
      </trkpt>
      <trkpt lat="46.94149" lon="-0.78853">
        <ele>179.9038086</ele>
        <time>2012-05-16T17:43:23Z</time>
      </trkpt>
      <trkpt lat="46.94158" lon="-0.78878">
        <ele>181.3458252</ele>
        <time>2012-05-16T17:43:31Z</time>
      </trkpt>
      <trkpt lat="46.94164" lon="-0.78898">
        <ele>183.2684326</ele>
        <time>2012-05-16T17:43:38Z</time>
      </trkpt>
      <trkpt lat="46.94165" lon="-0.78907">
        <ele>184.2298584</ele>
        <time>2012-05-16T17:43:43Z</time>
      </trkpt>
      <trkpt lat="46.94167" lon="-0.78911">
        <ele>190.4783936</ele>
        <time>2012-05-16T17:43:55Z</time>
      </trkpt>
      <trkpt lat="46.94167" lon="-0.78913">
        <ele>194.8043213</ele>
        <time>2012-05-16T17:44:06Z</time>
      </trkpt>
      <trkpt lat="46.94168" lon="-0.78923">
        <ele>194.3237305</ele>
        <time>2012-05-16T17:44:11Z</time>
      </trkpt>
      <trkpt lat="46.94175" lon="-0.78938">
        <ele>193.3623047</ele>
        <time>2012-05-16T17:44:15Z</time>
      </trkpt>
      <trkpt lat="46.94189" lon="-0.78949">
        <ele>192.8817139</ele>
        <time>2012-05-16T17:44:19Z</time>
      </trkpt>
      <trkpt lat="46.94204" lon="-0.78965">
        <ele>191.9202881</ele>
        <time>2012-05-16T17:44:23Z</time>
      </trkpt>
      <trkpt lat="46.94217" lon="-0.78981">
        <ele>191.4395752</ele>
        <time>2012-05-16T17:44:27Z</time>
      </trkpt>
      <trkpt lat="46.94223" lon="-0.78987">
        <ele>191.9202881</ele>
        <time>2012-05-16T17:44:29Z</time>
      </trkpt>
      <trkpt lat="46.94237" lon="-0.79015">
        <ele>191.4395752</ele>
        <time>2012-05-16T17:44:36Z</time>
      </trkpt>
      <trkpt lat="46.94248" lon="-0.79034">
        <ele>192.401123</ele>
        <time>2012-05-16T17:44:42Z</time>
      </trkpt>
      <trkpt lat="46.94253" lon="-0.79047">
        <ele>190.9589844</ele>
        <time>2012-05-16T17:44:46Z</time>
      </trkpt>
      <trkpt lat="46.9426" lon="-0.79069">
        <ele>189.5169678</ele>
        <time>2012-05-16T17:44:51Z</time>
      </trkpt>
      <trkpt lat="46.94265" lon="-0.79091">
        <ele>188.0750732</ele>
        <time>2012-05-16T17:44:56Z</time>
      </trkpt>
      <trkpt lat="46.94272" lon="-0.79126">
        <ele>187.5943604</ele>
        <time>2012-05-16T17:45:03Z</time>
      </trkpt>
      <trkpt lat="46.94272" lon="-0.7913">
        <ele>187.1137695</ele>
        <time>2012-05-16T17:45:04Z</time>
      </trkpt>
      <trkpt lat="46.9429" lon="-0.79156">
        <ele>187.1137695</ele>
        <time>2012-05-16T17:45:10Z</time>
      </trkpt>
      <trkpt lat="46.94315" lon="-0.79177">
        <ele>185.6717529</ele>
        <time>2012-05-16T17:45:16Z</time>
      </trkpt>
      <trkpt lat="46.94349" lon="-0.79196">
        <ele>187.1137695</ele>
        <time>2012-05-16T17:45:23Z</time>
      </trkpt>
      <trkpt lat="46.94385" lon="-0.7922">
        <ele>187.1137695</ele>
        <time>2012-05-16T17:45:30Z</time>
      </trkpt>
      <trkpt lat="46.94399" lon="-0.79233">
        <ele>186.1524658</ele>
        <time>2012-05-16T17:45:33Z</time>
      </trkpt>
      <trkpt lat="46.94415" lon="-0.79257">
        <ele>185.6717529</ele>
        <time>2012-05-16T17:45:37Z</time>
      </trkpt>
      <trkpt lat="46.94426" lon="-0.79284">
        <ele>185.1911621</ele>
        <time>2012-05-16T17:45:41Z</time>
      </trkpt>
      <trkpt lat="46.94429" lon="-0.79312">
        <ele>184.7105713</ele>
        <time>2012-05-16T17:45:45Z</time>
      </trkpt>
      <trkpt lat="46.94427" lon="-0.79331">
        <ele>184.2298584</ele>
        <time>2012-05-16T17:45:48Z</time>
      </trkpt>
      <trkpt lat="46.94423" lon="-0.79369">
        <ele>183.7490234</ele>
        <time>2012-05-16T17:45:54Z</time>
      </trkpt>
      <trkpt lat="46.94425" lon="-0.79374">
        <ele>183.7490234</ele>
        <time>2012-05-16T17:45:55Z</time>
      </trkpt>
      <trkpt lat="46.94434" lon="-0.79389">
        <ele>183.7490234</ele>
        <time>2012-05-16T17:45:58Z</time>
      </trkpt>
      <trkpt lat="46.94438" lon="-0.79401">
        <ele>183.7490234</ele>
        <time>2012-05-16T17:46:00Z</time>
      </trkpt>
      <trkpt lat="46.94439" lon="-0.7943">
        <ele>184.7105713</ele>
        <time>2012-05-16T17:46:05Z</time>
      </trkpt>
      <trkpt lat="46.94431" lon="-0.79432">
        <ele>185.1911621</ele>
        <time>2012-05-16T17:46:07Z</time>
      </trkpt>
      <trkpt lat="46.94401" lon="-0.7944">
        <ele>186.6331787</ele>
        <time>2012-05-16T17:46:14Z</time>
      </trkpt>
      <trkpt lat="46.94392" lon="-0.79446">
        <ele>186.1524658</ele>
        <time>2012-05-16T17:46:16Z</time>
      </trkpt>
      <trkpt lat="46.94379" lon="-0.79455">
        <ele>186.1524658</ele>
        <time>2012-05-16T17:46:19Z</time>
      </trkpt>
      <trkpt lat="46.9435" lon="-0.79457">
        <ele>186.1524658</ele>
        <time>2012-05-16T17:46:25Z</time>
      </trkpt>
      <trkpt lat="46.94335" lon="-0.7945">
        <ele>186.6331787</ele>
        <time>2012-05-16T17:46:28Z</time>
      </trkpt>
      <trkpt lat="46.94309" lon="-0.79446">
        <ele>185.1911621</ele>
        <time>2012-05-16T17:46:32Z</time>
      </trkpt>
      <trkpt lat="46.94294" lon="-0.79452">
        <ele>184.7105713</ele>
        <time>2012-05-16T17:46:34Z</time>
      </trkpt>
      <trkpt lat="46.94265" lon="-0.79488">
        <ele>180.8652344</ele>
        <time>2012-05-16T17:46:38Z</time>
      </trkpt>
      <trkpt lat="46.94257" lon="-0.79499">
        <ele>179.9038086</ele>
        <time>2012-05-16T17:46:39Z</time>
      </trkpt>
      <trkpt lat="46.94215" lon="-0.79537">
        <ele>177.0200195</ele>
        <time>2012-05-16T17:46:44Z</time>
      </trkpt>
      <trkpt lat="46.94167" lon="-0.79569">
        <ele>172.2132568</ele>
        <time>2012-05-16T17:46:49Z</time>
      </trkpt>
      <trkpt lat="46.94115" lon="-0.79606">
        <ele>166.4453125</ele>
        <time>2012-05-16T17:46:54Z</time>
      </trkpt>
      <trkpt lat="46.94079" lon="-0.79646">
        <ele>162.1195068</ele>
        <time>2012-05-16T17:46:58Z</time>
      </trkpt>
      <trkpt lat="46.94028" lon="-0.79709">
        <ele>157.7935791</ele>
        <time>2012-05-16T17:47:04Z</time>
      </trkpt>
      <trkpt lat="46.93996" lon="-0.79739">
        <ele>156.8321533</ele>
        <time>2012-05-16T17:47:08Z</time>
      </trkpt>
      <trkpt lat="46.93979" lon="-0.79749">
        <ele>155.8709717</ele>
        <time>2012-05-16T17:47:10Z</time>
      </trkpt>
      <trkpt lat="46.93929" lon="-0.79758">
        <ele>155.3902588</ele>
        <time>2012-05-16T17:47:16Z</time>
      </trkpt>
      <trkpt lat="46.93876" lon="-0.79765">
        <ele>155.8709717</ele>
        <time>2012-05-16T17:47:23Z</time>
      </trkpt>
      <trkpt lat="46.93857" lon="-0.79766">
        <ele>156.3515625</ele>
        <time>2012-05-16T17:47:26Z</time>
      </trkpt>
      <trkpt lat="46.93839" lon="-0.79768">
        <ele>156.3515625</ele>
        <time>2012-05-16T17:47:30Z</time>
      </trkpt>
      <trkpt lat="46.93814" lon="-0.79764">
        <ele>156.3515625</ele>
        <time>2012-05-16T17:47:37Z</time>
      </trkpt>
      <trkpt lat="46.93807" lon="-0.79765">
        <ele>156.3515625</ele>
        <time>2012-05-16T17:47:40Z</time>
      </trkpt>
      <trkpt lat="46.93805" lon="-0.79774">
        <ele>156.3515625</ele>
        <time>2012-05-16T17:47:45Z</time>
      </trkpt>
      <trkpt lat="46.93808" lon="-0.79789">
        <ele>156.3515625</ele>
        <time>2012-05-16T17:47:50Z</time>
      </trkpt>
      <trkpt lat="46.93809" lon="-0.79793">
        <ele>155.8709717</ele>
        <time>2012-05-16T17:47:51Z</time>
      </trkpt>
      <trkpt lat="46.93813" lon="-0.7982">
        <ele>155.3902588</ele>
        <time>2012-05-16T17:47:57Z</time>
      </trkpt>
      <trkpt lat="46.93818" lon="-0.79857">
        <ele>153.4676514</ele>
        <time>2012-05-16T17:48:03Z</time>
      </trkpt>
      <trkpt lat="46.93818" lon="-0.79913">
        <ele>150.5836182</ele>
        <time>2012-05-16T17:48:11Z</time>
      </trkpt>
      <trkpt lat="46.93818" lon="-0.7992">
        <ele>150.1030273</ele>
        <time>2012-05-16T17:48:12Z</time>
      </trkpt>
      <trkpt lat="46.9382" lon="-0.7994">
        <ele>150.1030273</ele>
        <time>2012-05-16T17:48:15Z</time>
      </trkpt>
      <trkpt lat="46.93833" lon="-0.79982">
        <ele>151.064209</ele>
        <time>2012-05-16T17:48:22Z</time>
      </trkpt>
      <trkpt lat="46.93848" lon="-0.80021">
        <ele>151.064209</ele>
        <time>2012-05-16T17:48:28Z</time>
      </trkpt>
      <trkpt lat="46.93869" lon="-0.80071">
        <ele>150.1030273</ele>
        <time>2012-05-16T17:48:35Z</time>
      </trkpt>
      <trkpt lat="46.93887" lon="-0.80109">
        <ele>149.1416016</ele>
        <time>2012-05-16T17:48:40Z</time>
      </trkpt>
      <trkpt lat="46.93902" lon="-0.80141">
        <ele>149.1416016</ele>
        <time>2012-05-16T17:48:44Z</time>
      </trkpt>
      <trkpt lat="46.93903" lon="-0.80163">
        <ele>149.1416016</ele>
        <time>2012-05-16T17:48:47Z</time>
      </trkpt>
      <trkpt lat="46.93896" lon="-0.80173">
        <ele>149.1416016</ele>
        <time>2012-05-16T17:48:49Z</time>
      </trkpt>
      <trkpt lat="46.93868" lon="-0.80204">
        <ele>150.5836182</ele>
        <time>2012-05-16T17:48:56Z</time>
      </trkpt>
      <trkpt lat="46.9384" lon="-0.80237">
        <ele>152.0257568</ele>
        <time>2012-05-16T17:49:04Z</time>
      </trkpt>
      <trkpt lat="46.93817" lon="-0.8027">
        <ele>153.4676514</ele>
        <time>2012-05-16T17:49:11Z</time>
      </trkpt>
      <trkpt lat="46.93793" lon="-0.80307">
        <ele>154.4289551</ele>
        <time>2012-05-16T17:49:19Z</time>
      </trkpt>
      <trkpt lat="46.93777" lon="-0.8035">
        <ele>154.4289551</ele>
        <time>2012-05-16T17:49:27Z</time>
      </trkpt>
      <trkpt lat="46.93761" lon="-0.80408">
        <ele>154.4289551</ele>
        <time>2012-05-16T17:49:37Z</time>
      </trkpt>
      <trkpt lat="46.93757" lon="-0.8042">
        <ele>153.9483643</ele>
        <time>2012-05-16T17:49:39Z</time>
      </trkpt>
      <trkpt lat="46.93733" lon="-0.80478">
        <ele>157.3128662</ele>
        <time>2012-05-16T17:49:51Z</time>
      </trkpt>
      <trkpt lat="46.93717" lon="-0.80516">
        <ele>158.7547607</ele>
        <time>2012-05-16T17:50:00Z</time>
      </trkpt>
      <trkpt lat="46.937" lon="-0.80557">
        <ele>160.1968994</ele>
        <time>2012-05-16T17:50:10Z</time>
      </trkpt>
      <trkpt lat="46.93692" lon="-0.8059">
        <ele>162.1195068</ele>
        <time>2012-05-16T17:50:18Z</time>
      </trkpt>
      <trkpt lat="46.93687" lon="-0.80617">
        <ele>164.5227051</ele>
        <time>2012-05-16T17:50:25Z</time>
      </trkpt>
      <trkpt lat="46.93677" lon="-0.80641">
        <ele>165.9647217</ele>
        <time>2012-05-16T17:50:32Z</time>
      </trkpt>
      <trkpt lat="46.93663" lon="-0.80649">
        <ele>168.8487549</ele>
        <time>2012-05-16T17:50:38Z</time>
      </trkpt>
      <trkpt lat="46.93648" lon="-0.80656">
        <ele>173.1746826</ele>
        <time>2012-05-16T17:50:45Z</time>
      </trkpt>
      <trkpt lat="46.93635" lon="-0.8066">
        <ele>174.1358643</ele>
        <time>2012-05-16T17:50:52Z</time>
      </trkpt>
      <trkpt lat="46.93619" lon="-0.80662">
        <ele>175.09729</ele>
        <time>2012-05-16T17:50:59Z</time>
      </trkpt>
      <trkpt lat="46.93598" lon="-0.80663">
        <ele>176.0585938</ele>
        <time>2012-05-16T17:51:08Z</time>
      </trkpt>
      <trkpt lat="46.93576" lon="-0.80665">
        <ele>177.0200195</ele>
        <time>2012-05-16T17:51:18Z</time>
      </trkpt>
      <trkpt lat="46.93562" lon="-0.80679">
        <ele>179.9038086</ele>
        <time>2012-05-16T17:51:26Z</time>
      </trkpt>
      <trkpt lat="46.93551" lon="-0.80698">
        <ele>182.7878418</ele>
        <time>2012-05-16T17:51:34Z</time>
      </trkpt>
      <trkpt lat="46.93541" lon="-0.80716">
        <ele>185.1911621</ele>
        <time>2012-05-16T17:51:42Z</time>
      </trkpt>
      <trkpt lat="46.93532" lon="-0.80736">
        <ele>187.5943604</ele>
        <time>2012-05-16T17:51:50Z</time>
      </trkpt>
      <trkpt lat="46.9353" lon="-0.80754">
        <ele>189.5169678</ele>
        <time>2012-05-16T17:51:57Z</time>
      </trkpt>
      <trkpt lat="46.93531" lon="-0.80775">
        <ele>191.4395752</ele>
        <time>2012-05-16T17:52:06Z</time>
      </trkpt>
      <trkpt lat="46.93535" lon="-0.80793">
        <ele>192.8817139</ele>
        <time>2012-05-16T17:52:13Z</time>
      </trkpt>
      <trkpt lat="46.93539" lon="-0.80817">
        <ele>193.8430176</ele>
        <time>2012-05-16T17:52:22Z</time>
      </trkpt>
      <trkpt lat="46.93537" lon="-0.80842">
        <ele>195.765625</ele>
        <time>2012-05-16T17:52:31Z</time>
      </trkpt>
      <trkpt lat="46.93534" lon="-0.80858">
        <ele>197.2075195</ele>
        <time>2012-05-16T17:52:38Z</time>
      </trkpt>
      <trkpt lat="46.93531" lon="-0.80874">
        <ele>197.6882324</ele>
        <time>2012-05-16T17:52:44Z</time>
      </trkpt>
      <trkpt lat="46.93524" lon="-0.80891">
        <ele>197.6882324</ele>
        <time>2012-05-16T17:52:51Z</time>
      </trkpt>
      <trkpt lat="46.93514" lon="-0.80915">
        <ele>196.7269287</ele>
        <time>2012-05-16T17:53:01Z</time>
      </trkpt>
      <trkpt lat="46.93503" lon="-0.80935">
        <ele>199.6108398</ele>
        <time>2012-05-16T17:53:10Z</time>
      </trkpt>
      <trkpt lat="46.93492" lon="-0.80951">
        <ele>201.5335693</ele>
        <time>2012-05-16T17:53:18Z</time>
      </trkpt>
      <trkpt lat="46.93479" lon="-0.80966">
        <ele>203.9368896</ele>
        <time>2012-05-16T17:53:27Z</time>
      </trkpt>
      <trkpt lat="46.93467" lon="-0.80976">
        <ele>206.3400879</ele>
        <time>2012-05-16T17:53:35Z</time>
      </trkpt>
      <trkpt lat="46.93452" lon="-0.80988">
        <ele>210.1854248</ele>
        <time>2012-05-16T17:53:44Z</time>
      </trkpt>
      <trkpt lat="46.93436" lon="-0.81">
        <ele>213.5500488</ele>
        <time>2012-05-16T17:53:54Z</time>
      </trkpt>
      <trkpt lat="46.93424" lon="-0.81014">
        <ele>215.4726563</ele>
        <time>2012-05-16T17:54:03Z</time>
      </trkpt>
      <trkpt lat="46.93417" lon="-0.81029">
        <ele>214.9919434</ele>
        <time>2012-05-16T17:54:10Z</time>
      </trkpt>
      <trkpt lat="46.93407" lon="-0.8105">
        <ele>212.1080322</ele>
        <time>2012-05-16T17:54:18Z</time>
      </trkpt>
      <trkpt lat="46.93397" lon="-0.81076">
        <ele>209.2241211</ele>
        <time>2012-05-16T17:54:26Z</time>
      </trkpt>
      <trkpt lat="46.93384" lon="-0.81104">
        <ele>211.1467285</ele>
        <time>2012-05-16T17:54:35Z</time>
      </trkpt>
      <trkpt lat="46.93371" lon="-0.81126">
        <ele>213.5500488</ele>
        <time>2012-05-16T17:54:44Z</time>
      </trkpt>
      <trkpt lat="46.9336" lon="-0.81139">
        <ele>215.9532471</ele>
        <time>2012-05-16T17:54:51Z</time>
      </trkpt>
      <trkpt lat="46.93352" lon="-0.81147">
        <ele>216.9146729</ele>
        <time>2012-05-16T17:54:56Z</time>
      </trkpt>
      <trkpt lat="46.93339" lon="-0.81163">
        <ele>217.3953857</ele>
        <time>2012-05-16T17:55:03Z</time>
      </trkpt>
      <trkpt lat="46.9332" lon="-0.81178">
        <ele>218.8372803</ele>
        <time>2012-05-16T17:55:11Z</time>
      </trkpt>
      <trkpt lat="46.93297" lon="-0.81183">
        <ele>220.2791748</ele>
        <time>2012-05-16T17:55:19Z</time>
      </trkpt>
      <trkpt lat="46.93281" lon="-0.81184">
        <ele>220.2791748</ele>
        <time>2012-05-16T17:55:25Z</time>
      </trkpt>
      <trkpt lat="46.9326" lon="-0.81175">
        <ele>221.7211914</ele>
        <time>2012-05-16T17:55:33Z</time>
      </trkpt>
      <trkpt lat="46.93237" lon="-0.81162">
        <ele>222.6824951</ele>
        <time>2012-05-16T17:55:42Z</time>
      </trkpt>
      <trkpt lat="46.93215" lon="-0.81149">
        <ele>223.163208</ele>
        <time>2012-05-16T17:55:50Z</time>
      </trkpt>
      <trkpt lat="46.9319" lon="-0.81133">
        <ele>223.6437988</ele>
        <time>2012-05-16T17:55:58Z</time>
      </trkpt>
      <trkpt lat="46.93165" lon="-0.81113">
        <ele>222.6824951</ele>
        <time>2012-05-16T17:56:06Z</time>
      </trkpt>
      <trkpt lat="46.93138" lon="-0.81091">
        <ele>221.2406006</ele>
        <time>2012-05-16T17:56:14Z</time>
      </trkpt>
      <trkpt lat="46.9312" lon="-0.81081">
        <ele>220.7598877</ele>
        <time>2012-05-16T17:56:18Z</time>
      </trkpt>
      <trkpt lat="46.93106" lon="-0.81072">
        <ele>221.2406006</ele>
        <time>2012-05-16T17:56:21Z</time>
      </trkpt>
      <trkpt lat="46.93077" lon="-0.81064">
        <ele>221.7211914</ele>
        <time>2012-05-16T17:56:27Z</time>
      </trkpt>
      <trkpt lat="46.93044" lon="-0.81066">
        <ele>221.2406006</ele>
        <time>2012-05-16T17:56:33Z</time>
      </trkpt>
      <trkpt lat="46.92992" lon="-0.81072">
        <ele>221.7211914</ele>
        <time>2012-05-16T17:56:43Z</time>
      </trkpt>
      <trkpt lat="46.92959" lon="-0.81068">
        <ele>222.6824951</ele>
        <time>2012-05-16T17:56:50Z</time>
      </trkpt>
      <trkpt lat="46.92929" lon="-0.81055">
        <ele>222.6824951</ele>
        <time>2012-05-16T17:56:57Z</time>
      </trkpt>
      <trkpt lat="46.92925" lon="-0.81053">
        <ele>222.6824951</ele>
        <time>2012-05-16T17:56:58Z</time>
      </trkpt>
      <trkpt lat="46.92884" lon="-0.81025">
        <ele>221.7211914</ele>
        <time>2012-05-16T17:57:08Z</time>
      </trkpt>
      <trkpt lat="46.92857" lon="-0.81002">
        <ele>219.798584</ele>
        <time>2012-05-16T17:57:15Z</time>
      </trkpt>
      <trkpt lat="46.92846" lon="-0.80995">
        <ele>220.2791748</ele>
        <time>2012-05-16T17:57:18Z</time>
      </trkpt>
      <trkpt lat="46.92831" lon="-0.80995">
        <ele>220.2791748</ele>
        <time>2012-05-16T17:57:22Z</time>
      </trkpt>
      <trkpt lat="46.92825" lon="-0.81">
        <ele>219.798584</ele>
        <time>2012-05-16T17:57:24Z</time>
      </trkpt>
      <trkpt lat="46.92817" lon="-0.81025">
        <ele>219.3179932</ele>
        <time>2012-05-16T17:57:29Z</time>
      </trkpt>
      <trkpt lat="46.92819" lon="-0.81038">
        <ele>219.3179932</ele>
        <time>2012-05-16T17:57:31Z</time>
      </trkpt>
      <trkpt lat="46.9281" lon="-0.81054">
        <ele>218.8372803</ele>
        <time>2012-05-16T17:57:36Z</time>
      </trkpt>
      <trkpt lat="46.92778" lon="-0.81061">
        <ele>217.3953857</ele>
        <time>2012-05-16T17:57:44Z</time>
      </trkpt>
      <trkpt lat="46.92767" lon="-0.81069">
        <ele>216.9146729</ele>
        <time>2012-05-16T17:57:48Z</time>
      </trkpt>
      <trkpt lat="46.92759" lon="-0.81076">
        <ele>217.3953857</ele>
        <time>2012-05-16T17:57:51Z</time>
      </trkpt>
      <trkpt lat="46.92756" lon="-0.81102">
        <ele>216.43396</ele>
        <time>2012-05-16T17:57:56Z</time>
      </trkpt>
      <trkpt lat="46.92758" lon="-0.81132">
        <ele>214.5112305</ele>
        <time>2012-05-16T17:58:01Z</time>
      </trkpt>
      <trkpt lat="46.92759" lon="-0.81144">
        <ele>214.5112305</ele>
        <time>2012-05-16T17:58:03Z</time>
      </trkpt>
      <trkpt lat="46.92762" lon="-0.81161">
        <ele>214.0306396</ele>
        <time>2012-05-16T17:58:07Z</time>
      </trkpt>
      <trkpt lat="46.92765" lon="-0.81179">
        <ele>214.9919434</ele>
        <time>2012-05-16T17:58:11Z</time>
      </trkpt>
      <trkpt lat="46.9277" lon="-0.81208">
        <ele>215.4726563</ele>
        <time>2012-05-16T17:58:17Z</time>
      </trkpt>
      <trkpt lat="46.9278" lon="-0.8125">
        <ele>216.9146729</ele>
        <time>2012-05-16T17:58:25Z</time>
      </trkpt>
      <trkpt lat="46.92781" lon="-0.81252">
        <ele>217.3953857</ele>
        <time>2012-05-16T17:58:26Z</time>
      </trkpt>
      <trkpt lat="46.92782" lon="-0.8126">
        <ele>217.3953857</ele>
        <time>2012-05-16T17:58:31Z</time>
      </trkpt>
      <trkpt lat="46.92784" lon="-0.81267">
        <ele>217.8759766</ele>
        <time>2012-05-16T17:58:35Z</time>
      </trkpt>
      <trkpt lat="46.92786" lon="-0.81274">
        <ele>217.3953857</ele>
        <time>2012-05-16T17:58:39Z</time>
      </trkpt>
      <trkpt lat="46.92787" lon="-0.81278">
        <ele>217.3953857</ele>
        <time>2012-05-16T17:58:40Z</time>
      </trkpt>
      <trkpt lat="46.92799" lon="-0.81336">
        <ele>217.8759766</ele>
        <time>2012-05-16T17:58:50Z</time>
      </trkpt>
      <trkpt lat="46.92801" lon="-0.81344">
        <ele>217.8759766</ele>
        <time>2012-05-16T17:58:52Z</time>
      </trkpt>
      <trkpt lat="46.92805" lon="-0.81349">
        <ele>216.9146729</ele>
        <time>2012-05-16T17:58:57Z</time>
      </trkpt>
      <trkpt lat="46.92811" lon="-0.81359">
        <ele>216.43396</ele>
        <time>2012-05-16T17:59:00Z</time>
      </trkpt>
      <trkpt lat="46.92822" lon="-0.81402">
        <ele>218.3565674</ele>
        <time>2012-05-16T17:59:08Z</time>
      </trkpt>
      <trkpt lat="46.92827" lon="-0.81418">
        <ele>216.9146729</ele>
        <time>2012-05-16T17:59:13Z</time>
      </trkpt>
      <trkpt lat="46.92829" lon="-0.81423">
        <ele>216.43396</ele>
        <time>2012-05-16T17:59:18Z</time>
      </trkpt>
      <trkpt lat="46.92834" lon="-0.81448">
        <ele>217.3953857</ele>
        <time>2012-05-16T17:59:24Z</time>
      </trkpt>
      <trkpt lat="46.92839" lon="-0.81459">
        <ele>217.8759766</ele>
        <time>2012-05-16T17:59:29Z</time>
      </trkpt>
      <trkpt lat="46.92842" lon="-0.81464">
        <ele>217.8759766</ele>
        <time>2012-05-16T17:59:33Z</time>
      </trkpt>
      <trkpt lat="46.92843" lon="-0.81466">
        <ele>217.8759766</ele>
        <time>2012-05-16T17:59:34Z</time>
      </trkpt>
      <trkpt lat="46.92847" lon="-0.81485">
        <ele>216.9146729</ele>
        <time>2012-05-16T17:59:40Z</time>
      </trkpt>
      <trkpt lat="46.92847" lon="-0.81507">
        <ele>216.43396</ele>
        <time>2012-05-16T17:59:46Z</time>
      </trkpt>
      <trkpt lat="46.9285" lon="-0.81526">
        <ele>216.43396</ele>
        <time>2012-05-16T17:59:50Z</time>
      </trkpt>
      <trkpt lat="46.92855" lon="-0.81559">
        <ele>216.9146729</ele>
        <time>2012-05-16T17:59:56Z</time>
      </trkpt>
      <trkpt lat="46.92859" lon="-0.81588">
        <ele>216.9146729</ele>
        <time>2012-05-16T18:00:01Z</time>
      </trkpt>
      <trkpt lat="46.92864" lon="-0.81618">
        <ele>218.3565674</ele>
        <time>2012-05-16T18:00:07Z</time>
      </trkpt>
      <trkpt lat="46.92865" lon="-0.81624">
        <ele>217.8759766</ele>
        <time>2012-05-16T18:00:11Z</time>
      </trkpt>
      <trkpt lat="46.92867" lon="-0.81638">
        <ele>217.3953857</ele>
        <time>2012-05-16T18:00:15Z</time>
      </trkpt>
      <trkpt lat="46.92858" lon="-0.81654">
        <ele>217.3953857</ele>
        <time>2012-05-16T18:00:19Z</time>
      </trkpt>
      <trkpt lat="46.92846" lon="-0.81679">
        <ele>217.3953857</ele>
        <time>2012-05-16T18:00:24Z</time>
      </trkpt>
      <trkpt lat="46.92842" lon="-0.81691">
        <ele>216.9146729</ele>
        <time>2012-05-16T18:00:26Z</time>
      </trkpt>
      <trkpt lat="46.92828" lon="-0.81748">
        <ele>216.43396</ele>
        <time>2012-05-16T18:00:34Z</time>
      </trkpt>
      <trkpt lat="46.92816" lon="-0.81799">
        <ele>215.9532471</ele>
        <time>2012-05-16T18:00:41Z</time>
      </trkpt>
      <trkpt lat="46.92807" lon="-0.81838">
        <ele>215.9532471</ele>
        <time>2012-05-16T18:00:47Z</time>
      </trkpt>
      <trkpt lat="46.92788" lon="-0.81874">
        <ele>216.43396</ele>
        <time>2012-05-16T18:00:53Z</time>
      </trkpt>
      <trkpt lat="46.92758" lon="-0.81932">
        <ele>215.9532471</ele>
        <time>2012-05-16T18:01:02Z</time>
      </trkpt>
      <trkpt lat="46.92736" lon="-0.81981">
        <ele>214.9919434</ele>
        <time>2012-05-16T18:01:09Z</time>
      </trkpt>
      <trkpt lat="46.92724" lon="-0.8202">
        <ele>214.9919434</ele>
        <time>2012-05-16T18:01:14Z</time>
      </trkpt>
      <trkpt lat="46.92713" lon="-0.82057">
        <ele>214.0306396</ele>
        <time>2012-05-16T18:01:19Z</time>
      </trkpt>
      <trkpt lat="46.92702" lon="-0.82106">
        <ele>213.0693359</ele>
        <time>2012-05-16T18:01:25Z</time>
      </trkpt>
      <trkpt lat="46.92691" lon="-0.82179">
        <ele>212.588623</ele>
        <time>2012-05-16T18:01:33Z</time>
      </trkpt>
      <trkpt lat="46.92678" lon="-0.8222">
        <ele>213.5500488</ele>
        <time>2012-05-16T18:01:38Z</time>
      </trkpt>
      <trkpt lat="46.9265" lon="-0.82264">
        <ele>214.9919434</ele>
        <time>2012-05-16T18:01:45Z</time>
      </trkpt>
      <trkpt lat="46.92619" lon="-0.82309">
        <ele>215.9532471</ele>
        <time>2012-05-16T18:01:53Z</time>
      </trkpt>
      <trkpt lat="46.92601" lon="-0.82347">
        <ele>216.43396</ele>
        <time>2012-05-16T18:01:59Z</time>
      </trkpt>
      <trkpt lat="46.92598" lon="-0.82353">
        <ele>215.9532471</ele>
        <time>2012-05-16T18:02:00Z</time>
      </trkpt>
      <trkpt lat="46.92586" lon="-0.82404">
        <ele>214.9919434</ele>
        <time>2012-05-16T18:02:08Z</time>
      </trkpt>
      <trkpt lat="46.92585" lon="-0.82411">
        <ele>214.5112305</ele>
        <time>2012-05-16T18:02:09Z</time>
      </trkpt>
      <trkpt lat="46.9258" lon="-0.82477">
        <ele>214.5112305</ele>
        <time>2012-05-16T18:02:18Z</time>
      </trkpt>
      <trkpt lat="46.92577" lon="-0.82542">
        <ele>214.0306396</ele>
        <time>2012-05-16T18:02:26Z</time>
      </trkpt>
      <trkpt lat="46.9257" lon="-0.82576">
        <ele>213.0693359</ele>
        <time>2012-05-16T18:02:30Z</time>
      </trkpt>
      <trkpt lat="46.92566" lon="-0.82616">
        <ele>210.6660156</ele>
        <time>2012-05-16T18:02:34Z</time>
      </trkpt>
      <trkpt lat="46.92555" lon="-0.82664">
        <ele>207.7821045</ele>
        <time>2012-05-16T18:02:38Z</time>
      </trkpt>
      <trkpt lat="46.92534" lon="-0.8269">
        <ele>205.3787842</ele>
        <time>2012-05-16T18:02:42Z</time>
      </trkpt>
      <trkpt lat="46.92517" lon="-0.82681">
        <ele>205.8594971</ele>
        <time>2012-05-16T18:02:45Z</time>
      </trkpt>
      <trkpt lat="46.92479" lon="-0.82628">
        <ele>206.3400879</ele>
        <time>2012-05-16T18:02:54Z</time>
      </trkpt>
      <trkpt lat="46.92459" lon="-0.82601">
        <ele>206.8206787</ele>
        <time>2012-05-16T18:02:59Z</time>
      </trkpt>
      <trkpt lat="46.92437" lon="-0.82582">
        <ele>206.8206787</ele>
        <time>2012-05-16T18:03:03Z</time>
      </trkpt>
      <trkpt lat="46.92422" lon="-0.82575">
        <ele>207.3013916</ele>
        <time>2012-05-16T18:03:05Z</time>
      </trkpt>
      <trkpt lat="46.92404" lon="-0.82576">
        <ele>206.3400879</ele>
        <time>2012-05-16T18:03:08Z</time>
      </trkpt>
      <trkpt lat="46.92394" lon="-0.82579">
        <ele>204.8980713</ele>
        <time>2012-05-16T18:03:10Z</time>
      </trkpt>
      <trkpt lat="46.92373" lon="-0.82564">
        <ele>202.9754639</ele>
        <time>2012-05-16T18:03:14Z</time>
      </trkpt>
      <trkpt lat="46.92362" lon="-0.8255">
        <ele>202.494873</ele>
        <time>2012-05-16T18:03:16Z</time>
      </trkpt>
      <trkpt lat="46.92354" lon="-0.82534">
        <ele>202.0142822</ele>
        <time>2012-05-16T18:03:18Z</time>
      </trkpt>
      <trkpt lat="46.9235" lon="-0.82517">
        <ele>202.494873</ele>
        <time>2012-05-16T18:03:20Z</time>
      </trkpt>
      <trkpt lat="46.9235" lon="-0.82509">
        <ele>202.0142822</ele>
        <time>2012-05-16T18:03:21Z</time>
      </trkpt>
      <trkpt lat="46.92354" lon="-0.82451">
        <ele>199.130127</ele>
        <time>2012-05-16T18:03:29Z</time>
      </trkpt>
      <trkpt lat="46.92355" lon="-0.82445">
        <ele>199.130127</ele>
        <time>2012-05-16T18:03:30Z</time>
      </trkpt>
      <trkpt lat="46.92356" lon="-0.82432">
        <ele>198.1689453</ele>
        <time>2012-05-16T18:03:32Z</time>
      </trkpt>
      <trkpt lat="46.92353" lon="-0.82406">
        <ele>198.6495361</ele>
        <time>2012-05-16T18:03:36Z</time>
      </trkpt>
      <trkpt lat="46.9235" lon="-0.82395">
        <ele>198.6495361</ele>
        <time>2012-05-16T18:03:38Z</time>
      </trkpt>
      <trkpt lat="46.92338" lon="-0.82377">
        <ele>199.130127</ele>
        <time>2012-05-16T18:03:43Z</time>
      </trkpt>
      <trkpt lat="46.92325" lon="-0.82374">
        <ele>199.130127</ele>
        <time>2012-05-16T18:03:46Z</time>
      </trkpt>
      <trkpt lat="46.92316" lon="-0.82374">
        <ele>198.6495361</ele>
        <time>2012-05-16T18:03:48Z</time>
      </trkpt>
      <trkpt lat="46.92296" lon="-0.82361">
        <ele>201.0528564</ele>
        <time>2012-05-16T18:03:53Z</time>
      </trkpt>
      <trkpt lat="46.92269" lon="-0.82347">
        <ele>202.0142822</ele>
        <time>2012-05-16T18:04:01Z</time>
      </trkpt>
      <trkpt lat="46.92249" lon="-0.82338">
        <ele>202.0142822</ele>
        <time>2012-05-16T18:04:06Z</time>
      </trkpt>
      <trkpt lat="46.92218" lon="-0.82326">
        <ele>201.5335693</ele>
        <time>2012-05-16T18:04:13Z</time>
      </trkpt>
      <trkpt lat="46.9218" lon="-0.8231">
        <ele>202.0142822</ele>
        <time>2012-05-16T18:04:21Z</time>
      </trkpt>
      <trkpt lat="46.92144" lon="-0.82299">
        <ele>202.494873</ele>
        <time>2012-05-16T18:04:29Z</time>
      </trkpt>
      <trkpt lat="46.92117" lon="-0.82303">
        <ele>202.494873</ele>
        <time>2012-05-16T18:04:35Z</time>
      </trkpt>
      <trkpt lat="46.92091" lon="-0.82319">
        <ele>202.0142822</ele>
        <time>2012-05-16T18:04:41Z</time>
      </trkpt>
      <trkpt lat="46.92083" lon="-0.82327">
        <ele>202.0142822</ele>
        <time>2012-05-16T18:04:43Z</time>
      </trkpt>
      <trkpt lat="46.92062" lon="-0.82367">
        <ele>199.130127</ele>
        <time>2012-05-16T18:04:49Z</time>
      </trkpt>
      <trkpt lat="46.92049" lon="-0.82412">
        <ele>196.7269287</ele>
        <time>2012-05-16T18:04:54Z</time>
      </trkpt>
      <trkpt lat="46.92045" lon="-0.82456">
        <ele>194.3237305</ele>
        <time>2012-05-16T18:04:58Z</time>
      </trkpt>
      <trkpt lat="46.92047" lon="-0.82491">
        <ele>192.401123</ele>
        <time>2012-05-16T18:05:01Z</time>
      </trkpt>
      <trkpt lat="46.92063" lon="-0.82543">
        <ele>187.5943604</ele>
        <time>2012-05-16T18:05:06Z</time>
      </trkpt>
      <trkpt lat="46.92067" lon="-0.82549">
        <ele>187.1137695</ele>
        <time>2012-05-16T18:05:07Z</time>
      </trkpt>
      <trkpt lat="46.92084" lon="-0.82577">
        <ele>188.0750732</ele>
        <time>2012-05-16T18:05:13Z</time>
      </trkpt>
      <trkpt lat="46.92096" lon="-0.82593">
        <ele>189.036377</ele>
        <time>2012-05-16T18:05:18Z</time>
      </trkpt>
      <trkpt lat="46.92112" lon="-0.82608">
        <ele>189.036377</ele>
        <time>2012-05-16T18:05:24Z</time>
      </trkpt>
      <trkpt lat="46.92133" lon="-0.82615">
        <ele>191.4395752</ele>
        <time>2012-05-16T18:05:30Z</time>
      </trkpt>
      <trkpt lat="46.92158" lon="-0.82627">
        <ele>191.4395752</ele>
        <time>2012-05-16T18:05:37Z</time>
      </trkpt>
      <trkpt lat="46.92178" lon="-0.82649">
        <ele>193.8430176</ele>
        <time>2012-05-16T18:05:43Z</time>
      </trkpt>
      <trkpt lat="46.92187" lon="-0.82662">
        <ele>193.3623047</ele>
        <time>2012-05-16T18:05:46Z</time>
      </trkpt>
      <trkpt lat="46.92199" lon="-0.82688">
        <ele>195.2849121</ele>
        <time>2012-05-16T18:05:51Z</time>
      </trkpt>
      <trkpt lat="46.92204" lon="-0.82708">
        <ele>197.2075195</ele>
        <time>2012-05-16T18:05:55Z</time>
      </trkpt>
      <trkpt lat="46.92209" lon="-0.82719">
        <ele>197.6882324</ele>
        <time>2012-05-16T18:05:58Z</time>
      </trkpt>
      <trkpt lat="46.92211" lon="-0.82723">
        <ele>197.6882324</ele>
        <time>2012-05-16T18:05:59Z</time>
      </trkpt>
      <trkpt lat="46.92218" lon="-0.82739">
        <ele>197.6882324</ele>
        <time>2012-05-16T18:06:03Z</time>
      </trkpt>
      <trkpt lat="46.92238" lon="-0.82743">
        <ele>194.8043213</ele>
        <time>2012-05-16T18:06:07Z</time>
      </trkpt>
      <trkpt lat="46.92285" lon="-0.82746">
        <ele>191.9202881</ele>
        <time>2012-05-16T18:06:12Z</time>
      </trkpt>
      <trkpt lat="46.92337" lon="-0.82751">
        <ele>192.401123</ele>
        <time>2012-05-16T18:06:18Z</time>
      </trkpt>
      <trkpt lat="46.92353" lon="-0.82752">
        <ele>191.9202881</ele>
        <time>2012-05-16T18:06:20Z</time>
      </trkpt>
      <trkpt lat="46.9238" lon="-0.82769">
        <ele>192.8817139</ele>
        <time>2012-05-16T18:06:24Z</time>
      </trkpt>
      <trkpt lat="46.92395" lon="-0.82786">
        <ele>194.3237305</ele>
        <time>2012-05-16T18:06:28Z</time>
      </trkpt>
      <trkpt lat="46.92404" lon="-0.82795">
        <ele>195.2849121</ele>
        <time>2012-05-16T18:06:32Z</time>
      </trkpt>
      <trkpt lat="46.92409" lon="-0.82796">
        <ele>196.2463379</ele>
        <time>2012-05-16T18:06:35Z</time>
      </trkpt>
      <trkpt lat="46.92423" lon="-0.82809">
        <ele>199.130127</ele>
        <time>2012-05-16T18:06:43Z</time>
      </trkpt>
      <trkpt lat="46.92427" lon="-0.82812">
        <ele>200.0916748</ele>
        <time>2012-05-16T18:06:45Z</time>
      </trkpt>
      <trkpt lat="46.92422" lon="-0.82823">
        <ele>200.5722656</ele>
        <time>2012-05-16T18:06:50Z</time>
      </trkpt>
      <trkpt lat="46.92421" lon="-0.82825">
        <ele>200.5722656</ele>
        <time>2012-05-16T18:06:51Z</time>
      </trkpt>
      <trkpt lat="46.92403" lon="-0.82833">
        <ele>199.6108398</ele>
        <time>2012-05-16T18:06:59Z</time>
      </trkpt>
      <trkpt lat="46.92393" lon="-0.82836">
        <ele>200.0916748</ele>
        <time>2012-05-16T18:07:03Z</time>
      </trkpt>
      <trkpt lat="46.92383" lon="-0.82846">
        <ele>200.5722656</ele>
        <time>2012-05-16T18:07:08Z</time>
      </trkpt>
      <trkpt lat="46.92383" lon="-0.82848">
        <ele>202.494873</ele>
        <time>2012-05-16T18:07:15Z</time>
      </trkpt>
      <trkpt lat="46.92384" lon="-0.8285">
        <ele>204.4174805</ele>
        <time>2012-05-16T18:07:23Z</time>
      </trkpt>
      <trkpt lat="46.92383" lon="-0.82852">
        <ele>204.8980713</ele>
        <time>2012-05-16T18:07:28Z</time>
      </trkpt>
      <trkpt lat="46.92378" lon="-0.82857">
        <ele>203.4561768</ele>
        <time>2012-05-16T18:07:32Z</time>
      </trkpt>
      <trkpt lat="46.92369" lon="-0.82868">
        <ele>202.0142822</ele>
        <time>2012-05-16T18:07:37Z</time>
      </trkpt>
      <trkpt lat="46.92362" lon="-0.82859">
        <ele>199.6108398</ele>
        <time>2012-05-16T18:07:42Z</time>
      </trkpt>
      <trkpt lat="46.92361" lon="-0.82851">
        <ele>198.1689453</ele>
        <time>2012-05-16T18:07:44Z</time>
      </trkpt>
      <trkpt lat="46.92353" lon="-0.82832">
        <ele>198.6495361</ele>
        <time>2012-05-16T18:07:50Z</time>
      </trkpt>
      <trkpt lat="46.92341" lon="-0.82829">
        <ele>200.0916748</ele>
        <time>2012-05-16T18:07:56Z</time>
      </trkpt>
      <trkpt lat="46.9234" lon="-0.82829">
        <ele>200.5722656</ele>
        <time>2012-05-16T18:07:57Z</time>
      </trkpt>
      <trkpt lat="46.92337" lon="-0.82826">
        <ele>201.5335693</ele>
        <time>2012-05-16T18:08:05Z</time>
      </trkpt>
      <trkpt lat="46.92334" lon="-0.82821">
        <ele>202.494873</ele>
        <time>2012-05-16T18:08:09Z</time>
      </trkpt>
      <trkpt lat="46.92332" lon="-0.82813">
        <ele>203.9368896</ele>
        <time>2012-05-16T18:08:14Z</time>
      </trkpt>
      <trkpt lat="46.92331" lon="-0.82812">
        <ele>203.4561768</ele>
        <time>2012-05-16T18:08:24Z</time>
      </trkpt>
      <trkpt lat="46.92331" lon="-0.82811">
        <ele>203.4561768</ele>
        <time>2012-05-16T18:08:32Z</time>
      </trkpt>
      <trkpt lat="46.9233" lon="-0.8281">
        <ele>205.8594971</ele>
        <time>2012-05-16T18:08:43Z</time>
      </trkpt>
      <trkpt lat="46.92329" lon="-0.82809">
        <ele>206.8206787</ele>
        <time>2012-05-16T18:08:53Z</time>
      </trkpt>
      <trkpt lat="46.92329" lon="-0.8281">
        <ele>207.3013916</ele>
        <time>2012-05-16T18:08:59Z</time>
      </trkpt>
      <trkpt lat="46.92329" lon="-0.8281">
        <ele>207.3013916</ele>
        <time>2012-05-16T18:09:05Z</time>
      </trkpt>
      <trkpt lat="46.92329" lon="-0.82811">
        <ele>207.3013916</ele>
        <time>2012-05-16T18:09:14Z</time>
      </trkpt>
      <trkpt lat="46.92326" lon="-0.82807">
        <ele>205.8594971</ele>
        <time>2012-05-16T18:09:27Z</time>
      </trkpt>
      <trkpt lat="46.92324" lon="-0.82805">
        <ele>205.3787842</ele>
        <time>2012-05-16T18:09:34Z</time>
      </trkpt>
      <trkpt lat="46.92326" lon="-0.82808">
        <ele>204.4174805</ele>
        <time>2012-05-16T18:09:44Z</time>
      </trkpt>
      <trkpt lat="46.92329" lon="-0.8281">
        <ele>202.494873</ele>
        <time>2012-05-16T18:09:53Z</time>
      </trkpt>
      <trkpt lat="46.9233" lon="-0.8281">
        <ele>202.0142822</ele>
        <time>2012-05-16T18:10:03Z</time>
      </trkpt>
      <trkpt lat="46.92332" lon="-0.82816">
        <ele>206.8206787</ele>
        <time>2012-05-16T18:10:23Z</time>
      </trkpt>
      <trkpt lat="46.92331" lon="-0.82816">
        <ele>208.2628174</ele>
        <time>2012-05-16T18:10:32Z</time>
      </trkpt>
      <trkpt lat="46.92331" lon="-0.82815">
        <ele>209.2241211</ele>
        <time>2012-05-16T18:10:45Z</time>
      </trkpt>
      <trkpt lat="46.92331" lon="-0.82813">
        <ele>207.3013916</ele>
        <time>2012-05-16T18:10:53Z</time>
      </trkpt>
      <trkpt lat="46.9233" lon="-0.82812">
        <ele>205.8594971</ele>
        <time>2012-05-16T18:11:01Z</time>
      </trkpt>
      <trkpt lat="46.92329" lon="-0.82811">
        <ele>205.8594971</ele>
        <time>2012-05-16T18:11:10Z</time>
      </trkpt>
      <trkpt lat="46.9233" lon="-0.82812">
        <ele>205.8594971</ele>
        <time>2012-05-16T18:11:17Z</time>
      </trkpt>
      <trkpt lat="46.92331" lon="-0.82816">
        <ele>205.3787842</ele>
        <time>2012-05-16T18:11:20Z</time>
      </trkpt>
      <trkpt lat="46.92331" lon="-0.82818">
        <ele>205.3787842</ele>
        <time>2012-05-16T18:11:21Z</time>
      </trkpt>
      <trkpt lat="46.92336" lon="-0.82822">
        <ele>204.8980713</ele>
        <time>2012-05-16T18:11:24Z</time>
      </trkpt>
      <trkpt lat="46.92337" lon="-0.82827">
        <ele>204.8980713</ele>
        <time>2012-05-16T18:11:27Z</time>
      </trkpt>
      <trkpt lat="46.92342" lon="-0.82836">
        <ele>205.8594971</ele>
        <time>2012-05-16T18:11:33Z</time>
      </trkpt>
      <trkpt lat="46.92347" lon="-0.82847">
        <ele>206.3400879</ele>
        <time>2012-05-16T18:11:37Z</time>
      </trkpt>
      <trkpt lat="46.9234" lon="-0.82859">
        <ele>207.7821045</ele>
        <time>2012-05-16T18:11:41Z</time>
      </trkpt>
      <trkpt lat="46.92332" lon="-0.82869">
        <ele>208.7434082</ele>
        <time>2012-05-16T18:11:45Z</time>
      </trkpt>
      <trkpt lat="46.92331" lon="-0.82875">
        <ele>209.2241211</ele>
        <time>2012-05-16T18:11:47Z</time>
      </trkpt>
      <trkpt lat="46.92337" lon="-0.82886">
        <ele>211.1467285</ele>
        <time>2012-05-16T18:11:51Z</time>
      </trkpt>
      <trkpt lat="46.92346" lon="-0.82899">
        <ele>211.1467285</ele>
        <time>2012-05-16T18:11:55Z</time>
      </trkpt>
      <trkpt lat="46.92348" lon="-0.8291">
        <ele>209.704834</ele>
        <time>2012-05-16T18:11:58Z</time>
      </trkpt>
      <trkpt lat="46.92346" lon="-0.82914">
        <ele>209.704834</ele>
        <time>2012-05-16T18:11:59Z</time>
      </trkpt>
      <trkpt lat="46.92347" lon="-0.82934">
        <ele>207.7821045</ele>
        <time>2012-05-16T18:12:04Z</time>
      </trkpt>
      <trkpt lat="46.92352" lon="-0.82948">
        <ele>206.8206787</ele>
        <time>2012-05-16T18:12:08Z</time>
      </trkpt>
      <trkpt lat="46.92358" lon="-0.82964">
        <ele>206.3400879</ele>
        <time>2012-05-16T18:12:12Z</time>
      </trkpt>
      <trkpt lat="46.92362" lon="-0.82974">
        <ele>205.8594971</ele>
        <time>2012-05-16T18:12:15Z</time>
      </trkpt>
      <trkpt lat="46.92363" lon="-0.8299">
        <ele>205.3787842</ele>
        <time>2012-05-16T18:12:19Z</time>
      </trkpt>
      <trkpt lat="46.9236" lon="-0.83014">
        <ele>203.9368896</ele>
        <time>2012-05-16T18:12:25Z</time>
      </trkpt>
      <trkpt lat="46.92353" lon="-0.83028">
        <ele>204.4174805</ele>
        <time>2012-05-16T18:12:30Z</time>
      </trkpt>
      <trkpt lat="46.92355" lon="-0.8303">
        <ele>203.9368896</ele>
        <time>2012-05-16T18:12:33Z</time>
      </trkpt>
      <trkpt lat="46.92359" lon="-0.83035">
        <ele>204.4174805</ele>
        <time>2012-05-16T18:12:38Z</time>
      </trkpt>
      <trkpt lat="46.92363" lon="-0.8304">
        <ele>204.4174805</ele>
        <time>2012-05-16T18:12:40Z</time>
      </trkpt>
      <trkpt lat="46.92361" lon="-0.83049">
        <ele>203.4561768</ele>
        <time>2012-05-16T18:12:44Z</time>
      </trkpt>
      <trkpt lat="46.92353" lon="-0.83065">
        <ele>202.0142822</ele>
        <time>2012-05-16T18:12:51Z</time>
      </trkpt>
      <trkpt lat="46.92337" lon="-0.83096">
        <ele>200.5722656</ele>
        <time>2012-05-16T18:12:56Z</time>
      </trkpt>
      <trkpt lat="46.92333" lon="-0.83105">
        <ele>199.6108398</ele>
        <time>2012-05-16T18:12:57Z</time>
      </trkpt>
      <trkpt lat="46.92307" lon="-0.83161">
        <ele>193.8430176</ele>
        <time>2012-05-16T18:13:02Z</time>
      </trkpt>
      <trkpt lat="46.92266" lon="-0.83235">
        <ele>189.9976807</ele>
        <time>2012-05-16T18:13:08Z</time>
      </trkpt>
      <trkpt lat="46.92222" lon="-0.83302">
        <ele>188.5557861</ele>
        <time>2012-05-16T18:13:15Z</time>
      </trkpt>
      <trkpt lat="46.92217" lon="-0.83308">
        <ele>188.5557861</ele>
        <time>2012-05-16T18:13:16Z</time>
      </trkpt>
      <trkpt lat="46.92206" lon="-0.83324">
        <ele>187.5943604</ele>
        <time>2012-05-16T18:13:22Z</time>
      </trkpt>
      <trkpt lat="46.92192" lon="-0.83366">
        <ele>185.6717529</ele>
        <time>2012-05-16T18:13:29Z</time>
      </trkpt>
      <trkpt lat="46.92176" lon="-0.83398">
        <ele>184.7105713</ele>
        <time>2012-05-16T18:13:34Z</time>
      </trkpt>
      <trkpt lat="46.92148" lon="-0.83456">
        <ele>183.7490234</ele>
        <time>2012-05-16T18:13:42Z</time>
      </trkpt>
      <trkpt lat="46.92112" lon="-0.83523">
        <ele>181.3458252</ele>
        <time>2012-05-16T18:13:50Z</time>
      </trkpt>
      <trkpt lat="46.92077" lon="-0.83576">
        <ele>178.942627</ele>
        <time>2012-05-16T18:13:56Z</time>
      </trkpt>
      <trkpt lat="46.92062" lon="-0.83621">
        <ele>178.4619141</ele>
        <time>2012-05-16T18:14:00Z</time>
      </trkpt>
      <trkpt lat="46.92064" lon="-0.83656">
        <ele>177.9812012</ele>
        <time>2012-05-16T18:14:03Z</time>
      </trkpt>
      <trkpt lat="46.92071" lon="-0.83681">
        <ele>177.5006104</ele>
        <time>2012-05-16T18:14:06Z</time>
      </trkpt>
      <trkpt lat="46.92066" lon="-0.83694">
        <ele>177.5006104</ele>
        <time>2012-05-16T18:14:09Z</time>
      </trkpt>
      <trkpt lat="46.92033" lon="-0.83732">
        <ele>177.0200195</ele>
        <time>2012-05-16T18:14:16Z</time>
      </trkpt>
      <trkpt lat="46.92018" lon="-0.8375">
        <ele>177.9812012</ele>
        <time>2012-05-16T18:14:19Z</time>
      </trkpt>
      <trkpt lat="46.91988" lon="-0.83793">
        <ele>179.4232178</ele>
        <time>2012-05-16T18:14:25Z</time>
      </trkpt>
      <trkpt lat="46.91964" lon="-0.83826">
        <ele>177.9812012</ele>
        <time>2012-05-16T18:14:30Z</time>
      </trkpt>
      <trkpt lat="46.91948" lon="-0.83855">
        <ele>176.5393066</ele>
        <time>2012-05-16T18:14:34Z</time>
      </trkpt>
      <trkpt lat="46.91918" lon="-0.83898">
        <ele>176.5393066</ele>
        <time>2012-05-16T18:14:41Z</time>
      </trkpt>
      <trkpt lat="46.91914" lon="-0.83903">
        <ele>177.0200195</ele>
        <time>2012-05-16T18:14:42Z</time>
      </trkpt>
      <trkpt lat="46.91902" lon="-0.83926">
        <ele>178.942627</ele>
        <time>2012-05-16T18:14:47Z</time>
      </trkpt>
      <trkpt lat="46.91898" lon="-0.83933">
        <ele>180.3845215</ele>
        <time>2012-05-16T18:14:49Z</time>
      </trkpt>
      <trkpt lat="46.91881" lon="-0.83953">
        <ele>183.2684326</ele>
        <time>2012-05-16T18:14:56Z</time>
      </trkpt>
      <trkpt lat="46.91864" lon="-0.8397">
        <ele>182.7878418</ele>
        <time>2012-05-16T18:15:01Z</time>
      </trkpt>
      <trkpt lat="46.91854" lon="-0.83987">
        <ele>185.1911621</ele>
        <time>2012-05-16T18:15:05Z</time>
      </trkpt>
      <trkpt lat="46.91847" lon="-0.84012">
        <ele>189.036377</ele>
        <time>2012-05-16T18:15:11Z</time>
      </trkpt>
      <trkpt lat="46.91839" lon="-0.84034">
        <ele>189.036377</ele>
        <time>2012-05-16T18:15:17Z</time>
      </trkpt>
      <trkpt lat="46.91838" lon="-0.84038">
        <ele>189.9976807</ele>
        <time>2012-05-16T18:15:18Z</time>
      </trkpt>
      <trkpt lat="46.91834" lon="-0.84051">
        <ele>188.5557861</ele>
        <time>2012-05-16T18:15:23Z</time>
      </trkpt>
      <trkpt lat="46.91827" lon="-0.84072">
        <ele>186.6331787</ele>
        <time>2012-05-16T18:15:29Z</time>
      </trkpt>
      <trkpt lat="46.91818" lon="-0.84092">
        <ele>185.1911621</ele>
        <time>2012-05-16T18:15:33Z</time>
      </trkpt>
      <trkpt lat="46.91807" lon="-0.84113">
        <ele>184.7105713</ele>
        <time>2012-05-16T18:15:37Z</time>
      </trkpt>
      <trkpt lat="46.91806" lon="-0.84116">
        <ele>183.7490234</ele>
        <time>2012-05-16T18:15:41Z</time>
      </trkpt>
      <trkpt lat="46.91803" lon="-0.84121">
        <ele>183.7490234</ele>
        <time>2012-05-16T18:15:47Z</time>
      </trkpt>
      <trkpt lat="46.91802" lon="-0.84124">
        <ele>184.2298584</ele>
        <time>2012-05-16T18:15:52Z</time>
      </trkpt>
      <trkpt lat="46.918" lon="-0.84126">
        <ele>183.2684326</ele>
        <time>2012-05-16T18:15:54Z</time>
      </trkpt>
      <trkpt lat="46.9179" lon="-0.84142">
        <ele>184.2298584</ele>
        <time>2012-05-16T18:16:02Z</time>
      </trkpt>
      <trkpt lat="46.91775" lon="-0.84163">
        <ele>184.2298584</ele>
        <time>2012-05-16T18:16:08Z</time>
      </trkpt>
      <trkpt lat="46.91761" lon="-0.84182">
        <ele>181.826416</ele>
        <time>2012-05-16T18:16:15Z</time>
      </trkpt>
      <trkpt lat="46.91749" lon="-0.84201">
        <ele>181.3458252</ele>
        <time>2012-05-16T18:16:21Z</time>
      </trkpt>
      <trkpt lat="46.91731" lon="-0.84225">
        <ele>180.3845215</ele>
        <time>2012-05-16T18:16:28Z</time>
      </trkpt>
      <trkpt lat="46.91722" lon="-0.84243">
        <ele>179.4232178</ele>
        <time>2012-05-16T18:16:33Z</time>
      </trkpt>
      <trkpt lat="46.91713" lon="-0.84269">
        <ele>179.9038086</ele>
        <time>2012-05-16T18:16:39Z</time>
      </trkpt>
      <trkpt lat="46.91696" lon="-0.84292">
        <ele>180.3845215</ele>
        <time>2012-05-16T18:16:45Z</time>
      </trkpt>
      <trkpt lat="46.91671" lon="-0.84305">
        <ele>180.8652344</ele>
        <time>2012-05-16T18:16:51Z</time>
      </trkpt>
      <trkpt lat="46.91649" lon="-0.8432">
        <ele>181.826416</ele>
        <time>2012-05-16T18:16:56Z</time>
      </trkpt>
      <trkpt lat="46.91646" lon="-0.84323">
        <ele>182.3071289</ele>
        <time>2012-05-16T18:16:57Z</time>
      </trkpt>
      <trkpt lat="46.91644" lon="-0.84323">
        <ele>182.7878418</ele>
        <time>2012-05-16T18:17:02Z</time>
      </trkpt>
      <trkpt lat="46.91639" lon="-0.84328">
        <ele>181.826416</ele>
        <time>2012-05-16T18:17:05Z</time>
      </trkpt>
      <trkpt lat="46.91639" lon="-0.84327">
        <ele>180.3845215</ele>
        <time>2012-05-16T18:17:10Z</time>
      </trkpt>
      <trkpt lat="46.91635" lon="-0.8433">
        <ele>179.4232178</ele>
        <time>2012-05-16T18:17:14Z</time>
      </trkpt>
      <trkpt lat="46.91627" lon="-0.84335">
        <ele>178.942627</ele>
        <time>2012-05-16T18:17:18Z</time>
      </trkpt>
      <trkpt lat="46.91609" lon="-0.84349">
        <ele>179.4232178</ele>
        <time>2012-05-16T18:17:24Z</time>
      </trkpt>
      <trkpt lat="46.91587" lon="-0.8437">
        <ele>178.4619141</ele>
        <time>2012-05-16T18:17:30Z</time>
      </trkpt>
      <trkpt lat="46.91568" lon="-0.84386">
        <ele>177.5006104</ele>
        <time>2012-05-16T18:17:34Z</time>
      </trkpt>
      <trkpt lat="46.91562" lon="-0.84389">
        <ele>177.5006104</ele>
        <time>2012-05-16T18:17:35Z</time>
      </trkpt>
      <trkpt lat="46.91548" lon="-0.84404">
        <ele>175.09729</ele>
        <time>2012-05-16T18:17:39Z</time>
      </trkpt>
      <trkpt lat="46.91546" lon="-0.84407">
        <ele>174.6165771</ele>
        <time>2012-05-16T18:17:40Z</time>
      </trkpt>
      <trkpt lat="46.91539" lon="-0.84405">
        <ele>173.1746826</ele>
        <time>2012-05-16T18:17:45Z</time>
      </trkpt>
      <trkpt lat="46.91537" lon="-0.84398">
        <ele>171.2520752</ele>
        <time>2012-05-16T18:17:49Z</time>
      </trkpt>
      <trkpt lat="46.91533" lon="-0.84402">
        <ele>168.8487549</ele>
        <time>2012-05-16T18:17:54Z</time>
      </trkpt>
      <trkpt lat="46.91529" lon="-0.84408">
        <ele>167.4067383</ele>
        <time>2012-05-16T18:17:58Z</time>
      </trkpt>
      <trkpt lat="46.91533" lon="-0.84411">
        <ele>166.9260254</ele>
        <time>2012-05-16T18:18:02Z</time>
      </trkpt>
      <trkpt lat="46.91538" lon="-0.84417">
        <ele>167.4067383</ele>
        <time>2012-05-16T18:18:06Z</time>
      </trkpt>
      <trkpt lat="46.91553" lon="-0.84435">
        <ele>170.2906494</ele>
        <time>2012-05-16T18:18:13Z</time>
      </trkpt>
      <trkpt lat="46.91562" lon="-0.84446">
        <ele>171.732666</ele>
        <time>2012-05-16T18:18:18Z</time>
      </trkpt>
      <trkpt lat="46.91571" lon="-0.84458">
        <ele>172.6939697</ele>
        <time>2012-05-16T18:18:22Z</time>
      </trkpt>
      <trkpt lat="46.91581" lon="-0.84468">
        <ele>172.6939697</ele>
        <time>2012-05-16T18:18:27Z</time>
      </trkpt>
      <trkpt lat="46.91603" lon="-0.84498">
        <ele>173.1746826</ele>
        <time>2012-05-16T18:18:37Z</time>
      </trkpt>
      <trkpt lat="46.91609" lon="-0.84509">
        <ele>173.6552734</ele>
        <time>2012-05-16T18:18:41Z</time>
      </trkpt>
      <trkpt lat="46.91621" lon="-0.84528">
        <ele>173.6552734</ele>
        <time>2012-05-16T18:18:47Z</time>
      </trkpt>
      <trkpt lat="46.91635" lon="-0.8455">
        <ele>174.1358643</ele>
        <time>2012-05-16T18:18:53Z</time>
      </trkpt>
      <trkpt lat="46.91653" lon="-0.84577">
        <ele>174.1358643</ele>
        <time>2012-05-16T18:19:00Z</time>
      </trkpt>
      <trkpt lat="46.91666" lon="-0.84597">
        <ele>174.1358643</ele>
        <time>2012-05-16T18:19:04Z</time>
      </trkpt>
      <trkpt lat="46.91679" lon="-0.8461">
        <ele>174.1358643</ele>
        <time>2012-05-16T18:19:07Z</time>
      </trkpt>
      <trkpt lat="46.91726" lon="-0.84636">
        <ele>175.09729</ele>
        <time>2012-05-16T18:19:16Z</time>
      </trkpt>
      <trkpt lat="46.91749" lon="-0.84654">
        <ele>177.0200195</ele>
        <time>2012-05-16T18:19:21Z</time>
      </trkpt>
      <trkpt lat="46.91768" lon="-0.84673">
        <ele>178.942627</ele>
        <time>2012-05-16T18:19:26Z</time>
      </trkpt>
      <trkpt lat="46.91786" lon="-0.84694">
        <ele>180.8652344</ele>
        <time>2012-05-16T18:19:32Z</time>
      </trkpt>
      <trkpt lat="46.918" lon="-0.8471">
        <ele>180.8652344</ele>
        <time>2012-05-16T18:19:37Z</time>
      </trkpt>
      <trkpt lat="46.91828" lon="-0.8474">
        <ele>182.7878418</ele>
        <time>2012-05-16T18:19:46Z</time>
      </trkpt>
      <trkpt lat="46.91843" lon="-0.84757">
        <ele>184.2298584</ele>
        <time>2012-05-16T18:19:51Z</time>
      </trkpt>
      <trkpt lat="46.91865" lon="-0.84782">
        <ele>186.6331787</ele>
        <time>2012-05-16T18:19:58Z</time>
      </trkpt>
      <trkpt lat="46.91881" lon="-0.84806">
        <ele>187.1137695</ele>
        <time>2012-05-16T18:20:05Z</time>
      </trkpt>
      <trkpt lat="46.91899" lon="-0.84835">
        <ele>188.5557861</ele>
        <time>2012-05-16T18:20:12Z</time>
      </trkpt>
      <trkpt lat="46.91916" lon="-0.84853">
        <ele>189.036377</ele>
        <time>2012-05-16T18:20:17Z</time>
      </trkpt>
      <trkpt lat="46.91941" lon="-0.84862">
        <ele>189.9976807</ele>
        <time>2012-05-16T18:20:23Z</time>
      </trkpt>
      <trkpt lat="46.91956" lon="-0.84864">
        <ele>188.0750732</ele>
        <time>2012-05-16T18:20:29Z</time>
      </trkpt>
      <trkpt lat="46.91959" lon="-0.8488">
        <ele>186.6331787</ele>
        <time>2012-05-16T18:20:34Z</time>
      </trkpt>
      <trkpt lat="46.91957" lon="-0.84898">
        <ele>185.6717529</ele>
        <time>2012-05-16T18:20:37Z</time>
      </trkpt>
      <trkpt lat="46.91957" lon="-0.84903">
        <ele>185.1911621</ele>
        <time>2012-05-16T18:20:38Z</time>
      </trkpt>
      <trkpt lat="46.91958" lon="-0.8492">
        <ele>184.2298584</ele>
        <time>2012-05-16T18:20:41Z</time>
      </trkpt>
      <trkpt lat="46.91954" lon="-0.84938">
        <ele>183.7490234</ele>
        <time>2012-05-16T18:20:44Z</time>
      </trkpt>
      <trkpt lat="46.9195" lon="-0.84958">
        <ele>182.3071289</ele>
        <time>2012-05-16T18:20:47Z</time>
      </trkpt>
      <trkpt lat="46.91944" lon="-0.85003">
        <ele>179.9038086</ele>
        <time>2012-05-16T18:20:52Z</time>
      </trkpt>
      <trkpt lat="46.91933" lon="-0.85068">
        <ele>177.9812012</ele>
        <time>2012-05-16T18:20:58Z</time>
      </trkpt>
      <trkpt lat="46.91931" lon="-0.85077">
        <ele>177.5006104</ele>
        <time>2012-05-16T18:20:59Z</time>
      </trkpt>
      <trkpt lat="46.91924" lon="-0.85093">
        <ele>175.5778809</ele>
        <time>2012-05-16T18:21:01Z</time>
      </trkpt>
      <trkpt lat="46.91896" lon="-0.85121">
        <ele>173.6552734</ele>
        <time>2012-05-16T18:21:05Z</time>
      </trkpt>
      <trkpt lat="46.91877" lon="-0.85124">
        <ele>172.2132568</ele>
        <time>2012-05-16T18:21:07Z</time>
      </trkpt>
      <trkpt lat="46.9184" lon="-0.85135">
        <ele>169.8100586</ele>
        <time>2012-05-16T18:21:11Z</time>
      </trkpt>
      <trkpt lat="46.91822" lon="-0.85138">
        <ele>169.3294678</ele>
        <time>2012-05-16T18:21:13Z</time>
      </trkpt>
      <trkpt lat="46.91785" lon="-0.85135">
        <ele>166.4453125</ele>
        <time>2012-05-16T18:21:17Z</time>
      </trkpt>
      <trkpt lat="46.91774" lon="-0.85134">
        <ele>165.4841309</ele>
        <time>2012-05-16T18:21:19Z</time>
      </trkpt>
      <trkpt lat="46.91762" lon="-0.85145">
        <ele>165.003418</ele>
        <time>2012-05-16T18:21:23Z</time>
      </trkpt>
      <trkpt lat="46.91758" lon="-0.85147">
        <ele>165.003418</ele>
        <time>2012-05-16T18:21:24Z</time>
      </trkpt>
      <trkpt lat="46.91724" lon="-0.8515">
        <ele>165.003418</ele>
        <time>2012-05-16T18:21:30Z</time>
      </trkpt>
      <trkpt lat="46.91697" lon="-0.85161">
        <ele>163.5615234</ele>
        <time>2012-05-16T18:21:34Z</time>
      </trkpt>
      <trkpt lat="46.91691" lon="-0.85169">
        <ele>163.0808105</ele>
        <time>2012-05-16T18:21:35Z</time>
      </trkpt>
      <trkpt lat="46.91669" lon="-0.85193">
        <ele>160.6774902</ele>
        <time>2012-05-16T18:21:38Z</time>
      </trkpt>
      <trkpt lat="46.91626" lon="-0.8523">
        <ele>159.7161865</ele>
        <time>2012-05-16T18:21:43Z</time>
      </trkpt>
      <trkpt lat="46.91601" lon="-0.85246">
        <ele>157.3128662</ele>
        <time>2012-05-16T18:21:46Z</time>
      </trkpt>
      <trkpt lat="46.91568" lon="-0.85273">
        <ele>153.9483643</ele>
        <time>2012-05-16T18:21:50Z</time>
      </trkpt>
      <trkpt lat="46.91546" lon="-0.85305">
        <ele>150.5836182</ele>
        <time>2012-05-16T18:21:54Z</time>
      </trkpt>
      <trkpt lat="46.91538" lon="-0.85342">
        <ele>149.6223145</ele>
        <time>2012-05-16T18:21:59Z</time>
      </trkpt>
      <trkpt lat="46.91537" lon="-0.85349">
        <ele>150.5836182</ele>
        <time>2012-05-16T18:22:00Z</time>
      </trkpt>
      <trkpt lat="46.91535" lon="-0.85363">
        <ele>152.0257568</ele>
        <time>2012-05-16T18:22:02Z</time>
      </trkpt>
      <trkpt lat="46.9153" lon="-0.85385">
        <ele>152.0257568</ele>
        <time>2012-05-16T18:22:07Z</time>
      </trkpt>
      <trkpt lat="46.91523" lon="-0.85409">
        <ele>152.9869385</ele>
        <time>2012-05-16T18:22:11Z</time>
      </trkpt>
      <trkpt lat="46.91522" lon="-0.85422">
        <ele>154.4289551</ele>
        <time>2012-05-16T18:22:13Z</time>
      </trkpt>
      <trkpt lat="46.91527" lon="-0.8545">
        <ele>161.1582031</ele>
        <time>2012-05-16T18:22:19Z</time>
      </trkpt>
      <trkpt lat="46.91527" lon="-0.85452">
        <ele>158.7547607</ele>
        <time>2012-05-16T18:22:23Z</time>
      </trkpt>
      <trkpt lat="46.91528" lon="-0.85452">
        <ele>160.1968994</ele>
        <time>2012-05-16T18:22:26Z</time>
      </trkpt>
      <trkpt lat="46.9153" lon="-0.85453">
        <ele>162.6000977</ele>
        <time>2012-05-16T18:22:28Z</time>
      </trkpt>
      <trkpt lat="46.91535" lon="-0.85468">
        <ele>162.6000977</ele>
        <time>2012-05-16T18:22:35Z</time>
      </trkpt>
      <trkpt lat="46.91547" lon="-0.855">
        <ele>157.7935791</ele>
        <time>2012-05-16T18:22:41Z</time>
      </trkpt>
      <trkpt lat="46.91554" lon="-0.85513">
        <ele>155.3902588</ele>
        <time>2012-05-16T18:22:45Z</time>
      </trkpt>
      <trkpt lat="46.91559" lon="-0.85528">
        <ele>153.4676514</ele>
        <time>2012-05-16T18:22:47Z</time>
      </trkpt>
      <trkpt lat="46.91571" lon="-0.85552">
        <ele>152.9869385</ele>
        <time>2012-05-16T18:22:53Z</time>
      </trkpt>
      <trkpt lat="46.91571" lon="-0.85559">
        <ele>158.2741699</ele>
        <time>2012-05-16T18:22:59Z</time>
      </trkpt>
      <trkpt lat="46.9157" lon="-0.8556">
        <ele>159.2354736</ele>
        <time>2012-05-16T18:23:01Z</time>
      </trkpt>
      <trkpt lat="46.91568" lon="-0.85574">
        <ele>157.3128662</ele>
        <time>2012-05-16T18:23:06Z</time>
      </trkpt>
      <trkpt lat="46.91571" lon="-0.8558">
        <ele>159.2354736</ele>
        <time>2012-05-16T18:23:09Z</time>
      </trkpt>
      <trkpt lat="46.9157" lon="-0.85594">
        <ele>155.3902588</ele>
        <time>2012-05-16T18:23:14Z</time>
      </trkpt>
      <trkpt lat="46.91569" lon="-0.85603">
        <ele>156.3515625</ele>
        <time>2012-05-16T18:23:17Z</time>
      </trkpt>
      <trkpt lat="46.91561" lon="-0.85623">
        <ele>156.3515625</ele>
        <time>2012-05-16T18:23:24Z</time>
      </trkpt>
      <trkpt lat="46.91554" lon="-0.85632">
        <ele>154.9095459</ele>
        <time>2012-05-16T18:23:28Z</time>
      </trkpt>
      <trkpt lat="46.91553" lon="-0.85633">
        <ele>154.4289551</ele>
        <time>2012-05-16T18:23:29Z</time>
      </trkpt>
      <trkpt lat="46.91549" lon="-0.85637">
        <ele>150.5836182</ele>
        <time>2012-05-16T18:23:33Z</time>
      </trkpt>
      <trkpt lat="46.91533" lon="-0.85635">
        <ele>149.6223145</ele>
        <time>2012-05-16T18:23:38Z</time>
      </trkpt>
      <trkpt lat="46.91516" lon="-0.85635">
        <ele>147.699707</ele>
        <time>2012-05-16T18:23:43Z</time>
      </trkpt>
      <trkpt lat="46.9151" lon="-0.85636">
        <ele>147.2189941</ele>
        <time>2012-05-16T18:23:45Z</time>
      </trkpt>
      <trkpt lat="46.91499" lon="-0.85642">
        <ele>146.7384033</ele>
        <time>2012-05-16T18:23:48Z</time>
      </trkpt>
      <trkpt lat="46.91495" lon="-0.85643">
        <ele>147.2189941</ele>
        <time>2012-05-16T18:23:49Z</time>
      </trkpt>
      <trkpt lat="46.91475" lon="-0.85648">
        <ele>147.2189941</ele>
        <time>2012-05-16T18:23:54Z</time>
      </trkpt>
      <trkpt lat="46.91448" lon="-0.85654">
        <ele>146.2578125</ele>
        <time>2012-05-16T18:24:00Z</time>
      </trkpt>
      <trkpt lat="46.9143" lon="-0.85665">
        <ele>147.2189941</ele>
        <time>2012-05-16T18:24:05Z</time>
      </trkpt>
      <trkpt lat="46.91412" lon="-0.8569">
        <ele>145.7770996</ele>
        <time>2012-05-16T18:24:12Z</time>
      </trkpt>
      <trkpt lat="46.91411" lon="-0.85714">
        <ele>145.2963867</ele>
        <time>2012-05-16T18:24:16Z</time>
      </trkpt>
      <trkpt lat="46.91412" lon="-0.85757">
        <ele>143.3736572</ele>
        <time>2012-05-16T18:24:21Z</time>
      </trkpt>
      <trkpt lat="46.91411" lon="-0.85764">
        <ele>143.8543701</ele>
        <time>2012-05-16T18:24:22Z</time>
      </trkpt>
      <trkpt lat="46.91418" lon="-0.85786">
        <ele>140.970459</ele>
        <time>2012-05-16T18:24:27Z</time>
      </trkpt>
      <trkpt lat="46.91417" lon="-0.85795">
        <ele>139.5284424</ele>
        <time>2012-05-16T18:24:29Z</time>
      </trkpt>
      <trkpt lat="46.91416" lon="-0.85827">
        <ele>140.4898682</ele>
        <time>2012-05-16T18:24:35Z</time>
      </trkpt>
      <trkpt lat="46.91415" lon="-0.85849">
        <ele>142.4124756</ele>
        <time>2012-05-16T18:24:39Z</time>
      </trkpt>
      <trkpt lat="46.91414" lon="-0.85881">
        <ele>140.970459</ele>
        <time>2012-05-16T18:24:44Z</time>
      </trkpt>
      <trkpt lat="46.91414" lon="-0.85905">
        <ele>142.8930664</ele>
        <time>2012-05-16T18:24:47Z</time>
      </trkpt>
      <trkpt lat="46.9141" lon="-0.85945">
        <ele>144.3352051</ele>
        <time>2012-05-16T18:24:52Z</time>
      </trkpt>
      <trkpt lat="46.91408" lon="-0.85961">
        <ele>144.3352051</ele>
        <time>2012-05-16T18:24:54Z</time>
      </trkpt>
      <trkpt lat="46.91405" lon="-0.85977">
        <ele>147.2189941</ele>
        <time>2012-05-16T18:24:56Z</time>
      </trkpt>
      <trkpt lat="46.91411" lon="-0.86003">
        <ele>144.3352051</ele>
        <time>2012-05-16T18:25:00Z</time>
      </trkpt>
      <trkpt lat="46.91413" lon="-0.8601">
        <ele>143.8543701</ele>
        <time>2012-05-16T18:25:01Z</time>
      </trkpt>
      <trkpt lat="46.91419" lon="-0.86033">
        <ele>142.8930664</ele>
        <time>2012-05-16T18:25:04Z</time>
      </trkpt>
      <trkpt lat="46.91429" lon="-0.86061">
        <ele>143.3736572</ele>
        <time>2012-05-16T18:25:08Z</time>
      </trkpt>
      <trkpt lat="46.91432" lon="-0.86089">
        <ele>141.9317627</ele>
        <time>2012-05-16T18:25:12Z</time>
      </trkpt>
      <trkpt lat="46.91431" lon="-0.86116">
        <ele>139.5284424</ele>
        <time>2012-05-16T18:25:15Z</time>
      </trkpt>
      <trkpt lat="46.91421" lon="-0.86149">
        <ele>140.4898682</ele>
        <time>2012-05-16T18:25:19Z</time>
      </trkpt>
      <trkpt lat="46.914" lon="-0.86191">
        <ele>139.5284424</ele>
        <time>2012-05-16T18:25:25Z</time>
      </trkpt>
      <trkpt lat="46.91384" lon="-0.86211">
        <ele>138.5672607</ele>
        <time>2012-05-16T18:25:30Z</time>
      </trkpt>
      <trkpt lat="46.91377" lon="-0.86207">
        <ele>137.605835</ele>
        <time>2012-05-16T18:25:33Z</time>
      </trkpt>
      <trkpt lat="46.91375" lon="-0.86204">
        <ele>137.605835</ele>
        <time>2012-05-16T18:25:34Z</time>
      </trkpt>
      <trkpt lat="46.91361" lon="-0.86193">
        <ele>138.5672607</ele>
        <time>2012-05-16T18:25:40Z</time>
      </trkpt>
      <trkpt lat="46.9134" lon="-0.86174">
        <ele>138.0865479</ele>
        <time>2012-05-16T18:25:47Z</time>
      </trkpt>
      <trkpt lat="46.91323" lon="-0.86154">
        <ele>137.1252441</ele>
        <time>2012-05-16T18:25:52Z</time>
      </trkpt>
      <trkpt lat="46.91305" lon="-0.86127">
        <ele>135.6831055</ele>
        <time>2012-05-16T18:25:58Z</time>
      </trkpt>
      <trkpt lat="46.91298" lon="-0.86118">
        <ele>135.6831055</ele>
        <time>2012-05-16T18:26:00Z</time>
      </trkpt>
      <trkpt lat="46.91278" lon="-0.86097">
        <ele>138.0865479</ele>
        <time>2012-05-16T18:26:05Z</time>
      </trkpt>
      <trkpt lat="46.91263" lon="-0.86097">
        <ele>138.0865479</ele>
        <time>2012-05-16T18:26:08Z</time>
      </trkpt>
      <trkpt lat="46.9125" lon="-0.86105">
        <ele>138.0865479</ele>
        <time>2012-05-16T18:26:11Z</time>
      </trkpt>
      <trkpt lat="46.91238" lon="-0.86114">
        <ele>138.5672607</ele>
        <time>2012-05-16T18:26:14Z</time>
      </trkpt>
      <trkpt lat="46.91228" lon="-0.86123">
        <ele>138.5672607</ele>
        <time>2012-05-16T18:26:17Z</time>
      </trkpt>
      <trkpt lat="46.91219" lon="-0.86124">
        <ele>139.0478516</ele>
        <time>2012-05-16T18:26:21Z</time>
      </trkpt>
      <trkpt lat="46.91214" lon="-0.86122">
        <ele>139.5284424</ele>
        <time>2012-05-16T18:26:23Z</time>
      </trkpt>
      <trkpt lat="46.91198" lon="-0.86116">
        <ele>142.4124756</ele>
        <time>2012-05-16T18:26:31Z</time>
      </trkpt>
      <trkpt lat="46.91192" lon="-0.86119">
        <ele>144.3352051</ele>
        <time>2012-05-16T18:26:35Z</time>
      </trkpt>
      <trkpt lat="46.91189" lon="-0.86122">
        <ele>145.2963867</ele>
        <time>2012-05-16T18:26:37Z</time>
      </trkpt>
      <trkpt lat="46.9119" lon="-0.86129">
        <ele>146.2578125</ele>
        <time>2012-05-16T18:26:40Z</time>
      </trkpt>
      <trkpt lat="46.91191" lon="-0.86133">
        <ele>146.2578125</ele>
        <time>2012-05-16T18:26:41Z</time>
      </trkpt>
      <trkpt lat="46.91189" lon="-0.86153">
        <ele>150.1030273</ele>
        <time>2012-05-16T18:26:48Z</time>
      </trkpt>
      <trkpt lat="46.91188" lon="-0.86164">
        <ele>150.5836182</ele>
        <time>2012-05-16T18:26:52Z</time>
      </trkpt>
      <trkpt lat="46.91182" lon="-0.86177">
        <ele>153.4676514</ele>
        <time>2012-05-16T18:26:58Z</time>
      </trkpt>
      <trkpt lat="46.91179" lon="-0.86179">
        <ele>155.3902588</ele>
        <time>2012-05-16T18:27:00Z</time>
      </trkpt>
      <trkpt lat="46.91161" lon="-0.86189">
        <ele>158.2741699</ele>
        <time>2012-05-16T18:27:09Z</time>
      </trkpt>
      <trkpt lat="46.91156" lon="-0.86205">
        <ele>158.2741699</ele>
        <time>2012-05-16T18:27:15Z</time>
      </trkpt>
      <trkpt lat="46.91151" lon="-0.86219">
        <ele>159.2354736</ele>
        <time>2012-05-16T18:27:20Z</time>
      </trkpt>
      <trkpt lat="46.91145" lon="-0.86219">
        <ele>159.7161865</ele>
        <time>2012-05-16T18:27:25Z</time>
      </trkpt>
      <trkpt lat="46.91138" lon="-0.86219">
        <ele>160.6774902</ele>
        <time>2012-05-16T18:27:31Z</time>
      </trkpt>
      <trkpt lat="46.91139" lon="-0.86218">
        <ele>161.638916</ele>
        <time>2012-05-16T18:27:37Z</time>
      </trkpt>
      <trkpt lat="46.91138" lon="-0.86216">
        <ele>160.6774902</ele>
        <time>2012-05-16T18:27:45Z</time>
      </trkpt>
      <trkpt lat="46.91138" lon="-0.86213">
        <ele>159.7161865</ele>
        <time>2012-05-16T18:27:58Z</time>
      </trkpt>
      <trkpt lat="46.91137" lon="-0.86212">
        <ele>159.7161865</ele>
        <time>2012-05-16T18:27:59Z</time>
      </trkpt>
      <trkpt lat="46.91132" lon="-0.86207">
        <ele>159.2354736</ele>
        <time>2012-05-16T18:28:03Z</time>
      </trkpt>
      <trkpt lat="46.91124" lon="-0.86198">
        <ele>159.2354736</ele>
        <time>2012-05-16T18:28:08Z</time>
      </trkpt>
      <trkpt lat="46.9111" lon="-0.86182">
        <ele>160.6774902</ele>
        <time>2012-05-16T18:28:16Z</time>
      </trkpt>
      <trkpt lat="46.91098" lon="-0.86167">
        <ele>161.638916</ele>
        <time>2012-05-16T18:28:21Z</time>
      </trkpt>
      <trkpt lat="46.91084" lon="-0.86151">
        <ele>161.638916</ele>
        <time>2012-05-16T18:28:27Z</time>
      </trkpt>
      <trkpt lat="46.91066" lon="-0.86146">
        <ele>162.1195068</ele>
        <time>2012-05-16T18:28:33Z</time>
      </trkpt>
      <trkpt lat="46.91037" lon="-0.86152">
        <ele>163.5615234</ele>
        <time>2012-05-16T18:28:42Z</time>
      </trkpt>
      <trkpt lat="46.91012" lon="-0.8615">
        <ele>164.5227051</ele>
        <time>2012-05-16T18:28:50Z</time>
      </trkpt>
      <trkpt lat="46.90988" lon="-0.8615">
        <ele>163.5615234</ele>
        <time>2012-05-16T18:28:58Z</time>
      </trkpt>
      <trkpt lat="46.90978" lon="-0.86153">
        <ele>162.6000977</ele>
        <time>2012-05-16T18:29:01Z</time>
      </trkpt>
      <trkpt lat="46.90977" lon="-0.86171">
        <ele>161.1582031</ele>
        <time>2012-05-16T18:29:05Z</time>
      </trkpt>
      <trkpt lat="46.90979" lon="-0.86191">
        <ele>159.7161865</ele>
        <time>2012-05-16T18:29:08Z</time>
      </trkpt>
      <trkpt lat="46.90968" lon="-0.86205">
        <ele>159.7161865</ele>
        <time>2012-05-16T18:29:11Z</time>
      </trkpt>
      <trkpt lat="46.90965" lon="-0.86209">
        <ele>159.2354736</ele>
        <time>2012-05-16T18:29:12Z</time>
      </trkpt>
      <trkpt lat="46.9094" lon="-0.86233">
        <ele>158.2741699</ele>
        <time>2012-05-16T18:29:18Z</time>
      </trkpt>
      <trkpt lat="46.90923" lon="-0.86261">
        <ele>156.8321533</ele>
        <time>2012-05-16T18:29:22Z</time>
      </trkpt>
      <trkpt lat="46.90899" lon="-0.86323">
        <ele>152.5063477</ele>
        <time>2012-05-16T18:29:28Z</time>
      </trkpt>
      <trkpt lat="46.90878" lon="-0.86383">
        <ele>146.2578125</ele>
        <time>2012-05-16T18:29:33Z</time>
      </trkpt>
      <trkpt lat="46.90871" lon="-0.86405">
        <ele>144.3352051</ele>
        <time>2012-05-16T18:29:35Z</time>
      </trkpt>
      <trkpt lat="46.9086" lon="-0.86453">
        <ele>138.0865479</ele>
        <time>2012-05-16T18:29:39Z</time>
      </trkpt>
      <trkpt lat="46.90852" lon="-0.86472">
        <ele>134.2412109</ele>
        <time>2012-05-16T18:29:41Z</time>
      </trkpt>
      <trkpt lat="46.90846" lon="-0.86488">
        <ele>130.3959961</ele>
        <time>2012-05-16T18:29:43Z</time>
      </trkpt>
      <trkpt lat="46.90852" lon="-0.86517">
        <ele>127.9925537</ele>
        <time>2012-05-16T18:29:48Z</time>
      </trkpt>
      <trkpt lat="46.90864" lon="-0.8653">
        <ele>130.876709</ele>
        <time>2012-05-16T18:29:51Z</time>
      </trkpt>
      <trkpt lat="46.90873" lon="-0.86533">
        <ele>136.1639404</ele>
        <time>2012-05-16T18:29:55Z</time>
      </trkpt>
      <trkpt lat="46.90885" lon="-0.86535">
        <ele>142.8930664</ele>
        <time>2012-05-16T18:30:01Z</time>
      </trkpt>
      <trkpt lat="46.90888" lon="-0.86535">
        <ele>141.4510498</ele>
        <time>2012-05-16T18:30:03Z</time>
      </trkpt>
      <trkpt lat="46.90889" lon="-0.86535">
        <ele>142.4124756</ele>
        <time>2012-05-16T18:30:04Z</time>
      </trkpt>
      <trkpt lat="46.90898" lon="-0.86532">
        <ele>141.9317627</ele>
        <time>2012-05-16T18:30:09Z</time>
      </trkpt>
      <trkpt lat="46.90913" lon="-0.86539">
        <ele>142.4124756</ele>
        <time>2012-05-16T18:30:14Z</time>
      </trkpt>
      <trkpt lat="46.9093" lon="-0.86548">
        <ele>140.4898682</ele>
        <time>2012-05-16T18:30:19Z</time>
      </trkpt>
      <trkpt lat="46.90932" lon="-0.86549">
        <ele>139.5284424</ele>
        <time>2012-05-16T18:30:20Z</time>
      </trkpt>
      <trkpt lat="46.90949" lon="-0.8655">
        <ele>135.2025146</ele>
        <time>2012-05-16T18:30:27Z</time>
      </trkpt>
      <trkpt lat="46.90964" lon="-0.86544">
        <ele>133.760498</ele>
        <time>2012-05-16T18:30:33Z</time>
      </trkpt>
      <trkpt lat="46.90975" lon="-0.86543">
        <ele>133.2799072</ele>
        <time>2012-05-16T18:30:36Z</time>
      </trkpt>
      <trkpt lat="46.90993" lon="-0.86541">
        <ele>132.7993164</ele>
        <time>2012-05-16T18:30:41Z</time>
      </trkpt>
      <trkpt lat="46.91018" lon="-0.86539">
        <ele>131.8378906</ele>
        <time>2012-05-16T18:30:47Z</time>
      </trkpt>
      <trkpt lat="46.91026" lon="-0.86539">
        <ele>131.8378906</ele>
        <time>2012-05-16T18:30:49Z</time>
      </trkpt>
      <trkpt lat="46.91054" lon="-0.86553">
        <ele>134.2412109</ele>
        <time>2012-05-16T18:30:54Z</time>
      </trkpt>
      <trkpt lat="46.91072" lon="-0.86566">
        <ele>132.7993164</ele>
        <time>2012-05-16T18:30:58Z</time>
      </trkpt>
      <trkpt lat="46.91088" lon="-0.86571">
        <ele>132.7993164</ele>
        <time>2012-05-16T18:31:02Z</time>
      </trkpt>
      <trkpt lat="46.911" lon="-0.86557">
        <ele>132.7993164</ele>
        <time>2012-05-16T18:31:06Z</time>
      </trkpt>
      <trkpt lat="46.91103" lon="-0.86556">
        <ele>133.2799072</ele>
        <time>2012-05-16T18:31:09Z</time>
      </trkpt>
      <trkpt lat="46.91102" lon="-0.86561">
        <ele>133.2799072</ele>
        <time>2012-05-16T18:31:11Z</time>
      </trkpt>
      <trkpt lat="46.91086" lon="-0.86584">
        <ele>131.8378906</ele>
        <time>2012-05-16T18:31:18Z</time>
      </trkpt>
      <trkpt lat="46.91068" lon="-0.86617">
        <ele>131.3572998</ele>
        <time>2012-05-16T18:31:25Z</time>
      </trkpt>
      <trkpt lat="46.91044" lon="-0.86663">
        <ele>129.4346924</ele>
        <time>2012-05-16T18:31:33Z</time>
      </trkpt>
      <trkpt lat="46.91029" lon="-0.86692">
        <ele>128.4733887</ele>
        <time>2012-05-16T18:31:38Z</time>
      </trkpt>
      <trkpt lat="46.91021" lon="-0.86708">
        <ele>129.4346924</ele>
        <time>2012-05-16T18:31:41Z</time>
      </trkpt>
      <trkpt lat="46.91008" lon="-0.86725">
        <ele>128.9541016</ele>
        <time>2012-05-16T18:31:45Z</time>
      </trkpt>
      <trkpt lat="46.90999" lon="-0.86723">
        <ele>128.4733887</ele>
        <time>2012-05-16T18:31:48Z</time>
      </trkpt>
      <trkpt lat="46.90994" lon="-0.86717">
        <ele>128.4733887</ele>
        <time>2012-05-16T18:31:50Z</time>
      </trkpt>
      <trkpt lat="46.90988" lon="-0.86709">
        <ele>127.9925537</ele>
        <time>2012-05-16T18:31:52Z</time>
      </trkpt>
      <trkpt lat="46.90977" lon="-0.86705">
        <ele>127.5119629</ele>
        <time>2012-05-16T18:31:56Z</time>
      </trkpt>
      <trkpt lat="46.90977" lon="-0.86705">
        <ele>127.0313721</ele>
        <time>2012-05-16T18:32:00Z</time>
      </trkpt>
      <trkpt lat="46.90978" lon="-0.86706">
        <ele>127.0313721</ele>
        <time>2012-05-16T18:32:07Z</time>
      </trkpt>
      <trkpt lat="46.90981" lon="-0.86709">
        <ele>128.9541016</ele>
        <time>2012-05-16T18:32:12Z</time>
      </trkpt>
      <trkpt lat="46.90973" lon="-0.86704">
        <ele>134.2412109</ele>
        <time>2012-05-16T18:32:20Z</time>
      </trkpt>
      <trkpt lat="46.90972" lon="-0.86702">
        <ele>138.0865479</ele>
        <time>2012-05-16T18:32:26Z</time>
      </trkpt>
      <trkpt lat="46.90977" lon="-0.867">
        <ele>138.0865479</ele>
        <time>2012-05-16T18:32:31Z</time>
      </trkpt>
      <trkpt lat="46.9098" lon="-0.86696">
        <ele>139.5284424</ele>
        <time>2012-05-16T18:32:39Z</time>
      </trkpt>
      <trkpt lat="46.90981" lon="-0.86697">
        <ele>138.0865479</ele>
        <time>2012-05-16T18:32:45Z</time>
      </trkpt>
      <trkpt lat="46.90981" lon="-0.86697">
        <ele>138.0865479</ele>
        <time>2012-05-16T18:32:53Z</time>
      </trkpt>
      <trkpt lat="46.90981" lon="-0.86698">
        <ele>137.1252441</ele>
        <time>2012-05-16T18:33:02Z</time>
      </trkpt>
      <trkpt lat="46.90979" lon="-0.867">
        <ele>135.6831055</ele>
        <time>2012-05-16T18:33:10Z</time>
      </trkpt>
      <trkpt lat="46.90981" lon="-0.86706">
        <ele>134.2412109</ele>
        <time>2012-05-16T18:33:15Z</time>
      </trkpt>
      <trkpt lat="46.90981" lon="-0.86706">
        <ele>133.760498</ele>
        <time>2012-05-16T18:33:20Z</time>
      </trkpt>
      <trkpt lat="46.90979" lon="-0.86704">
        <ele>131.8378906</ele>
        <time>2012-05-16T18:33:24Z</time>
      </trkpt>
      <trkpt lat="46.9098" lon="-0.86702">
        <ele>133.2799072</ele>
        <time>2012-05-16T18:33:29Z</time>
      </trkpt>
      <trkpt lat="46.90981" lon="-0.867">
        <ele>131.8378906</ele>
        <time>2012-05-16T18:33:33Z</time>
      </trkpt>
      <trkpt lat="46.90989" lon="-0.86695">
        <ele>130.876709</ele>
        <time>2012-05-16T18:33:37Z</time>
      </trkpt>
      <trkpt lat="46.90996" lon="-0.86693">
        <ele>130.876709</ele>
        <time>2012-05-16T18:33:39Z</time>
      </trkpt>
      <trkpt lat="46.91004" lon="-0.86709">
        <ele>130.876709</ele>
        <time>2012-05-16T18:33:43Z</time>
      </trkpt>
      <trkpt lat="46.91007" lon="-0.86722">
        <ele>130.876709</ele>
        <time>2012-05-16T18:33:46Z</time>
      </trkpt>
      <trkpt lat="46.91012" lon="-0.86727">
        <ele>130.876709</ele>
        <time>2012-05-16T18:33:50Z</time>
      </trkpt>
      <trkpt lat="46.91014" lon="-0.86727">
        <ele>130.3959961</ele>
        <time>2012-05-16T18:33:52Z</time>
      </trkpt>
      <trkpt lat="46.91015" lon="-0.86726">
        <ele>130.3959961</ele>
        <time>2012-05-16T18:33:53Z</time>
      </trkpt>
      <trkpt lat="46.91017" lon="-0.86719">
        <ele>129.4346924</ele>
        <time>2012-05-16T18:33:58Z</time>
      </trkpt>
      <trkpt lat="46.91021" lon="-0.86709">
        <ele>128.9541016</ele>
        <time>2012-05-16T18:34:04Z</time>
      </trkpt>
      <trkpt lat="46.91024" lon="-0.867">
        <ele>128.9541016</ele>
        <time>2012-05-16T18:34:09Z</time>
      </trkpt>
      <trkpt lat="46.91021" lon="-0.867">
        <ele>128.4733887</ele>
        <time>2012-05-16T18:34:17Z</time>
      </trkpt>
      <trkpt lat="46.91023" lon="-0.86698">
        <ele>128.9541016</ele>
        <time>2012-05-16T18:34:32Z</time>
      </trkpt>
      <trkpt lat="46.91027" lon="-0.8669">
        <ele>128.9541016</ele>
        <time>2012-05-16T18:34:36Z</time>
      </trkpt>
      <trkpt lat="46.91043" lon="-0.86658">
        <ele>128.4733887</ele>
        <time>2012-05-16T18:34:44Z</time>
      </trkpt>
      <trkpt lat="46.91062" lon="-0.86622">
        <ele>128.4733887</ele>
        <time>2012-05-16T18:34:52Z</time>
      </trkpt>
      <trkpt lat="46.9108" lon="-0.86589">
        <ele>129.4346924</ele>
        <time>2012-05-16T18:34:59Z</time>
      </trkpt>
      <trkpt lat="46.911" lon="-0.86555">
        <ele>130.3959961</ele>
        <time>2012-05-16T18:35:07Z</time>
      </trkpt>
      <trkpt lat="46.91114" lon="-0.8653">
        <ele>131.8378906</ele>
        <time>2012-05-16T18:35:13Z</time>
      </trkpt>
      <trkpt lat="46.91117" lon="-0.86527">
        <ele>132.3186035</ele>
        <time>2012-05-16T18:35:14Z</time>
      </trkpt>
      <trkpt lat="46.91132" lon="-0.86528">
        <ele>134.2412109</ele>
        <time>2012-05-16T18:35:18Z</time>
      </trkpt>
      <trkpt lat="46.91136" lon="-0.8653">
        <ele>135.2025146</ele>
        <time>2012-05-16T18:35:19Z</time>
      </trkpt>
      <trkpt lat="46.9115" lon="-0.86537">
        <ele>140.4898682</ele>
        <time>2012-05-16T18:35:23Z</time>
      </trkpt>
      <trkpt lat="46.91157" lon="-0.8654">
        <ele>142.8930664</ele>
        <time>2012-05-16T18:35:25Z</time>
      </trkpt>
      <trkpt lat="46.91182" lon="-0.86545">
        <ele>152.9869385</ele>
        <time>2012-05-16T18:35:32Z</time>
      </trkpt>
      <trkpt lat="46.91202" lon="-0.86543">
        <ele>150.5836182</ele>
        <time>2012-05-16T18:35:38Z</time>
      </trkpt>
      <trkpt lat="46.9122" lon="-0.86532">
        <ele>150.1030273</ele>
        <time>2012-05-16T18:35:42Z</time>
      </trkpt>
      <trkpt lat="46.91235" lon="-0.86532">
        <ele>146.2578125</ele>
        <time>2012-05-16T18:35:46Z</time>
      </trkpt>
      <trkpt lat="46.91243" lon="-0.86536">
        <ele>144.3352051</ele>
        <time>2012-05-16T18:35:48Z</time>
      </trkpt>
      <trkpt lat="46.91276" lon="-0.86572">
        <ele>143.3736572</ele>
        <time>2012-05-16T18:35:55Z</time>
      </trkpt>
      <trkpt lat="46.91316" lon="-0.86608">
        <ele>145.2963867</ele>
        <time>2012-05-16T18:36:06Z</time>
      </trkpt>
      <trkpt lat="46.91344" lon="-0.86637">
        <ele>146.7384033</ele>
        <time>2012-05-16T18:36:14Z</time>
      </trkpt>
      <trkpt lat="46.91361" lon="-0.86654">
        <ele>147.2189941</ele>
        <time>2012-05-16T18:36:19Z</time>
      </trkpt>
      <trkpt lat="46.91379" lon="-0.86673">
        <ele>147.2189941</ele>
        <time>2012-05-16T18:36:26Z</time>
      </trkpt>
      <trkpt lat="46.9138" lon="-0.86675">
        <ele>146.7384033</ele>
        <time>2012-05-16T18:36:27Z</time>
      </trkpt>
      <trkpt lat="46.91375" lon="-0.86684">
        <ele>146.2578125</ele>
        <time>2012-05-16T18:36:32Z</time>
      </trkpt>
      <trkpt lat="46.91358" lon="-0.86699">
        <ele>145.2963867</ele>
        <time>2012-05-16T18:36:39Z</time>
      </trkpt>
      <trkpt lat="46.91331" lon="-0.86718">
        <ele>144.3352051</ele>
        <time>2012-05-16T18:36:47Z</time>
      </trkpt>
      <trkpt lat="46.91321" lon="-0.86726">
        <ele>144.3352051</ele>
        <time>2012-05-16T18:36:50Z</time>
      </trkpt>
      <trkpt lat="46.91315" lon="-0.86733">
        <ele>144.3352051</ele>
        <time>2012-05-16T18:36:52Z</time>
      </trkpt>
      <trkpt lat="46.91323" lon="-0.8677">
        <ele>142.8930664</ele>
        <time>2012-05-16T18:36:58Z</time>
      </trkpt>
      <trkpt lat="46.91332" lon="-0.86815">
        <ele>140.0091553</ele>
        <time>2012-05-16T18:37:03Z</time>
      </trkpt>
      <trkpt lat="46.91333" lon="-0.86859">
        <ele>136.6446533</ele>
        <time>2012-05-16T18:37:07Z</time>
      </trkpt>
      <trkpt lat="46.91323" lon="-0.86881">
        <ele>133.2799072</ele>
        <time>2012-05-16T18:37:10Z</time>
      </trkpt>
      <trkpt lat="46.91325" lon="-0.86893">
        <ele>131.8378906</ele>
        <time>2012-05-16T18:37:13Z</time>
      </trkpt>
      <trkpt lat="46.91328" lon="-0.86895">
        <ele>130.876709</ele>
        <time>2012-05-16T18:37:14Z</time>
      </trkpt>
      <trkpt lat="46.91336" lon="-0.86906">
        <ele>127.9925537</ele>
        <time>2012-05-16T18:37:17Z</time>
      </trkpt>
      <trkpt lat="46.91342" lon="-0.86937">
        <ele>128.4733887</ele>
        <time>2012-05-16T18:37:23Z</time>
      </trkpt>
      <trkpt lat="46.91342" lon="-0.86943">
        <ele>127.5119629</ele>
        <time>2012-05-16T18:37:24Z</time>
      </trkpt>
      <trkpt lat="46.91347" lon="-0.86983">
        <ele>124.6280518</ele>
        <time>2012-05-16T18:37:29Z</time>
      </trkpt>
      <trkpt lat="46.91361" lon="-0.87005">
        <ele>124.1473389</ele>
        <time>2012-05-16T18:37:32Z</time>
      </trkpt>
      <trkpt lat="46.91366" lon="-0.8701">
        <ele>124.1473389</ele>
        <time>2012-05-16T18:37:33Z</time>
      </trkpt>
      <trkpt lat="46.91398" lon="-0.87031">
        <ele>124.6280518</ele>
        <time>2012-05-16T18:37:39Z</time>
      </trkpt>
      <trkpt lat="46.91423" lon="-0.87047">
        <ele>124.6280518</ele>
        <time>2012-05-16T18:37:44Z</time>
      </trkpt>
      <trkpt lat="46.91432" lon="-0.87053">
        <ele>125.1087646</ele>
        <time>2012-05-16T18:37:46Z</time>
      </trkpt>
      <trkpt lat="46.91449" lon="-0.87069">
        <ele>126.5506592</ele>
        <time>2012-05-16T18:37:50Z</time>
      </trkpt>
      <trkpt lat="46.91456" lon="-0.87078">
        <ele>128.4733887</ele>
        <time>2012-05-16T18:37:54Z</time>
      </trkpt>
      <trkpt lat="46.9146" lon="-0.87084">
        <ele>128.9541016</ele>
        <time>2012-05-16T18:37:57Z</time>
      </trkpt>
      <trkpt lat="46.91463" lon="-0.87089">
        <ele>129.4346924</ele>
        <time>2012-05-16T18:37:59Z</time>
      </trkpt>
      <trkpt lat="46.91467" lon="-0.87097">
        <ele>130.3959961</ele>
        <time>2012-05-16T18:38:04Z</time>
      </trkpt>
      <trkpt lat="46.91475" lon="-0.87109">
        <ele>129.9152832</ele>
        <time>2012-05-16T18:38:09Z</time>
      </trkpt>
      <trkpt lat="46.91485" lon="-0.87122">
        <ele>129.9152832</ele>
        <time>2012-05-16T18:38:13Z</time>
      </trkpt>
      <trkpt lat="46.91496" lon="-0.87152">
        <ele>129.4346924</ele>
        <time>2012-05-16T18:38:19Z</time>
      </trkpt>
      <trkpt lat="46.91507" lon="-0.87192">
        <ele>128.4733887</ele>
        <time>2012-05-16T18:38:26Z</time>
      </trkpt>
      <trkpt lat="46.91526" lon="-0.87237">
        <ele>128.9541016</ele>
        <time>2012-05-16T18:38:34Z</time>
      </trkpt>
      <trkpt lat="46.91538" lon="-0.87264">
        <ele>128.9541016</ele>
        <time>2012-05-16T18:38:39Z</time>
      </trkpt>
      <trkpt lat="46.9155" lon="-0.87284">
        <ele>127.9925537</ele>
        <time>2012-05-16T18:38:43Z</time>
      </trkpt>
      <trkpt lat="46.91572" lon="-0.8731">
        <ele>127.0313721</ele>
        <time>2012-05-16T18:38:50Z</time>
      </trkpt>
      <trkpt lat="46.91595" lon="-0.87337">
        <ele>125.5893555</ele>
        <time>2012-05-16T18:38:57Z</time>
      </trkpt>
      <trkpt lat="46.91613" lon="-0.87353">
        <ele>125.1087646</ele>
        <time>2012-05-16T18:39:02Z</time>
      </trkpt>
      <trkpt lat="46.91622" lon="-0.87371">
        <ele>124.1473389</ele>
        <time>2012-05-16T18:39:06Z</time>
      </trkpt>
      <trkpt lat="46.91625" lon="-0.87381">
        <ele>124.1473389</ele>
        <time>2012-05-16T18:39:08Z</time>
      </trkpt>
      <trkpt lat="46.9164" lon="-0.874">
        <ele>124.1473389</ele>
        <time>2012-05-16T18:39:14Z</time>
      </trkpt>
      <trkpt lat="46.9166" lon="-0.87411">
        <ele>125.5893555</ele>
        <time>2012-05-16T18:39:20Z</time>
      </trkpt>
      <trkpt lat="46.91686" lon="-0.87423">
        <ele>125.5893555</ele>
        <time>2012-05-16T18:39:28Z</time>
      </trkpt>
      <trkpt lat="46.9171" lon="-0.87436">
        <ele>125.5893555</ele>
        <time>2012-05-16T18:39:35Z</time>
      </trkpt>
      <trkpt lat="46.91736" lon="-0.87448">
        <ele>125.1087646</ele>
        <time>2012-05-16T18:39:42Z</time>
      </trkpt>
      <trkpt lat="46.91763" lon="-0.87447">
        <ele>124.6280518</ele>
        <time>2012-05-16T18:39:49Z</time>
      </trkpt>
      <trkpt lat="46.91788" lon="-0.87453">
        <ele>124.6280518</ele>
        <time>2012-05-16T18:39:56Z</time>
      </trkpt>
      <trkpt lat="46.91813" lon="-0.87453">
        <ele>124.6280518</ele>
        <time>2012-05-16T18:40:03Z</time>
      </trkpt>
      <trkpt lat="46.91836" lon="-0.8745">
        <ele>125.5893555</ele>
        <time>2012-05-16T18:40:10Z</time>
      </trkpt>
      <trkpt lat="46.91846" lon="-0.8745">
        <ele>127.0313721</ele>
        <time>2012-05-16T18:40:15Z</time>
      </trkpt>
      <trkpt lat="46.91864" lon="-0.8745">
        <ele>129.9152832</ele>
        <time>2012-05-16T18:40:21Z</time>
      </trkpt>
      <trkpt lat="46.91889" lon="-0.87449">
        <ele>132.7993164</ele>
        <time>2012-05-16T18:40:28Z</time>
      </trkpt>
      <trkpt lat="46.91902" lon="-0.87447">
        <ele>134.2412109</ele>
        <time>2012-05-16T18:40:34Z</time>
      </trkpt>
      <trkpt lat="46.91913" lon="-0.87447">
        <ele>134.7219238</ele>
        <time>2012-05-16T18:40:38Z</time>
      </trkpt>
      <trkpt lat="46.9193" lon="-0.87445">
        <ele>133.760498</ele>
        <time>2012-05-16T18:40:43Z</time>
      </trkpt>
      <trkpt lat="46.91949" lon="-0.87436">
        <ele>131.3572998</ele>
        <time>2012-05-16T18:40:48Z</time>
      </trkpt>
      <trkpt lat="46.91962" lon="-0.8742">
        <ele>129.9152832</ele>
        <time>2012-05-16T18:40:52Z</time>
      </trkpt>
      <trkpt lat="46.91978" lon="-0.87399">
        <ele>129.4346924</ele>
        <time>2012-05-16T18:40:58Z</time>
      </trkpt>
      <trkpt lat="46.91996" lon="-0.87377">
        <ele>128.9541016</ele>
        <time>2012-05-16T18:41:04Z</time>
      </trkpt>
      <trkpt lat="46.9202" lon="-0.87364">
        <ele>128.4733887</ele>
        <time>2012-05-16T18:41:10Z</time>
      </trkpt>
      <trkpt lat="46.92041" lon="-0.87355">
        <ele>127.5119629</ele>
        <time>2012-05-16T18:41:15Z</time>
      </trkpt>
      <trkpt lat="46.92052" lon="-0.87347">
        <ele>127.0313721</ele>
        <time>2012-05-16T18:41:18Z</time>
      </trkpt>
      <trkpt lat="46.92074" lon="-0.87329">
        <ele>127.0313721</ele>
        <time>2012-05-16T18:41:24Z</time>
      </trkpt>
      <trkpt lat="46.92086" lon="-0.87313">
        <ele>127.0313721</ele>
        <time>2012-05-16T18:41:29Z</time>
      </trkpt>
      <trkpt lat="46.92092" lon="-0.87307">
        <ele>128.4733887</ele>
        <time>2012-05-16T18:41:33Z</time>
      </trkpt>
      <trkpt lat="46.92095" lon="-0.87301">
        <ele>128.9541016</ele>
        <time>2012-05-16T18:41:36Z</time>
      </trkpt>
      <trkpt lat="46.92096" lon="-0.87299">
        <ele>130.3959961</ele>
        <time>2012-05-16T18:41:42Z</time>
      </trkpt>
      <trkpt lat="46.92097" lon="-0.87301">
        <ele>132.3186035</ele>
        <time>2012-05-16T18:41:45Z</time>
      </trkpt>
      <trkpt lat="46.92089" lon="-0.87311">
        <ele>132.3186035</ele>
        <time>2012-05-16T18:41:51Z</time>
      </trkpt>
      <trkpt lat="46.92081" lon="-0.87314">
        <ele>131.8378906</ele>
        <time>2012-05-16T18:41:55Z</time>
      </trkpt>
      <trkpt lat="46.9208" lon="-0.87312">
        <ele>131.8378906</ele>
        <time>2012-05-16T18:41:56Z</time>
      </trkpt>
      <trkpt lat="46.92069" lon="-0.873">
        <ele>131.8378906</ele>
        <time>2012-05-16T18:42:03Z</time>
      </trkpt>
      <trkpt lat="46.92053" lon="-0.87295">
        <ele>133.760498</ele>
        <time>2012-05-16T18:42:11Z</time>
      </trkpt>
      <trkpt lat="46.92052" lon="-0.87293">
        <ele>134.2412109</ele>
        <time>2012-05-16T18:42:12Z</time>
      </trkpt>
      <trkpt lat="46.92052" lon="-0.87289">
        <ele>134.7219238</ele>
        <time>2012-05-16T18:42:17Z</time>
      </trkpt>
      <trkpt lat="46.92056" lon="-0.87284">
        <ele>134.7219238</ele>
        <time>2012-05-16T18:42:24Z</time>
      </trkpt>
      <trkpt lat="46.9206" lon="-0.87283">
        <ele>137.605835</ele>
        <time>2012-05-16T18:42:28Z</time>
      </trkpt>
      <trkpt lat="46.92061" lon="-0.87281">
        <ele>138.0865479</ele>
        <time>2012-05-16T18:42:29Z</time>
      </trkpt>
      <trkpt lat="46.9206" lon="-0.87271">
        <ele>140.0091553</ele>
        <time>2012-05-16T18:42:35Z</time>
      </trkpt>
      <trkpt lat="46.92056" lon="-0.87264">
        <ele>140.4898682</ele>
        <time>2012-05-16T18:42:41Z</time>
      </trkpt>
      <trkpt lat="46.92055" lon="-0.87264">
        <ele>141.9317627</ele>
        <time>2012-05-16T18:42:43Z</time>
      </trkpt>
      <trkpt lat="46.92052" lon="-0.87263">
        <ele>139.0478516</ele>
        <time>2012-05-16T18:42:47Z</time>
      </trkpt>
      <trkpt lat="46.92046" lon="-0.87262">
        <ele>137.1252441</ele>
        <time>2012-05-16T18:42:52Z</time>
      </trkpt>
      <trkpt lat="46.92041" lon="-0.87263">
        <ele>139.0478516</ele>
        <time>2012-05-16T18:42:56Z</time>
      </trkpt>
      <trkpt lat="46.92039" lon="-0.87261">
        <ele>140.970459</ele>
        <time>2012-05-16T18:42:59Z</time>
      </trkpt>
      <trkpt lat="46.92043" lon="-0.87255">
        <ele>140.970459</ele>
        <time>2012-05-16T18:43:06Z</time>
      </trkpt>
      <trkpt lat="46.92045" lon="-0.87252">
        <ele>144.3352051</ele>
        <time>2012-05-16T18:43:12Z</time>
      </trkpt>
      <trkpt lat="46.92042" lon="-0.87249">
        <ele>145.7770996</ele>
        <time>2012-05-16T18:43:18Z</time>
      </trkpt>
      <trkpt lat="46.92038" lon="-0.87244">
        <ele>145.7770996</ele>
        <time>2012-05-16T18:43:24Z</time>
      </trkpt>
      <trkpt lat="46.92036" lon="-0.8724">
        <ele>145.2963867</ele>
        <time>2012-05-16T18:43:27Z</time>
      </trkpt>
      <trkpt lat="46.92032" lon="-0.87235">
        <ele>145.2963867</ele>
        <time>2012-05-16T18:43:31Z</time>
      </trkpt>
      <trkpt lat="46.92027" lon="-0.87236">
        <ele>145.7770996</ele>
        <time>2012-05-16T18:43:36Z</time>
      </trkpt>
      <trkpt lat="46.92023" lon="-0.87235">
        <ele>148.1804199</ele>
        <time>2012-05-16T18:43:42Z</time>
      </trkpt>
      <trkpt lat="46.92022" lon="-0.87234">
        <ele>149.1416016</ele>
        <time>2012-05-16T18:43:47Z</time>
      </trkpt>
      <trkpt lat="46.92019" lon="-0.87232">
        <ele>150.5836182</ele>
        <time>2012-05-16T18:43:53Z</time>
      </trkpt>
      <trkpt lat="46.92017" lon="-0.87228">
        <ele>152.5063477</ele>
        <time>2012-05-16T18:43:59Z</time>
      </trkpt>
      <trkpt lat="46.92015" lon="-0.87225">
        <ele>153.4676514</ele>
        <time>2012-05-16T18:44:05Z</time>
      </trkpt>
      <trkpt lat="46.92013" lon="-0.87221">
        <ele>153.4676514</ele>
        <time>2012-05-16T18:44:11Z</time>
      </trkpt>
      <trkpt lat="46.9201" lon="-0.87215">
        <ele>152.0257568</ele>
        <time>2012-05-16T18:44:18Z</time>
      </trkpt>
      <trkpt lat="46.9201" lon="-0.87214">
        <ele>151.5449219</ele>
        <time>2012-05-16T18:44:20Z</time>
      </trkpt>
      <trkpt lat="46.92006" lon="-0.87206">
        <ele>152.5063477</ele>
        <time>2012-05-16T18:44:28Z</time>
      </trkpt>
      <trkpt lat="46.92002" lon="-0.87195">
        <ele>151.5449219</ele>
        <time>2012-05-16T18:44:36Z</time>
      </trkpt>
      <trkpt lat="46.92003" lon="-0.87194">
        <ele>151.064209</ele>
        <time>2012-05-16T18:44:43Z</time>
      </trkpt>
      <trkpt lat="46.92003" lon="-0.87194">
        <ele>151.064209</ele>
        <time>2012-05-16T18:44:47Z</time>
      </trkpt>
      <trkpt lat="46.92003" lon="-0.87192">
        <ele>152.0257568</ele>
        <time>2012-05-16T18:44:55Z</time>
      </trkpt>
      <trkpt lat="46.92003" lon="-0.87191">
        <ele>151.5449219</ele>
        <time>2012-05-16T18:44:58Z</time>
      </trkpt>
      <trkpt lat="46.92002" lon="-0.8719">
        <ele>151.5449219</ele>
        <time>2012-05-16T18:45:05Z</time>
      </trkpt>
      <trkpt lat="46.92003" lon="-0.8719">
        <ele>151.064209</ele>
        <time>2012-05-16T18:45:10Z</time>
      </trkpt>
      <trkpt lat="46.92003" lon="-0.87185">
        <ele>152.0257568</ele>
        <time>2012-05-16T18:45:17Z</time>
      </trkpt>
      <trkpt lat="46.92005" lon="-0.87175">
        <ele>151.5449219</ele>
        <time>2012-05-16T18:45:21Z</time>
      </trkpt>
      <trkpt lat="46.92005" lon="-0.87154">
        <ele>152.9869385</ele>
        <time>2012-05-16T18:45:27Z</time>
      </trkpt>
      <trkpt lat="46.92001" lon="-0.87134">
        <ele>155.3902588</ele>
        <time>2012-05-16T18:45:33Z</time>
      </trkpt>
      <trkpt lat="46.92001" lon="-0.87113">
        <ele>156.8321533</ele>
        <time>2012-05-16T18:45:39Z</time>
      </trkpt>
      <trkpt lat="46.92004" lon="-0.87094">
        <ele>157.7935791</ele>
        <time>2012-05-16T18:45:46Z</time>
      </trkpt>
      <trkpt lat="46.92012" lon="-0.87092">
        <ele>158.7547607</ele>
        <time>2012-05-16T18:45:51Z</time>
      </trkpt>
      <trkpt lat="46.92029" lon="-0.871">
        <ele>160.1968994</ele>
        <time>2012-05-16T18:45:59Z</time>
      </trkpt>
      <trkpt lat="46.92042" lon="-0.87102">
        <ele>160.6774902</ele>
        <time>2012-05-16T18:46:05Z</time>
      </trkpt>
      <trkpt lat="46.92063" lon="-0.871">
        <ele>162.1195068</ele>
        <time>2012-05-16T18:46:14Z</time>
      </trkpt>
      <trkpt lat="46.92087" lon="-0.87109">
        <ele>162.1195068</ele>
        <time>2012-05-16T18:46:22Z</time>
      </trkpt>
      <trkpt lat="46.9211" lon="-0.87117">
        <ele>161.638916</ele>
        <time>2012-05-16T18:46:28Z</time>
      </trkpt>
      <trkpt lat="46.9214" lon="-0.87134">
        <ele>160.6774902</ele>
        <time>2012-05-16T18:46:36Z</time>
      </trkpt>
      <trkpt lat="46.9217" lon="-0.87151">
        <ele>160.1968994</ele>
        <time>2012-05-16T18:46:44Z</time>
      </trkpt>
      <trkpt lat="46.92192" lon="-0.87162">
        <ele>160.6774902</ele>
        <time>2012-05-16T18:46:50Z</time>
      </trkpt>
      <trkpt lat="46.92219" lon="-0.87169">
        <ele>161.638916</ele>
        <time>2012-05-16T18:46:57Z</time>
      </trkpt>
      <trkpt lat="46.92232" lon="-0.87168">
        <ele>162.1195068</ele>
        <time>2012-05-16T18:47:00Z</time>
      </trkpt>
      <trkpt lat="46.92262" lon="-0.87153">
        <ele>164.5227051</ele>
        <time>2012-05-16T18:47:07Z</time>
      </trkpt>
      <trkpt lat="46.92279" lon="-0.87144">
        <ele>165.003418</ele>
        <time>2012-05-16T18:47:11Z</time>
      </trkpt>
      <trkpt lat="46.9232" lon="-0.87128">
        <ele>164.0421143</ele>
        <time>2012-05-16T18:47:20Z</time>
      </trkpt>
      <trkpt lat="46.92349" lon="-0.87109">
        <ele>163.0808105</ele>
        <time>2012-05-16T18:47:26Z</time>
      </trkpt>
      <trkpt lat="46.92374" lon="-0.87089">
        <ele>162.1195068</ele>
        <time>2012-05-16T18:47:31Z</time>
      </trkpt>
      <trkpt lat="46.92379" lon="-0.87085">
        <ele>162.1195068</ele>
        <time>2012-05-16T18:47:32Z</time>
      </trkpt>
      <trkpt lat="46.924" lon="-0.87081">
        <ele>162.1195068</ele>
        <time>2012-05-16T18:47:36Z</time>
      </trkpt>
      <trkpt lat="46.92405" lon="-0.87083">
        <ele>162.1195068</ele>
        <time>2012-05-16T18:47:37Z</time>
      </trkpt>
      <trkpt lat="46.92442" lon="-0.87096">
        <ele>162.1195068</ele>
        <time>2012-05-16T18:47:45Z</time>
      </trkpt>
      <trkpt lat="46.92489" lon="-0.87112">
        <ele>161.638916</ele>
        <time>2012-05-16T18:47:54Z</time>
      </trkpt>
      <trkpt lat="46.92506" lon="-0.8712">
        <ele>160.1968994</ele>
        <time>2012-05-16T18:47:57Z</time>
      </trkpt>
      <trkpt lat="46.92517" lon="-0.87126">
        <ele>158.7547607</ele>
        <time>2012-05-16T18:47:59Z</time>
      </trkpt>
      <trkpt lat="46.92542" lon="-0.87139">
        <ele>156.3515625</ele>
        <time>2012-05-16T18:48:03Z</time>
      </trkpt>
      <trkpt lat="46.92581" lon="-0.87142">
        <ele>152.9869385</ele>
        <time>2012-05-16T18:48:08Z</time>
      </trkpt>
      <trkpt lat="46.92601" lon="-0.87141">
        <ele>150.5836182</ele>
        <time>2012-05-16T18:48:11Z</time>
      </trkpt>
      <trkpt lat="46.92613" lon="-0.87138">
        <ele>149.6223145</ele>
        <time>2012-05-16T18:48:14Z</time>
      </trkpt>
      <trkpt lat="46.92614" lon="-0.87135">
        <ele>148.6610107</ele>
        <time>2012-05-16T18:48:19Z</time>
      </trkpt>
      <trkpt lat="46.92617" lon="-0.87135">
        <ele>148.1804199</ele>
        <time>2012-05-16T18:48:28Z</time>
      </trkpt>
      <trkpt lat="46.92617" lon="-0.87136">
        <ele>149.6223145</ele>
        <time>2012-05-16T18:48:37Z</time>
      </trkpt>
      <trkpt lat="46.92617" lon="-0.87139">
        <ele>150.5836182</ele>
        <time>2012-05-16T18:48:43Z</time>
      </trkpt>
      <trkpt lat="46.92619" lon="-0.87139">
        <ele>150.1030273</ele>
        <time>2012-05-16T18:48:47Z</time>
      </trkpt>
      <trkpt lat="46.9262" lon="-0.8714">
        <ele>149.6223145</ele>
        <time>2012-05-16T18:48:51Z</time>
      </trkpt>
      <trkpt lat="46.9262" lon="-0.87141">
        <ele>151.064209</ele>
        <time>2012-05-16T18:48:57Z</time>
      </trkpt>
      <trkpt lat="46.9262" lon="-0.87142">
        <ele>152.9869385</ele>
        <time>2012-05-16T18:49:04Z</time>
      </trkpt>
      <trkpt lat="46.92619" lon="-0.87144">
        <ele>153.4676514</ele>
        <time>2012-05-16T18:49:12Z</time>
      </trkpt>
      <trkpt lat="46.9262" lon="-0.87145">
        <ele>152.0257568</ele>
        <time>2012-05-16T18:49:21Z</time>
      </trkpt>
      <trkpt lat="46.92622" lon="-0.87142">
        <ele>149.6223145</ele>
        <time>2012-05-16T18:49:29Z</time>
      </trkpt>
      <trkpt lat="46.92629" lon="-0.87137">
        <ele>147.2189941</ele>
        <time>2012-05-16T18:49:33Z</time>
      </trkpt>
      <trkpt lat="46.92646" lon="-0.87121">
        <ele>141.9317627</ele>
        <time>2012-05-16T18:49:37Z</time>
      </trkpt>
      <trkpt lat="46.92659" lon="-0.87108">
        <ele>139.0478516</ele>
        <time>2012-05-16T18:49:39Z</time>
      </trkpt>
      <trkpt lat="46.92678" lon="-0.87092">
        <ele>134.2412109</ele>
        <time>2012-05-16T18:49:43Z</time>
      </trkpt>
      <trkpt lat="46.92697" lon="-0.87084">
        <ele>135.6831055</ele>
        <time>2012-05-16T18:49:48Z</time>
      </trkpt>
      <trkpt lat="46.92697" lon="-0.87085">
        <ele>136.1639404</ele>
        <time>2012-05-16T18:49:56Z</time>
      </trkpt>
      <trkpt lat="46.92697" lon="-0.87086">
        <ele>139.0478516</ele>
        <time>2012-05-16T18:50:07Z</time>
      </trkpt>
      <trkpt lat="46.92705" lon="-0.87087">
        <ele>144.3352051</ele>
        <time>2012-05-16T18:50:23Z</time>
      </trkpt>
      <trkpt lat="46.92704" lon="-0.87089">
        <ele>143.3736572</ele>
        <time>2012-05-16T18:50:31Z</time>
      </trkpt>
      <trkpt lat="46.92709" lon="-0.87096">
        <ele>140.0091553</ele>
        <time>2012-05-16T18:50:37Z</time>
      </trkpt>
      <trkpt lat="46.92708" lon="-0.87102">
        <ele>137.605835</ele>
        <time>2012-05-16T18:50:42Z</time>
      </trkpt>
      <trkpt lat="46.92706" lon="-0.87103">
        <ele>135.6831055</ele>
        <time>2012-05-16T18:50:54Z</time>
      </trkpt>
      <trkpt lat="46.92706" lon="-0.87106">
        <ele>135.2025146</ele>
        <time>2012-05-16T18:50:56Z</time>
      </trkpt>
      <trkpt lat="46.92721" lon="-0.87111">
        <ele>132.3186035</ele>
        <time>2012-05-16T18:51:01Z</time>
      </trkpt>
      <trkpt lat="46.92741" lon="-0.8711">
        <ele>129.9152832</ele>
        <time>2012-05-16T18:51:05Z</time>
      </trkpt>
      <trkpt lat="46.92753" lon="-0.87108">
        <ele>128.4733887</ele>
        <time>2012-05-16T18:51:07Z</time>
      </trkpt>
      <trkpt lat="46.92763" lon="-0.87104">
        <ele>127.9925537</ele>
        <time>2012-05-16T18:51:09Z</time>
      </trkpt>
      <trkpt lat="46.92773" lon="-0.87103">
        <ele>127.5119629</ele>
        <time>2012-05-16T18:51:11Z</time>
      </trkpt>
      <trkpt lat="46.92782" lon="-0.87102">
        <ele>127.0313721</ele>
        <time>2012-05-16T18:51:13Z</time>
      </trkpt>
      <trkpt lat="46.92799" lon="-0.87101">
        <ele>126.5506592</ele>
        <time>2012-05-16T18:51:17Z</time>
      </trkpt>
      <trkpt lat="46.92807" lon="-0.87101">
        <ele>126.5506592</ele>
        <time>2012-05-16T18:51:19Z</time>
      </trkpt>
      <trkpt lat="46.92827" lon="-0.871">
        <ele>126.5506592</ele>
        <time>2012-05-16T18:51:26Z</time>
      </trkpt>
      <trkpt lat="46.92848" lon="-0.87106">
        <ele>125.5893555</ele>
        <time>2012-05-16T18:51:33Z</time>
      </trkpt>
      <trkpt lat="46.92866" lon="-0.87107">
        <ele>125.5893555</ele>
        <time>2012-05-16T18:51:40Z</time>
      </trkpt>
      <trkpt lat="46.92878" lon="-0.87102">
        <ele>126.0699463</ele>
        <time>2012-05-16T18:51:45Z</time>
      </trkpt>
      <trkpt lat="46.92885" lon="-0.87096">
        <ele>127.0313721</ele>
        <time>2012-05-16T18:51:49Z</time>
      </trkpt>
      <trkpt lat="46.92887" lon="-0.87093">
        <ele>127.5119629</ele>
        <time>2012-05-16T18:51:55Z</time>
      </trkpt>
      <trkpt lat="46.92886" lon="-0.87092">
        <ele>127.5119629</ele>
        <time>2012-05-16T18:52:02Z</time>
      </trkpt>
      <trkpt lat="46.92883" lon="-0.87089">
        <ele>127.5119629</ele>
        <time>2012-05-16T18:52:06Z</time>
      </trkpt>
      <trkpt lat="46.92882" lon="-0.87089">
        <ele>127.5119629</ele>
        <time>2012-05-16T18:52:07Z</time>
      </trkpt>
      <trkpt lat="46.92877" lon="-0.87078">
        <ele>126.0699463</ele>
        <time>2012-05-16T18:52:13Z</time>
      </trkpt>
      <trkpt lat="46.92873" lon="-0.87062">
        <ele>125.1087646</ele>
        <time>2012-05-16T18:52:19Z</time>
      </trkpt>
      <trkpt lat="46.92864" lon="-0.87041">
        <ele>123.666748</ele>
        <time>2012-05-16T18:52:27Z</time>
      </trkpt>
      <trkpt lat="46.92853" lon="-0.87025">
        <ele>123.1861572</ele>
        <time>2012-05-16T18:52:34Z</time>
      </trkpt>
      <trkpt lat="46.9284" lon="-0.87009">
        <ele>124.1473389</ele>
        <time>2012-05-16T18:52:42Z</time>
      </trkpt>
      <trkpt lat="46.92827" lon="-0.8699">
        <ele>123.1861572</ele>
        <time>2012-05-16T18:52:50Z</time>
      </trkpt>
      <trkpt lat="46.92817" lon="-0.86976">
        <ele>122.7054443</ele>
        <time>2012-05-16T18:52:57Z</time>
      </trkpt>
      <trkpt lat="46.92803" lon="-0.86955">
        <ele>123.666748</ele>
        <time>2012-05-16T18:53:06Z</time>
      </trkpt>
      <trkpt lat="46.92793" lon="-0.86944">
        <ele>124.1473389</ele>
        <time>2012-05-16T18:53:12Z</time>
      </trkpt>
      <trkpt lat="46.92784" lon="-0.86934">
        <ele>124.6280518</ele>
        <time>2012-05-16T18:53:18Z</time>
      </trkpt>
      <trkpt lat="46.92783" lon="-0.86933">
        <ele>124.6280518</ele>
        <time>2012-05-16T18:53:19Z</time>
      </trkpt>
      <trkpt lat="46.92775" lon="-0.86932">
        <ele>125.1087646</ele>
        <time>2012-05-16T18:53:25Z</time>
      </trkpt>
      <trkpt lat="46.92772" lon="-0.8693">
        <ele>125.5893555</ele>
        <time>2012-05-16T18:53:27Z</time>
      </trkpt>
      <trkpt lat="46.9277" lon="-0.8693">
        <ele>126.5506592</ele>
        <time>2012-05-16T18:53:32Z</time>
      </trkpt>
      <trkpt lat="46.92767" lon="-0.86934">
        <ele>127.0313721</ele>
        <time>2012-05-16T18:53:37Z</time>
      </trkpt>
      <trkpt lat="46.9276" lon="-0.86941">
        <ele>127.9925537</ele>
        <time>2012-05-16T18:53:43Z</time>
      </trkpt>
      <trkpt lat="46.92758" lon="-0.86946">
        <ele>127.9925537</ele>
        <time>2012-05-16T18:53:46Z</time>
      </trkpt>
      <trkpt lat="46.92755" lon="-0.86963">
        <ele>129.9152832</ele>
        <time>2012-05-16T18:53:55Z</time>
      </trkpt>
      <trkpt lat="46.92754" lon="-0.86972">
        <ele>131.3572998</ele>
        <time>2012-05-16T18:54:00Z</time>
      </trkpt>
      <trkpt lat="46.92753" lon="-0.86982">
        <ele>132.7993164</ele>
        <time>2012-05-16T18:54:07Z</time>
      </trkpt>
      <trkpt lat="46.92746" lon="-0.86993">
        <ele>133.760498</ele>
        <time>2012-05-16T18:54:14Z</time>
      </trkpt>
      <trkpt lat="46.92746" lon="-0.86999">
        <ele>134.2412109</ele>
        <time>2012-05-16T18:54:17Z</time>
      </trkpt>
      <trkpt lat="46.9274" lon="-0.87012">
        <ele>132.3186035</ele>
        <time>2012-05-16T18:54:24Z</time>
      </trkpt>
      <trkpt lat="46.92738" lon="-0.87023">
        <ele>132.3186035</ele>
        <time>2012-05-16T18:54:30Z</time>
      </trkpt>
      <trkpt lat="46.9274" lon="-0.8703">
        <ele>132.3186035</ele>
        <time>2012-05-16T18:54:34Z</time>
      </trkpt>
      <trkpt lat="46.92739" lon="-0.87042">
        <ele>133.2799072</ele>
        <time>2012-05-16T18:54:39Z</time>
      </trkpt>
      <trkpt lat="46.92738" lon="-0.87049">
        <ele>133.760498</ele>
        <time>2012-05-16T18:54:43Z</time>
      </trkpt>
      <trkpt lat="46.92738" lon="-0.87055">
        <ele>134.7219238</ele>
        <time>2012-05-16T18:54:48Z</time>
      </trkpt>
      <trkpt lat="46.92737" lon="-0.87059">
        <ele>135.6831055</ele>
        <time>2012-05-16T18:54:54Z</time>
      </trkpt>
      <trkpt lat="46.92731" lon="-0.87071">
        <ele>134.7219238</ele>
        <time>2012-05-16T18:55:01Z</time>
      </trkpt>
      <trkpt lat="46.92724" lon="-0.87086">
        <ele>131.3572998</ele>
        <time>2012-05-16T18:55:09Z</time>
      </trkpt>
      <trkpt lat="46.92714" lon="-0.87098">
        <ele>131.3572998</ele>
        <time>2012-05-16T18:55:18Z</time>
      </trkpt>
      <trkpt lat="46.92708" lon="-0.87103">
        <ele>131.3572998</ele>
        <time>2012-05-16T18:55:24Z</time>
      </trkpt>
      <trkpt lat="46.92704" lon="-0.87105">
        <ele>132.7993164</ele>
        <time>2012-05-16T18:55:30Z</time>
      </trkpt>
      <trkpt lat="46.92702" lon="-0.871">
        <ele>133.760498</ele>
        <time>2012-05-16T18:55:35Z</time>
      </trkpt>
      <trkpt lat="46.927" lon="-0.87092">
        <ele>134.7219238</ele>
        <time>2012-05-16T18:55:40Z</time>
      </trkpt>
      <trkpt lat="46.92693" lon="-0.87089">
        <ele>135.6831055</ele>
        <time>2012-05-16T18:55:49Z</time>
      </trkpt>
      <trkpt lat="46.92686" lon="-0.87096">
        <ele>138.5672607</ele>
        <time>2012-05-16T18:55:56Z</time>
      </trkpt>
      <trkpt lat="46.92684" lon="-0.87099">
        <ele>140.0091553</ele>
        <time>2012-05-16T18:55:59Z</time>
      </trkpt>
      <trkpt lat="46.92677" lon="-0.87105">
        <ele>141.9317627</ele>
        <time>2012-05-16T18:56:08Z</time>
      </trkpt>
      <trkpt lat="46.92671" lon="-0.87112">
        <ele>146.2578125</ele>
        <time>2012-05-16T18:56:13Z</time>
      </trkpt>
      <trkpt lat="46.92668" lon="-0.87115">
        <ele>147.2189941</ele>
        <time>2012-05-16T18:56:17Z</time>
      </trkpt>
      <trkpt lat="46.92664" lon="-0.87122">
        <ele>151.5449219</ele>
        <time>2012-05-16T18:56:24Z</time>
      </trkpt>
      <trkpt lat="46.9266" lon="-0.87126">
        <ele>153.4676514</ele>
        <time>2012-05-16T18:56:31Z</time>
      </trkpt>
      <trkpt lat="46.92652" lon="-0.87128">
        <ele>152.0257568</ele>
        <time>2012-05-16T18:56:35Z</time>
      </trkpt>
      <trkpt lat="46.92641" lon="-0.87133">
        <ele>151.5449219</ele>
        <time>2012-05-16T18:56:41Z</time>
      </trkpt>
      <trkpt lat="46.92632" lon="-0.87137">
        <ele>152.9869385</ele>
        <time>2012-05-16T18:56:50Z</time>
      </trkpt>
      <trkpt lat="46.9263" lon="-0.87138">
        <ele>153.9483643</ele>
        <time>2012-05-16T18:56:52Z</time>
      </trkpt>
      <trkpt lat="46.92625" lon="-0.87138">
        <ele>153.4676514</ele>
        <time>2012-05-16T18:57:02Z</time>
      </trkpt>
      <trkpt lat="46.92624" lon="-0.87138">
        <ele>154.4289551</ele>
        <time>2012-05-16T18:57:08Z</time>
      </trkpt>
      <trkpt lat="46.92622" lon="-0.87139">
        <ele>153.9483643</ele>
        <time>2012-05-16T18:57:10Z</time>
      </trkpt>
      <trkpt lat="46.92622" lon="-0.87139">
        <ele>154.4289551</ele>
        <time>2012-05-16T18:57:17Z</time>
      </trkpt>
      <trkpt lat="46.92621" lon="-0.87142">
        <ele>152.5063477</ele>
        <time>2012-05-16T18:57:25Z</time>
      </trkpt>
      <trkpt lat="46.92621" lon="-0.87139">
        <ele>155.3902588</ele>
        <time>2012-05-16T18:57:33Z</time>
      </trkpt>
      <trkpt lat="46.92619" lon="-0.87139">
        <ele>155.3902588</ele>
        <time>2012-05-16T18:57:36Z</time>
      </trkpt>
      <trkpt lat="46.92612" lon="-0.87141">
        <ele>155.3902588</ele>
        <time>2012-05-16T18:57:44Z</time>
      </trkpt>
      <trkpt lat="46.92607" lon="-0.87142">
        <ele>153.9483643</ele>
        <time>2012-05-16T18:57:50Z</time>
      </trkpt>
      <trkpt lat="46.92596" lon="-0.87145">
        <ele>152.0257568</ele>
        <time>2012-05-16T18:57:57Z</time>
      </trkpt>
      <trkpt lat="46.92583" lon="-0.87145">
        <ele>152.9869385</ele>
        <time>2012-05-16T18:58:04Z</time>
      </trkpt>
      <trkpt lat="46.92567" lon="-0.87147">
        <ele>153.9483643</ele>
        <time>2012-05-16T18:58:12Z</time>
      </trkpt>
      <trkpt lat="46.92554" lon="-0.87147">
        <ele>155.8709717</ele>
        <time>2012-05-16T18:58:19Z</time>
      </trkpt>
      <trkpt lat="46.92544" lon="-0.87144">
        <ele>156.3515625</ele>
        <time>2012-05-16T18:58:25Z</time>
      </trkpt>
      <trkpt lat="46.92531" lon="-0.87138">
        <ele>157.3128662</ele>
        <time>2012-05-16T18:58:33Z</time>
      </trkpt>
      <trkpt lat="46.9252" lon="-0.87128">
        <ele>157.7935791</ele>
        <time>2012-05-16T18:58:40Z</time>
      </trkpt>
      <trkpt lat="46.92508" lon="-0.8712">
        <ele>159.2354736</ele>
        <time>2012-05-16T18:58:47Z</time>
      </trkpt>
      <trkpt lat="46.92497" lon="-0.87114">
        <ele>159.7161865</ele>
        <time>2012-05-16T18:58:53Z</time>
      </trkpt>
      <trkpt lat="46.92484" lon="-0.8711">
        <ele>160.6774902</ele>
        <time>2012-05-16T18:59:01Z</time>
      </trkpt>
      <trkpt lat="46.92478" lon="-0.87109">
        <ele>160.6774902</ele>
        <time>2012-05-16T18:59:06Z</time>
      </trkpt>
      <trkpt lat="46.92467" lon="-0.87106">
        <ele>161.1582031</ele>
        <time>2012-05-16T18:59:13Z</time>
      </trkpt>
      <trkpt lat="46.92457" lon="-0.87103">
        <ele>161.638916</ele>
        <time>2012-05-16T18:59:19Z</time>
      </trkpt>
      <trkpt lat="46.92438" lon="-0.87097">
        <ele>162.1195068</ele>
        <time>2012-05-16T18:59:28Z</time>
      </trkpt>
      <trkpt lat="46.92415" lon="-0.8709">
        <ele>162.6000977</ele>
        <time>2012-05-16T18:59:36Z</time>
      </trkpt>
      <trkpt lat="46.9239" lon="-0.87084">
        <ele>161.638916</ele>
        <time>2012-05-16T18:59:43Z</time>
      </trkpt>
      <trkpt lat="46.92368" lon="-0.87098">
        <ele>161.1582031</ele>
        <time>2012-05-16T18:59:50Z</time>
      </trkpt>
      <trkpt lat="46.92354" lon="-0.87109">
        <ele>161.1582031</ele>
        <time>2012-05-16T18:59:55Z</time>
      </trkpt>
      <trkpt lat="46.92338" lon="-0.8712">
        <ele>162.6000977</ele>
        <time>2012-05-16T19:00:01Z</time>
      </trkpt>
      <trkpt lat="46.92318" lon="-0.87131">
        <ele>162.6000977</ele>
        <time>2012-05-16T19:00:07Z</time>
      </trkpt>
      <trkpt lat="46.92286" lon="-0.87144">
        <ele>164.0421143</ele>
        <time>2012-05-16T19:00:16Z</time>
      </trkpt>
      <trkpt lat="46.9226" lon="-0.87156">
        <ele>163.5615234</ele>
        <time>2012-05-16T19:00:23Z</time>
      </trkpt>
      <trkpt lat="46.9224" lon="-0.87167">
        <ele>163.0808105</ele>
        <time>2012-05-16T19:00:29Z</time>
      </trkpt>
      <trkpt lat="46.92221" lon="-0.87169">
        <ele>164.0421143</ele>
        <time>2012-05-16T19:00:35Z</time>
      </trkpt>
      <trkpt lat="46.92205" lon="-0.87163">
        <ele>163.0808105</ele>
        <time>2012-05-16T19:00:41Z</time>
      </trkpt>
      <trkpt lat="46.92186" lon="-0.87154">
        <ele>159.7161865</ele>
        <time>2012-05-16T19:00:46Z</time>
      </trkpt>
      <trkpt lat="46.9217" lon="-0.87146">
        <ele>158.7547607</ele>
        <time>2012-05-16T19:00:50Z</time>
      </trkpt>
      <trkpt lat="46.92149" lon="-0.87135">
        <ele>157.3128662</ele>
        <time>2012-05-16T19:00:55Z</time>
      </trkpt>
      <trkpt lat="46.92142" lon="-0.87131">
        <ele>156.8321533</ele>
        <time>2012-05-16T19:00:57Z</time>
      </trkpt>
      <trkpt lat="46.92138" lon="-0.87129">
        <ele>156.8321533</ele>
        <time>2012-05-16T19:00:58Z</time>
      </trkpt>
      <trkpt lat="46.92104" lon="-0.87114">
        <ele>157.7935791</ele>
        <time>2012-05-16T19:01:07Z</time>
      </trkpt>
      <trkpt lat="46.92078" lon="-0.87104">
        <ele>158.2741699</ele>
        <time>2012-05-16T19:01:15Z</time>
      </trkpt>
      <trkpt lat="46.92057" lon="-0.87098">
        <ele>158.2741699</ele>
        <time>2012-05-16T19:01:22Z</time>
      </trkpt>
      <trkpt lat="46.92056" lon="-0.87098">
        <ele>158.2741699</ele>
        <time>2012-05-16T19:01:23Z</time>
      </trkpt>
      <trkpt lat="46.92052" lon="-0.87101">
        <ele>158.7547607</ele>
        <time>2012-05-16T19:01:28Z</time>
      </trkpt>
      <trkpt lat="46.92042" lon="-0.87101">
        <ele>158.7547607</ele>
        <time>2012-05-16T19:01:32Z</time>
      </trkpt>
      <trkpt lat="46.92018" lon="-0.87095">
        <ele>157.7935791</ele>
        <time>2012-05-16T19:01:37Z</time>
      </trkpt>
      <trkpt lat="46.9199" lon="-0.87066">
        <ele>155.3902588</ele>
        <time>2012-05-16T19:01:42Z</time>
      </trkpt>
      <trkpt lat="46.91957" lon="-0.87031">
        <ele>154.4289551</ele>
        <time>2012-05-16T19:01:48Z</time>
      </trkpt>
      <trkpt lat="46.91947" lon="-0.87003">
        <ele>154.9095459</ele>
        <time>2012-05-16T19:01:52Z</time>
      </trkpt>
      <trkpt lat="46.91951" lon="-0.86974">
        <ele>155.8709717</ele>
        <time>2012-05-16T19:01:56Z</time>
      </trkpt>
      <trkpt lat="46.9196" lon="-0.86942">
        <ele>157.7935791</ele>
        <time>2012-05-16T19:02:02Z</time>
      </trkpt>
      <trkpt lat="46.91965" lon="-0.86897">
        <ele>160.1968994</ele>
        <time>2012-05-16T19:02:10Z</time>
      </trkpt>
      <trkpt lat="46.91963" lon="-0.86877">
        <ele>161.1582031</ele>
        <time>2012-05-16T19:02:14Z</time>
      </trkpt>
      <trkpt lat="46.91961" lon="-0.86858">
        <ele>162.1195068</ele>
        <time>2012-05-16T19:02:18Z</time>
      </trkpt>
      <trkpt lat="46.91961" lon="-0.86854">
        <ele>162.1195068</ele>
        <time>2012-05-16T19:02:19Z</time>
      </trkpt>
      <trkpt lat="46.91955" lon="-0.86818">
        <ele>165.003418</ele>
        <time>2012-05-16T19:02:28Z</time>
      </trkpt>
      <trkpt lat="46.91949" lon="-0.86784">
        <ele>168.368042</ele>
        <time>2012-05-16T19:02:37Z</time>
      </trkpt>
      <trkpt lat="46.91944" lon="-0.86751">
        <ele>170.7713623</ele>
        <time>2012-05-16T19:02:45Z</time>
      </trkpt>
      <trkpt lat="46.91939" lon="-0.86717">
        <ele>173.1746826</ele>
        <time>2012-05-16T19:02:53Z</time>
      </trkpt>
      <trkpt lat="46.91934" lon="-0.86687">
        <ele>175.09729</ele>
        <time>2012-05-16T19:03:01Z</time>
      </trkpt>
      <trkpt lat="46.9193" lon="-0.86657">
        <ele>176.5393066</ele>
        <time>2012-05-16T19:03:10Z</time>
      </trkpt>
      <trkpt lat="46.91929" lon="-0.86652">
        <ele>176.5393066</ele>
        <time>2012-05-16T19:03:12Z</time>
      </trkpt>
      <trkpt lat="46.91936" lon="-0.86647">
        <ele>177.0200195</ele>
        <time>2012-05-16T19:03:17Z</time>
      </trkpt>
      <trkpt lat="46.9194" lon="-0.86647">
        <ele>177.9812012</ele>
        <time>2012-05-16T19:03:22Z</time>
      </trkpt>
      <trkpt lat="46.9194" lon="-0.86647">
        <ele>177.9812012</ele>
        <time>2012-05-16T19:03:31Z</time>
      </trkpt>
      <trkpt lat="46.9194" lon="-0.86648">
        <ele>178.4619141</ele>
        <time>2012-05-16T19:03:39Z</time>
      </trkpt>
      <trkpt lat="46.9194" lon="-0.86648">
        <ele>178.4619141</ele>
        <time>2012-05-16T19:03:40Z</time>
      </trkpt>
      <trkpt lat="46.91945" lon="-0.86649">
        <ele>178.4619141</ele>
        <time>2012-05-16T19:03:44Z</time>
      </trkpt>
      <trkpt lat="46.91957" lon="-0.86651">
        <ele>179.4232178</ele>
        <time>2012-05-16T19:03:50Z</time>
      </trkpt>
      <trkpt lat="46.91972" lon="-0.86652">
        <ele>179.9038086</ele>
        <time>2012-05-16T19:03:56Z</time>
      </trkpt>
      <trkpt lat="46.91986" lon="-0.86652">
        <ele>180.8652344</ele>
        <time>2012-05-16T19:04:02Z</time>
      </trkpt>
      <trkpt lat="46.92006" lon="-0.86653">
        <ele>181.3458252</ele>
        <time>2012-05-16T19:04:10Z</time>
      </trkpt>
      <trkpt lat="46.92018" lon="-0.86653">
        <ele>181.826416</ele>
        <time>2012-05-16T19:04:16Z</time>
      </trkpt>
      <trkpt lat="46.92018" lon="-0.86653">
        <ele>181.826416</ele>
        <time>2012-05-16T19:04:17Z</time>
      </trkpt>
      <trkpt lat="46.92022" lon="-0.86653">
        <ele>181.3458252</ele>
        <time>2012-05-16T19:04:23Z</time>
      </trkpt>
      <trkpt lat="46.92025" lon="-0.86653">
        <ele>181.3458252</ele>
        <time>2012-05-16T19:04:30Z</time>
      </trkpt>
      <trkpt lat="46.92028" lon="-0.86652">
        <ele>181.3458252</ele>
        <time>2012-05-16T19:04:36Z</time>
      </trkpt>
      <trkpt lat="46.92034" lon="-0.86655">
        <ele>180.8652344</ele>
        <time>2012-05-16T19:04:41Z</time>
      </trkpt>
      <trkpt lat="46.92052" lon="-0.86659">
        <ele>180.3845215</ele>
        <time>2012-05-16T19:04:47Z</time>
      </trkpt>
      <trkpt lat="46.92075" lon="-0.86665">
        <ele>180.3845215</ele>
        <time>2012-05-16T19:04:54Z</time>
      </trkpt>
      <trkpt lat="46.92089" lon="-0.86667">
        <ele>180.8652344</ele>
        <time>2012-05-16T19:04:59Z</time>
      </trkpt>
      <trkpt lat="46.92103" lon="-0.86669">
        <ele>181.3458252</ele>
        <time>2012-05-16T19:05:04Z</time>
      </trkpt>
      <trkpt lat="46.92121" lon="-0.8667">
        <ele>183.7490234</ele>
        <time>2012-05-16T19:05:11Z</time>
      </trkpt>
      <trkpt lat="46.9213" lon="-0.8667">
        <ele>184.2298584</ele>
        <time>2012-05-16T19:05:15Z</time>
      </trkpt>
      <trkpt lat="46.92145" lon="-0.86671">
        <ele>184.2298584</ele>
        <time>2012-05-16T19:05:21Z</time>
      </trkpt>
      <trkpt lat="46.92164" lon="-0.86669">
        <ele>184.7105713</ele>
        <time>2012-05-16T19:05:28Z</time>
      </trkpt>
      <trkpt lat="46.92176" lon="-0.86666">
        <ele>185.1911621</ele>
        <time>2012-05-16T19:05:33Z</time>
      </trkpt>
      <trkpt lat="46.92191" lon="-0.86662">
        <ele>186.1524658</ele>
        <time>2012-05-16T19:05:39Z</time>
      </trkpt>
      <trkpt lat="46.92206" lon="-0.86653">
        <ele>187.5943604</ele>
        <time>2012-05-16T19:05:46Z</time>
      </trkpt>
      <trkpt lat="46.92217" lon="-0.86647">
        <ele>188.0750732</ele>
        <time>2012-05-16T19:05:52Z</time>
      </trkpt>
      <trkpt lat="46.92233" lon="-0.86637">
        <ele>188.5557861</ele>
        <time>2012-05-16T19:05:59Z</time>
      </trkpt>
      <trkpt lat="46.9225" lon="-0.86626">
        <ele>188.5557861</ele>
        <time>2012-05-16T19:06:07Z</time>
      </trkpt>
      <trkpt lat="46.92266" lon="-0.86618">
        <ele>188.5557861</ele>
        <time>2012-05-16T19:06:13Z</time>
      </trkpt>
      <trkpt lat="46.92286" lon="-0.86612">
        <ele>189.036377</ele>
        <time>2012-05-16T19:06:21Z</time>
      </trkpt>
      <trkpt lat="46.92308" lon="-0.86607">
        <ele>189.9976807</ele>
        <time>2012-05-16T19:06:29Z</time>
      </trkpt>
      <trkpt lat="46.92327" lon="-0.86599">
        <ele>190.4783936</ele>
        <time>2012-05-16T19:06:36Z</time>
      </trkpt>
      <trkpt lat="46.92346" lon="-0.86588">
        <ele>190.4783936</ele>
        <time>2012-05-16T19:06:43Z</time>
      </trkpt>
      <trkpt lat="46.92359" lon="-0.86587">
        <ele>189.9976807</ele>
        <time>2012-05-16T19:06:47Z</time>
      </trkpt>
      <trkpt lat="46.92369" lon="-0.86602">
        <ele>189.036377</ele>
        <time>2012-05-16T19:06:51Z</time>
      </trkpt>
      <trkpt lat="46.92384" lon="-0.8662">
        <ele>187.5943604</ele>
        <time>2012-05-16T19:06:56Z</time>
      </trkpt>
      <trkpt lat="46.92396" lon="-0.86628">
        <ele>186.1524658</ele>
        <time>2012-05-16T19:07:00Z</time>
      </trkpt>
      <trkpt lat="46.92406" lon="-0.86632">
        <ele>185.6717529</ele>
        <time>2012-05-16T19:07:03Z</time>
      </trkpt>
      <trkpt lat="46.92428" lon="-0.86635">
        <ele>184.7105713</ele>
        <time>2012-05-16T19:07:08Z</time>
      </trkpt>
      <trkpt lat="46.92455" lon="-0.86632">
        <ele>181.826416</ele>
        <time>2012-05-16T19:07:14Z</time>
      </trkpt>
      <trkpt lat="46.92474" lon="-0.86632">
        <ele>179.9038086</ele>
        <time>2012-05-16T19:07:17Z</time>
      </trkpt>
      <trkpt lat="46.92517" lon="-0.86637">
        <ele>177.0200195</ele>
        <time>2012-05-16T19:07:22Z</time>
      </trkpt>
      <trkpt lat="46.92534" lon="-0.86638">
        <ele>176.0585938</ele>
        <time>2012-05-16T19:07:24Z</time>
      </trkpt>
      <trkpt lat="46.92567" lon="-0.86626">
        <ele>175.5778809</ele>
        <time>2012-05-16T19:07:29Z</time>
      </trkpt>
      <trkpt lat="46.92593" lon="-0.86622">
        <ele>174.6165771</ele>
        <time>2012-05-16T19:07:33Z</time>
      </trkpt>
      <trkpt lat="46.92635" lon="-0.86614">
        <ele>172.2132568</ele>
        <time>2012-05-16T19:07:39Z</time>
      </trkpt>
      <trkpt lat="46.92657" lon="-0.86607">
        <ele>169.8100586</ele>
        <time>2012-05-16T19:07:42Z</time>
      </trkpt>
      <trkpt lat="46.92685" lon="-0.8658">
        <ele>167.8873291</ele>
        <time>2012-05-16T19:07:47Z</time>
      </trkpt>
      <trkpt lat="46.92693" lon="-0.86572">
        <ele>167.8873291</ele>
        <time>2012-05-16T19:07:49Z</time>
      </trkpt>
      <trkpt lat="46.92699" lon="-0.86569">
        <ele>167.4067383</ele>
        <time>2012-05-16T19:07:53Z</time>
      </trkpt>
      <trkpt lat="46.92699" lon="-0.86568">
        <ele>169.3294678</ele>
        <time>2012-05-16T19:07:58Z</time>
      </trkpt>
      <trkpt lat="46.92699" lon="-0.86569">
        <ele>169.3294678</ele>
        <time>2012-05-16T19:08:03Z</time>
      </trkpt>
      <trkpt lat="46.927" lon="-0.86569">
        <ele>169.8100586</ele>
        <time>2012-05-16T19:08:07Z</time>
      </trkpt>
      <trkpt lat="46.92703" lon="-0.8657">
        <ele>169.3294678</ele>
        <time>2012-05-16T19:08:11Z</time>
      </trkpt>
      <trkpt lat="46.92718" lon="-0.86569">
        <ele>168.368042</ele>
        <time>2012-05-16T19:08:15Z</time>
      </trkpt>
      <trkpt lat="46.92737" lon="-0.86577">
        <ele>165.4841309</ele>
        <time>2012-05-16T19:08:18Z</time>
      </trkpt>
      <trkpt lat="46.92742" lon="-0.86582">
        <ele>164.5227051</ele>
        <time>2012-05-16T19:08:19Z</time>
      </trkpt>
      <trkpt lat="46.92766" lon="-0.86585">
        <ele>161.1582031</ele>
        <time>2012-05-16T19:08:23Z</time>
      </trkpt>
      <trkpt lat="46.92772" lon="-0.86587">
        <ele>160.1968994</ele>
        <time>2012-05-16T19:08:24Z</time>
      </trkpt>
      <trkpt lat="46.92792" lon="-0.86602">
        <ele>153.4676514</ele>
        <time>2012-05-16T19:08:28Z</time>
      </trkpt>
      <trkpt lat="46.92804" lon="-0.86599">
        <ele>147.2189941</ele>
        <time>2012-05-16T19:08:32Z</time>
      </trkpt>
      <trkpt lat="46.92819" lon="-0.86571">
        <ele>140.970459</ele>
        <time>2012-05-16T19:08:38Z</time>
      </trkpt>
      <trkpt lat="46.92834" lon="-0.86556">
        <ele>139.0478516</ele>
        <time>2012-05-16T19:08:42Z</time>
      </trkpt>
      <trkpt lat="46.92841" lon="-0.86549">
        <ele>137.605835</ele>
        <time>2012-05-16T19:08:44Z</time>
      </trkpt>
      <trkpt lat="46.92849" lon="-0.86543">
        <ele>135.6831055</ele>
        <time>2012-05-16T19:08:46Z</time>
      </trkpt>
      <trkpt lat="46.92856" lon="-0.86537">
        <ele>133.760498</ele>
        <time>2012-05-16T19:08:48Z</time>
      </trkpt>
      <trkpt lat="46.92874" lon="-0.86527">
        <ele>130.876709</ele>
        <time>2012-05-16T19:08:53Z</time>
      </trkpt>
      <trkpt lat="46.9289" lon="-0.86536">
        <ele>128.9541016</ele>
        <time>2012-05-16T19:08:57Z</time>
      </trkpt>
      <trkpt lat="46.92929" lon="-0.86571">
        <ele>126.0699463</ele>
        <time>2012-05-16T19:09:06Z</time>
      </trkpt>
      <trkpt lat="46.92933" lon="-0.86575">
        <ele>126.0699463</ele>
        <time>2012-05-16T19:09:07Z</time>
      </trkpt>
      <trkpt lat="46.92948" lon="-0.86589">
        <ele>125.5893555</ele>
        <time>2012-05-16T19:09:12Z</time>
      </trkpt>
      <trkpt lat="46.92957" lon="-0.86596">
        <ele>125.5893555</ele>
        <time>2012-05-16T19:09:17Z</time>
      </trkpt>
      <trkpt lat="46.9296" lon="-0.86599">
        <ele>126.0699463</ele>
        <time>2012-05-16T19:09:24Z</time>
      </trkpt>
      <trkpt lat="46.92961" lon="-0.866">
        <ele>125.5893555</ele>
        <time>2012-05-16T19:09:30Z</time>
      </trkpt>
      <trkpt lat="46.92968" lon="-0.86607">
        <ele>124.6280518</ele>
        <time>2012-05-16T19:09:36Z</time>
      </trkpt>
      <trkpt lat="46.92971" lon="-0.8661">
        <ele>124.1473389</ele>
        <time>2012-05-16T19:09:42Z</time>
      </trkpt>
      <trkpt lat="46.92976" lon="-0.86613">
        <ele>123.666748</ele>
        <time>2012-05-16T19:09:49Z</time>
      </trkpt>
      <trkpt lat="46.92984" lon="-0.86609">
        <ele>124.6280518</ele>
        <time>2012-05-16T19:09:54Z</time>
      </trkpt>
      <trkpt lat="46.92999" lon="-0.86601">
        <ele>126.0699463</ele>
        <time>2012-05-16T19:10:02Z</time>
      </trkpt>
      <trkpt lat="46.93003" lon="-0.86599">
        <ele>126.5506592</ele>
        <time>2012-05-16T19:10:04Z</time>
      </trkpt>
      <trkpt lat="46.93019" lon="-0.86589">
        <ele>127.5119629</ele>
        <time>2012-05-16T19:10:11Z</time>
      </trkpt>
      <trkpt lat="46.93029" lon="-0.86584">
        <ele>127.9925537</ele>
        <time>2012-05-16T19:10:16Z</time>
      </trkpt>
      <trkpt lat="46.93044" lon="-0.86576">
        <ele>128.9541016</ele>
        <time>2012-05-16T19:10:24Z</time>
      </trkpt>
      <trkpt lat="46.93053" lon="-0.8657">
        <ele>128.9541016</ele>
        <time>2012-05-16T19:10:31Z</time>
      </trkpt>
      <trkpt lat="46.93054" lon="-0.86569">
        <ele>129.4346924</ele>
        <time>2012-05-16T19:10:33Z</time>
      </trkpt>
      <trkpt lat="46.93056" lon="-0.86567">
        <ele>129.4346924</ele>
        <time>2012-05-16T19:10:40Z</time>
      </trkpt>
      <trkpt lat="46.93058" lon="-0.86567">
        <ele>128.9541016</ele>
        <time>2012-05-16T19:10:45Z</time>
      </trkpt>
      <trkpt lat="46.93059" lon="-0.86566">
        <ele>128.9541016</ele>
        <time>2012-05-16T19:10:46Z</time>
      </trkpt>
      <trkpt lat="46.93064" lon="-0.86576">
        <ele>128.4733887</ele>
        <time>2012-05-16T19:10:50Z</time>
      </trkpt>
      <trkpt lat="46.93075" lon="-0.86611">
        <ele>127.5119629</ele>
        <time>2012-05-16T19:10:58Z</time>
      </trkpt>
      <trkpt lat="46.93086" lon="-0.86642">
        <ele>128.4733887</ele>
        <time>2012-05-16T19:11:05Z</time>
      </trkpt>
      <trkpt lat="46.93094" lon="-0.86662">
        <ele>128.9541016</ele>
        <time>2012-05-16T19:11:10Z</time>
      </trkpt>
      <trkpt lat="46.93104" lon="-0.86697">
        <ele>127.9925537</ele>
        <time>2012-05-16T19:11:18Z</time>
      </trkpt>
      <trkpt lat="46.93115" lon="-0.86735">
        <ele>127.5119629</ele>
        <time>2012-05-16T19:11:26Z</time>
      </trkpt>
      <trkpt lat="46.93121" lon="-0.86752">
        <ele>128.4733887</ele>
        <time>2012-05-16T19:11:31Z</time>
      </trkpt>
      <trkpt lat="46.93122" lon="-0.86753">
        <ele>128.4733887</ele>
        <time>2012-05-16T19:11:32Z</time>
      </trkpt>
      <trkpt lat="46.93124" lon="-0.86756">
        <ele>129.4346924</ele>
        <time>2012-05-16T19:11:37Z</time>
      </trkpt>
      <trkpt lat="46.93125" lon="-0.86756">
        <ele>130.3959961</ele>
        <time>2012-05-16T19:11:45Z</time>
      </trkpt>
      <trkpt lat="46.93126" lon="-0.86761">
        <ele>131.3572998</ele>
        <time>2012-05-16T19:11:54Z</time>
      </trkpt>
      <trkpt lat="46.9313" lon="-0.8677">
        <ele>130.876709</ele>
        <time>2012-05-16T19:12:00Z</time>
      </trkpt>
      <trkpt lat="46.93136" lon="-0.86783">
        <ele>128.4733887</ele>
        <time>2012-05-16T19:12:07Z</time>
      </trkpt>
      <trkpt lat="46.93131" lon="-0.86792">
        <ele>125.5893555</ele>
        <time>2012-05-16T19:12:12Z</time>
      </trkpt>
      <trkpt lat="46.9313" lon="-0.86802">
        <ele>125.5893555</ele>
        <time>2012-05-16T19:12:15Z</time>
      </trkpt>
      <trkpt lat="46.93136" lon="-0.86818">
        <ele>123.666748</ele>
        <time>2012-05-16T19:12:21Z</time>
      </trkpt>
      <trkpt lat="46.93138" lon="-0.86824">
        <ele>124.6280518</ele>
        <time>2012-05-16T19:12:24Z</time>
      </trkpt>
      <trkpt lat="46.93141" lon="-0.86828">
        <ele>124.1473389</ele>
        <time>2012-05-16T19:12:26Z</time>
      </trkpt>
      <trkpt lat="46.93148" lon="-0.86829">
        <ele>126.0699463</ele>
        <time>2012-05-16T19:12:32Z</time>
      </trkpt>
      <trkpt lat="46.93153" lon="-0.86829">
        <ele>127.0313721</ele>
        <time>2012-05-16T19:12:35Z</time>
      </trkpt>
      <trkpt lat="46.93162" lon="-0.86829">
        <ele>128.4733887</ele>
        <time>2012-05-16T19:12:39Z</time>
      </trkpt>
      <trkpt lat="46.93169" lon="-0.8683">
        <ele>129.9152832</ele>
        <time>2012-05-16T19:12:43Z</time>
      </trkpt>
      <trkpt lat="46.9318" lon="-0.86835">
        <ele>133.760498</ele>
        <time>2012-05-16T19:12:48Z</time>
      </trkpt>
      <trkpt lat="46.93203" lon="-0.86848">
        <ele>133.2799072</ele>
        <time>2012-05-16T19:12:55Z</time>
      </trkpt>
      <trkpt lat="46.93216" lon="-0.86857">
        <ele>131.8378906</ele>
        <time>2012-05-16T19:12:57Z</time>
      </trkpt>
      <trkpt lat="46.93258" lon="-0.86863">
        <ele>130.876709</ele>
        <time>2012-05-16T19:13:01Z</time>
      </trkpt>
      <trkpt lat="46.93288" lon="-0.86861">
        <ele>127.5119629</ele>
        <time>2012-05-16T19:13:05Z</time>
      </trkpt>
      <trkpt lat="46.93306" lon="-0.86864">
        <ele>127.0313721</ele>
        <time>2012-05-16T19:13:08Z</time>
      </trkpt>
      <trkpt lat="46.93337" lon="-0.86863">
        <ele>122.7054443</ele>
        <time>2012-05-16T19:13:14Z</time>
      </trkpt>
      <trkpt lat="46.93351" lon="-0.86858">
        <ele>123.666748</ele>
        <time>2012-05-16T19:13:17Z</time>
      </trkpt>
      <trkpt lat="46.93372" lon="-0.86841">
        <ele>125.5893555</ele>
        <time>2012-05-16T19:13:22Z</time>
      </trkpt>
      <trkpt lat="46.93375" lon="-0.86838">
        <ele>126.0699463</ele>
        <time>2012-05-16T19:13:23Z</time>
      </trkpt>
      <trkpt lat="46.93389" lon="-0.86823">
        <ele>128.9541016</ele>
        <time>2012-05-16T19:13:28Z</time>
      </trkpt>
      <trkpt lat="46.93402" lon="-0.86802">
        <ele>132.3186035</ele>
        <time>2012-05-16T19:13:34Z</time>
      </trkpt>
      <trkpt lat="46.9341" lon="-0.8678">
        <ele>134.7219238</ele>
        <time>2012-05-16T19:13:41Z</time>
      </trkpt>
      <trkpt lat="46.93417" lon="-0.86755">
        <ele>136.6446533</ele>
        <time>2012-05-16T19:13:49Z</time>
      </trkpt>
      <trkpt lat="46.93424" lon="-0.86738">
        <ele>137.1252441</ele>
        <time>2012-05-16T19:13:55Z</time>
      </trkpt>
      <trkpt lat="46.93429" lon="-0.86715">
        <ele>138.0865479</ele>
        <time>2012-05-16T19:14:03Z</time>
      </trkpt>
      <trkpt lat="46.93435" lon="-0.86691">
        <ele>139.5284424</ele>
        <time>2012-05-16T19:14:12Z</time>
      </trkpt>
      <trkpt lat="46.93441" lon="-0.86666">
        <ele>141.4510498</ele>
        <time>2012-05-16T19:14:21Z</time>
      </trkpt>
      <trkpt lat="46.93448" lon="-0.86638">
        <ele>144.3352051</ele>
        <time>2012-05-16T19:14:31Z</time>
      </trkpt>
      <trkpt lat="46.93455" lon="-0.86612">
        <ele>147.2189941</ele>
        <time>2012-05-16T19:14:41Z</time>
      </trkpt>
      <trkpt lat="46.93459" lon="-0.86589">
        <ele>149.1416016</ele>
        <time>2012-05-16T19:14:49Z</time>
      </trkpt>
      <trkpt lat="46.93458" lon="-0.86573">
        <ele>151.064209</ele>
        <time>2012-05-16T19:14:55Z</time>
      </trkpt>
      <trkpt lat="46.9345" lon="-0.8656">
        <ele>152.5063477</ele>
        <time>2012-05-16T19:15:01Z</time>
      </trkpt>
      <trkpt lat="46.93436" lon="-0.86555">
        <ele>154.4289551</ele>
        <time>2012-05-16T19:15:08Z</time>
      </trkpt>
      <trkpt lat="46.93423" lon="-0.86549">
        <ele>155.8709717</ele>
        <time>2012-05-16T19:15:15Z</time>
      </trkpt>
      <trkpt lat="46.93415" lon="-0.86538">
        <ele>155.8709717</ele>
        <time>2012-05-16T19:15:21Z</time>
      </trkpt>
      <trkpt lat="46.934" lon="-0.86518">
        <ele>155.3902588</ele>
        <time>2012-05-16T19:15:30Z</time>
      </trkpt>
      <trkpt lat="46.93385" lon="-0.86497">
        <ele>157.3128662</ele>
        <time>2012-05-16T19:15:38Z</time>
      </trkpt>
      <trkpt lat="46.9337" lon="-0.86468">
        <ele>159.2354736</ele>
        <time>2012-05-16T19:15:47Z</time>
      </trkpt>
      <trkpt lat="46.93362" lon="-0.86439">
        <ele>160.1968994</ele>
        <time>2012-05-16T19:15:55Z</time>
      </trkpt>
      <trkpt lat="46.93362" lon="-0.86421">
        <ele>161.1582031</ele>
        <time>2012-05-16T19:16:01Z</time>
      </trkpt>
      <trkpt lat="46.93362" lon="-0.86408">
        <ele>162.1195068</ele>
        <time>2012-05-16T19:16:08Z</time>
      </trkpt>
      <trkpt lat="46.93362" lon="-0.86407">
        <ele>163.0808105</ele>
        <time>2012-05-16T19:16:14Z</time>
      </trkpt>
      <trkpt lat="46.93362" lon="-0.86407">
        <ele>163.5615234</ele>
        <time>2012-05-16T19:16:20Z</time>
      </trkpt>
      <trkpt lat="46.93362" lon="-0.86406">
        <ele>164.5227051</ele>
        <time>2012-05-16T19:16:27Z</time>
      </trkpt>
      <trkpt lat="46.93361" lon="-0.86406">
        <ele>165.003418</ele>
        <time>2012-05-16T19:16:37Z</time>
      </trkpt>
      <trkpt lat="46.93361" lon="-0.86405">
        <ele>165.003418</ele>
        <time>2012-05-16T19:16:41Z</time>
      </trkpt>
      <trkpt lat="46.93362" lon="-0.86395">
        <ele>165.003418</ele>
        <time>2012-05-16T19:16:47Z</time>
      </trkpt>
      <trkpt lat="46.93363" lon="-0.86379">
        <ele>164.5227051</ele>
        <time>2012-05-16T19:16:52Z</time>
      </trkpt>
      <trkpt lat="46.93363" lon="-0.86362">
        <ele>164.5227051</ele>
        <time>2012-05-16T19:16:57Z</time>
      </trkpt>
      <trkpt lat="46.93365" lon="-0.86333">
        <ele>164.0421143</ele>
        <time>2012-05-16T19:17:03Z</time>
      </trkpt>
      <trkpt lat="46.93374" lon="-0.86302">
        <ele>165.9647217</ele>
        <time>2012-05-16T19:17:10Z</time>
      </trkpt>
      <trkpt lat="46.93388" lon="-0.86266">
        <ele>166.9260254</ele>
        <time>2012-05-16T19:17:19Z</time>
      </trkpt>
      <trkpt lat="46.93402" lon="-0.86232">
        <ele>168.368042</ele>
        <time>2012-05-16T19:17:28Z</time>
      </trkpt>
      <trkpt lat="46.93414" lon="-0.86204">
        <ele>169.3294678</ele>
        <time>2012-05-16T19:17:36Z</time>
      </trkpt>
      <trkpt lat="46.93428" lon="-0.86171">
        <ele>170.2906494</ele>
        <time>2012-05-16T19:17:45Z</time>
      </trkpt>
      <trkpt lat="46.93443" lon="-0.86143">
        <ele>170.7713623</ele>
        <time>2012-05-16T19:17:53Z</time>
      </trkpt>
      <trkpt lat="46.93462" lon="-0.8612">
        <ele>171.2520752</ele>
        <time>2012-05-16T19:18:01Z</time>
      </trkpt>
      <trkpt lat="46.93494" lon="-0.86092">
        <ele>172.2132568</ele>
        <time>2012-05-16T19:18:12Z</time>
      </trkpt>
      <trkpt lat="46.93525" lon="-0.86069">
        <ele>173.1746826</ele>
        <time>2012-05-16T19:18:22Z</time>
      </trkpt>
      <trkpt lat="46.93549" lon="-0.86052">
        <ele>173.1746826</ele>
        <time>2012-05-16T19:18:30Z</time>
      </trkpt>
      <trkpt lat="46.93575" lon="-0.86038">
        <ele>173.1746826</ele>
        <time>2012-05-16T19:18:38Z</time>
      </trkpt>
      <trkpt lat="46.93599" lon="-0.86018">
        <ele>174.1358643</ele>
        <time>2012-05-16T19:18:46Z</time>
      </trkpt>
      <trkpt lat="46.93605" lon="-0.86">
        <ele>173.6552734</ele>
        <time>2012-05-16T19:18:50Z</time>
      </trkpt>
      <trkpt lat="46.93605" lon="-0.85969">
        <ele>172.2132568</ele>
        <time>2012-05-16T19:18:56Z</time>
      </trkpt>
      <trkpt lat="46.93615" lon="-0.8596">
        <ele>172.2132568</ele>
        <time>2012-05-16T19:19:00Z</time>
      </trkpt>
      <trkpt lat="46.93618" lon="-0.85962">
        <ele>172.2132568</ele>
        <time>2012-05-16T19:19:01Z</time>
      </trkpt>
      <trkpt lat="46.93651" lon="-0.85978">
        <ele>173.1746826</ele>
        <time>2012-05-16T19:19:11Z</time>
      </trkpt>
      <trkpt lat="46.9368" lon="-0.85997">
        <ele>172.2132568</ele>
        <time>2012-05-16T19:19:19Z</time>
      </trkpt>
      <trkpt lat="46.93695" lon="-0.85984">
        <ele>172.2132568</ele>
        <time>2012-05-16T19:19:23Z</time>
      </trkpt>
      <trkpt lat="46.93697" lon="-0.85978">
        <ele>172.2132568</ele>
        <time>2012-05-16T19:19:24Z</time>
      </trkpt>
      <trkpt lat="46.93711" lon="-0.85926">
        <ele>173.1746826</ele>
        <time>2012-05-16T19:19:33Z</time>
      </trkpt>
      <trkpt lat="46.93722" lon="-0.85886">
        <ele>174.1358643</ele>
        <time>2012-05-16T19:19:40Z</time>
      </trkpt>
      <trkpt lat="46.93739" lon="-0.85857">
        <ele>175.09729</ele>
        <time>2012-05-16T19:19:46Z</time>
      </trkpt>
      <trkpt lat="46.93752" lon="-0.85849">
        <ele>175.5778809</ele>
        <time>2012-05-16T19:19:49Z</time>
      </trkpt>
      <trkpt lat="46.93766" lon="-0.85846">
        <ele>175.09729</ele>
        <time>2012-05-16T19:19:52Z</time>
      </trkpt>
      <trkpt lat="46.93792" lon="-0.85842">
        <ele>173.6552734</ele>
        <time>2012-05-16T19:19:57Z</time>
      </trkpt>
      <trkpt lat="46.93841" lon="-0.85833">
        <ele>170.7713623</ele>
        <time>2012-05-16T19:20:04Z</time>
      </trkpt>
      <trkpt lat="46.93849" lon="-0.8583">
        <ele>170.2906494</ele>
        <time>2012-05-16T19:20:05Z</time>
      </trkpt>
      <trkpt lat="46.93885" lon="-0.85805">
        <ele>168.8487549</ele>
        <time>2012-05-16T19:20:10Z</time>
      </trkpt>
      <trkpt lat="46.93927" lon="-0.85765">
        <ele>169.8100586</ele>
        <time>2012-05-16T19:20:17Z</time>
      </trkpt>
      <trkpt lat="46.93947" lon="-0.85742">
        <ele>171.732666</ele>
        <time>2012-05-16T19:20:22Z</time>
      </trkpt>
      <trkpt lat="46.93956" lon="-0.85715">
        <ele>173.6552734</ele>
        <time>2012-05-16T19:20:27Z</time>
      </trkpt>
      <trkpt lat="46.93956" lon="-0.8571">
        <ele>173.6552734</ele>
        <time>2012-05-16T19:20:28Z</time>
      </trkpt>
      <trkpt lat="46.9395" lon="-0.85676">
        <ele>175.09729</ele>
        <time>2012-05-16T19:20:34Z</time>
      </trkpt>
      <trkpt lat="46.93946" lon="-0.85664">
        <ele>175.5778809</ele>
        <time>2012-05-16T19:20:36Z</time>
      </trkpt>
      <trkpt lat="46.93942" lon="-0.85647">
        <ele>176.5393066</ele>
        <time>2012-05-16T19:20:39Z</time>
      </trkpt>
      <trkpt lat="46.93943" lon="-0.85626">
        <ele>177.9812012</ele>
        <time>2012-05-16T19:20:43Z</time>
      </trkpt>
      <trkpt lat="46.93946" lon="-0.85614">
        <ele>178.942627</ele>
        <time>2012-05-16T19:20:46Z</time>
      </trkpt>
      <trkpt lat="46.93953" lon="-0.85598">
        <ele>181.3458252</ele>
        <time>2012-05-16T19:20:51Z</time>
      </trkpt>
      <trkpt lat="46.93964" lon="-0.85575">
        <ele>184.7105713</ele>
        <time>2012-05-16T19:21:00Z</time>
      </trkpt>
      <trkpt lat="46.93974" lon="-0.85555">
        <ele>188.0750732</ele>
        <time>2012-05-16T19:21:08Z</time>
      </trkpt>
      <trkpt lat="46.93983" lon="-0.85549">
        <ele>189.5169678</ele>
        <time>2012-05-16T19:21:14Z</time>
      </trkpt>
      <trkpt lat="46.93994" lon="-0.85548">
        <ele>190.4783936</ele>
        <time>2012-05-16T19:21:20Z</time>
      </trkpt>
      <trkpt lat="46.94001" lon="-0.85545">
        <ele>192.401123</ele>
        <time>2012-05-16T19:21:24Z</time>
      </trkpt>
      <trkpt lat="46.94008" lon="-0.85527">
        <ele>195.765625</ele>
        <time>2012-05-16T19:21:33Z</time>
      </trkpt>
      <trkpt lat="46.94016" lon="-0.85517">
        <ele>196.7269287</ele>
        <time>2012-05-16T19:21:40Z</time>
      </trkpt>
      <trkpt lat="46.94027" lon="-0.85507">
        <ele>197.6882324</ele>
        <time>2012-05-16T19:21:47Z</time>
      </trkpt>
      <trkpt lat="46.94038" lon="-0.85494">
        <ele>198.1689453</ele>
        <time>2012-05-16T19:21:55Z</time>
      </trkpt>
      <trkpt lat="46.94047" lon="-0.85487">
        <ele>197.6882324</ele>
        <time>2012-05-16T19:22:01Z</time>
      </trkpt>
      <trkpt lat="46.94059" lon="-0.85478">
        <ele>197.6882324</ele>
        <time>2012-05-16T19:22:08Z</time>
      </trkpt>
      <trkpt lat="46.94072" lon="-0.85467">
        <ele>197.2075195</ele>
        <time>2012-05-16T19:22:14Z</time>
      </trkpt>
      <trkpt lat="46.94086" lon="-0.85455">
        <ele>196.7269287</ele>
        <time>2012-05-16T19:22:20Z</time>
      </trkpt>
      <trkpt lat="46.94097" lon="-0.85439">
        <ele>195.765625</ele>
        <time>2012-05-16T19:22:25Z</time>
      </trkpt>
      <trkpt lat="46.94096" lon="-0.85418">
        <ele>194.8043213</ele>
        <time>2012-05-16T19:22:30Z</time>
      </trkpt>
      <trkpt lat="46.94085" lon="-0.8539">
        <ele>195.2849121</ele>
        <time>2012-05-16T19:22:38Z</time>
      </trkpt>
      <trkpt lat="46.94071" lon="-0.85353">
        <ele>195.765625</ele>
        <time>2012-05-16T19:22:48Z</time>
      </trkpt>
      <trkpt lat="46.94069" lon="-0.85329">
        <ele>196.2463379</ele>
        <time>2012-05-16T19:22:54Z</time>
      </trkpt>
      <trkpt lat="46.9408" lon="-0.85316">
        <ele>196.7269287</ele>
        <time>2012-05-16T19:22:59Z</time>
      </trkpt>
      <trkpt lat="46.94106" lon="-0.85296">
        <ele>196.2463379</ele>
        <time>2012-05-16T19:23:08Z</time>
      </trkpt>
      <trkpt lat="46.94127" lon="-0.85279">
        <ele>196.7269287</ele>
        <time>2012-05-16T19:23:16Z</time>
      </trkpt>
      <trkpt lat="46.94138" lon="-0.8526">
        <ele>198.1689453</ele>
        <time>2012-05-16T19:23:22Z</time>
      </trkpt>
      <trkpt lat="46.94137" lon="-0.85231">
        <ele>200.0916748</ele>
        <time>2012-05-16T19:23:29Z</time>
      </trkpt>
      <trkpt lat="46.94129" lon="-0.85215">
        <ele>200.0916748</ele>
        <time>2012-05-16T19:23:35Z</time>
      </trkpt>
      <trkpt lat="46.94121" lon="-0.85208">
        <ele>200.5722656</ele>
        <time>2012-05-16T19:23:39Z</time>
      </trkpt>
      <trkpt lat="46.94105" lon="-0.85194">
        <ele>199.6108398</ele>
        <time>2012-05-16T19:23:46Z</time>
      </trkpt>
      <trkpt lat="46.94084" lon="-0.85177">
        <ele>198.1689453</ele>
        <time>2012-05-16T19:23:55Z</time>
      </trkpt>
      <trkpt lat="46.94072" lon="-0.85156">
        <ele>198.6495361</ele>
        <time>2012-05-16T19:24:02Z</time>
      </trkpt>
      <trkpt lat="46.94072" lon="-0.85141">
        <ele>200.0916748</ele>
        <time>2012-05-16T19:24:06Z</time>
      </trkpt>
      <trkpt lat="46.94084" lon="-0.8511">
        <ele>202.494873</ele>
        <time>2012-05-16T19:24:15Z</time>
      </trkpt>
      <trkpt lat="46.94084" lon="-0.8509">
        <ele>203.4561768</ele>
        <time>2012-05-16T19:24:21Z</time>
      </trkpt>
      <trkpt lat="46.94074" lon="-0.8507">
        <ele>203.4561768</ele>
        <time>2012-05-16T19:24:27Z</time>
      </trkpt>
      <trkpt lat="46.94071" lon="-0.85042">
        <ele>203.4561768</ele>
        <time>2012-05-16T19:24:33Z</time>
      </trkpt>
      <trkpt lat="46.94081" lon="-0.85005">
        <ele>205.8594971</ele>
        <time>2012-05-16T19:24:40Z</time>
      </trkpt>
      <trkpt lat="46.94094" lon="-0.84957">
        <ele>206.8206787</ele>
        <time>2012-05-16T19:24:49Z</time>
      </trkpt>
      <trkpt lat="46.94115" lon="-0.84901">
        <ele>208.2628174</ele>
        <time>2012-05-16T19:25:00Z</time>
      </trkpt>
      <trkpt lat="46.9413" lon="-0.84874">
        <ele>209.2241211</ele>
        <time>2012-05-16T19:25:07Z</time>
      </trkpt>
      <trkpt lat="46.94142" lon="-0.84852">
        <ele>209.2241211</ele>
        <time>2012-05-16T19:25:14Z</time>
      </trkpt>
      <trkpt lat="46.94152" lon="-0.84835">
        <ele>209.704834</ele>
        <time>2012-05-16T19:25:20Z</time>
      </trkpt>
      <trkpt lat="46.94156" lon="-0.84825">
        <ele>210.1854248</ele>
        <time>2012-05-16T19:25:24Z</time>
      </trkpt>
      <trkpt lat="46.9416" lon="-0.84815">
        <ele>210.1854248</ele>
        <time>2012-05-16T19:25:29Z</time>
      </trkpt>
      <trkpt lat="46.9416" lon="-0.84815">
        <ele>210.1854248</ele>
        <time>2012-05-16T19:25:41Z</time>
      </trkpt>
      <trkpt lat="46.9416" lon="-0.84815">
        <ele>209.704834</ele>
        <time>2012-05-16T19:25:47Z</time>
      </trkpt>
      <trkpt lat="46.9416" lon="-0.84816">
        <ele>209.2241211</ele>
        <time>2012-05-16T19:25:58Z</time>
      </trkpt>
      <trkpt lat="46.94159" lon="-0.84817">
        <ele>208.2628174</ele>
        <time>2012-05-16T19:26:10Z</time>
      </trkpt>
      <trkpt lat="46.94161" lon="-0.84813">
        <ele>208.2628174</ele>
        <time>2012-05-16T19:26:15Z</time>
      </trkpt>
      <trkpt lat="46.94167" lon="-0.848">
        <ele>208.7434082</ele>
        <time>2012-05-16T19:26:20Z</time>
      </trkpt>
      <trkpt lat="46.94172" lon="-0.84788">
        <ele>209.2241211</ele>
        <time>2012-05-16T19:26:24Z</time>
      </trkpt>
      <trkpt lat="46.94185" lon="-0.84759">
        <ele>210.1854248</ele>
        <time>2012-05-16T19:26:32Z</time>
      </trkpt>
      <trkpt lat="46.942" lon="-0.84727">
        <ele>210.1854248</ele>
        <time>2012-05-16T19:26:41Z</time>
      </trkpt>
      <trkpt lat="46.94209" lon="-0.847">
        <ele>208.7434082</ele>
        <time>2012-05-16T19:26:49Z</time>
      </trkpt>
      <trkpt lat="46.94212" lon="-0.84692">
        <ele>207.7821045</ele>
        <time>2012-05-16T19:26:54Z</time>
      </trkpt>
      <trkpt lat="46.94218" lon="-0.84676">
        <ele>206.8206787</ele>
        <time>2012-05-16T19:26:59Z</time>
      </trkpt>
      <trkpt lat="46.94228" lon="-0.84668">
        <ele>206.3400879</ele>
        <time>2012-05-16T19:27:04Z</time>
      </trkpt>
      <trkpt lat="46.94244" lon="-0.84648">
        <ele>205.3787842</ele>
        <time>2012-05-16T19:27:09Z</time>
      </trkpt>
      <trkpt lat="46.94266" lon="-0.84616">
        <ele>203.4561768</ele>
        <time>2012-05-16T19:27:14Z</time>
      </trkpt>
      <trkpt lat="46.94297" lon="-0.84568">
        <ele>200.0916748</ele>
        <time>2012-05-16T19:27:20Z</time>
      </trkpt>
      <trkpt lat="46.94325" lon="-0.84516">
        <ele>197.2075195</ele>
        <time>2012-05-16T19:27:25Z</time>
      </trkpt>
      <trkpt lat="46.94358" lon="-0.84444">
        <ele>192.8817139</ele>
        <time>2012-05-16T19:27:31Z</time>
      </trkpt>
      <trkpt lat="46.94395" lon="-0.84363">
        <ele>189.036377</ele>
        <time>2012-05-16T19:27:37Z</time>
      </trkpt>
      <trkpt lat="46.94429" lon="-0.84289">
        <ele>187.1137695</ele>
        <time>2012-05-16T19:27:42Z</time>
      </trkpt>
      <trkpt lat="46.94442" lon="-0.84258">
        <ele>186.1524658</ele>
        <time>2012-05-16T19:27:44Z</time>
      </trkpt>
      <trkpt lat="46.94455" lon="-0.84229">
        <ele>186.1524658</ele>
        <time>2012-05-16T19:27:46Z</time>
      </trkpt>
      <trkpt lat="46.94466" lon="-0.84201">
        <ele>185.6717529</ele>
        <time>2012-05-16T19:27:48Z</time>
      </trkpt>
      <trkpt lat="46.94471" lon="-0.84188">
        <ele>185.1911621</ele>
        <time>2012-05-16T19:27:49Z</time>
      </trkpt>
      <trkpt lat="46.9448" lon="-0.84147">
        <ele>183.7490234</ele>
        <time>2012-05-16T19:27:52Z</time>
      </trkpt>
      <trkpt lat="46.94477" lon="-0.84095">
        <ele>182.7878418</ele>
        <time>2012-05-16T19:27:56Z</time>
      </trkpt>
      <trkpt lat="46.94475" lon="-0.84084">
        <ele>182.7878418</ele>
        <time>2012-05-16T19:27:57Z</time>
      </trkpt>
      <trkpt lat="46.94464" lon="-0.84032">
        <ele>182.3071289</ele>
        <time>2012-05-16T19:28:02Z</time>
      </trkpt>
      <trkpt lat="46.94459" lon="-0.84004">
        <ele>181.826416</ele>
        <time>2012-05-16T19:28:05Z</time>
      </trkpt>
      <trkpt lat="46.94452" lon="-0.83978">
        <ele>181.3458252</ele>
        <time>2012-05-16T19:28:08Z</time>
      </trkpt>
      <trkpt lat="46.94448" lon="-0.83961">
        <ele>181.3458252</ele>
        <time>2012-05-16T19:28:10Z</time>
      </trkpt>
      <trkpt lat="46.94444" lon="-0.83937">
        <ele>181.826416</ele>
        <time>2012-05-16T19:28:13Z</time>
      </trkpt>
      <trkpt lat="46.9444" lon="-0.83894">
        <ele>182.3071289</ele>
        <time>2012-05-16T19:28:19Z</time>
      </trkpt>
      <trkpt lat="46.9444" lon="-0.83878">
        <ele>181.826416</ele>
        <time>2012-05-16T19:28:21Z</time>
      </trkpt>
      <trkpt lat="46.94445" lon="-0.83845">
        <ele>181.3458252</ele>
        <time>2012-05-16T19:28:25Z</time>
      </trkpt>
      <trkpt lat="46.9446" lon="-0.83806">
        <ele>180.3845215</ele>
        <time>2012-05-16T19:28:30Z</time>
      </trkpt>
      <trkpt lat="46.94489" lon="-0.83771">
        <ele>179.4232178</ele>
        <time>2012-05-16T19:28:36Z</time>
      </trkpt>
      <trkpt lat="46.94528" lon="-0.83754">
        <ele>178.942627</ele>
        <time>2012-05-16T19:28:43Z</time>
      </trkpt>
      <trkpt lat="46.9458" lon="-0.83737">
        <ele>177.9812012</ele>
        <time>2012-05-16T19:28:52Z</time>
      </trkpt>
      <trkpt lat="46.94612" lon="-0.83727">
        <ele>177.0200195</ele>
        <time>2012-05-16T19:28:57Z</time>
      </trkpt>
      <trkpt lat="46.94663" lon="-0.83711">
        <ele>173.1746826</ele>
        <time>2012-05-16T19:29:04Z</time>
      </trkpt>
      <trkpt lat="46.947" lon="-0.83694">
        <ele>172.2132568</ele>
        <time>2012-05-16T19:29:09Z</time>
      </trkpt>
      <trkpt lat="46.94727" lon="-0.8368">
        <ele>172.2132568</ele>
        <time>2012-05-16T19:29:13Z</time>
      </trkpt>
      <trkpt lat="46.94748" lon="-0.83667">
        <ele>172.6939697</ele>
        <time>2012-05-16T19:29:17Z</time>
      </trkpt>
      <trkpt lat="46.94762" lon="-0.83647">
        <ele>172.2132568</ele>
        <time>2012-05-16T19:29:21Z</time>
      </trkpt>
      <trkpt lat="46.94768" lon="-0.83632">
        <ele>171.2520752</ele>
        <time>2012-05-16T19:29:23Z</time>
      </trkpt>
      <trkpt lat="46.94777" lon="-0.83594">
        <ele>168.368042</ele>
        <time>2012-05-16T19:29:27Z</time>
      </trkpt>
      <trkpt lat="46.94791" lon="-0.83558">
        <ele>164.5227051</ele>
        <time>2012-05-16T19:29:31Z</time>
      </trkpt>
      <trkpt lat="46.94794" lon="-0.83541">
        <ele>161.638916</ele>
        <time>2012-05-16T19:29:34Z</time>
      </trkpt>
      <trkpt lat="46.94778" lon="-0.83533">
        <ele>158.2741699</ele>
        <time>2012-05-16T19:29:37Z</time>
      </trkpt>
      <trkpt lat="46.9476" lon="-0.83523">
        <ele>157.3128662</ele>
        <time>2012-05-16T19:29:40Z</time>
      </trkpt>
      <trkpt lat="46.94739" lon="-0.83489">
        <ele>152.5063477</ele>
        <time>2012-05-16T19:29:44Z</time>
      </trkpt>
      <trkpt lat="46.94741" lon="-0.83465">
        <ele>150.1030273</ele>
        <time>2012-05-16T19:29:47Z</time>
      </trkpt>
      <trkpt lat="46.94758" lon="-0.8344">
        <ele>146.7384033</ele>
        <time>2012-05-16T19:29:50Z</time>
      </trkpt>
      <trkpt lat="46.9478" lon="-0.83406">
        <ele>142.8930664</ele>
        <time>2012-05-16T19:29:55Z</time>
      </trkpt>
      <trkpt lat="46.94787" lon="-0.83393">
        <ele>142.8930664</ele>
        <time>2012-05-16T19:29:59Z</time>
      </trkpt>
      <trkpt lat="46.94787" lon="-0.83387">
        <ele>143.3736572</ele>
        <time>2012-05-16T19:30:00Z</time>
      </trkpt>
      <trkpt lat="46.9479" lon="-0.83336">
        <ele>142.4124756</ele>
        <time>2012-05-16T19:30:08Z</time>
      </trkpt>
      <trkpt lat="46.94794" lon="-0.8331">
        <ele>141.4510498</ele>
        <time>2012-05-16T19:30:12Z</time>
      </trkpt>
      <trkpt lat="46.94799" lon="-0.8327">
        <ele>140.970459</ele>
        <time>2012-05-16T19:30:18Z</time>
      </trkpt>
      <trkpt lat="46.94801" lon="-0.83256">
        <ele>142.4124756</ele>
        <time>2012-05-16T19:30:20Z</time>
      </trkpt>
      <trkpt lat="46.94802" lon="-0.83238">
        <ele>143.8543701</ele>
        <time>2012-05-16T19:30:23Z</time>
      </trkpt>
      <trkpt lat="46.94799" lon="-0.83224">
        <ele>144.8157959</ele>
        <time>2012-05-16T19:30:27Z</time>
      </trkpt>
      <trkpt lat="46.948" lon="-0.8322">
        <ele>144.3352051</ele>
        <time>2012-05-16T19:30:31Z</time>
      </trkpt>
      <trkpt lat="46.94802" lon="-0.83209">
        <ele>144.8157959</ele>
        <time>2012-05-16T19:30:35Z</time>
      </trkpt>
      <trkpt lat="46.948" lon="-0.83186">
        <ele>145.2963867</ele>
        <time>2012-05-16T19:30:41Z</time>
      </trkpt>
      <trkpt lat="46.94793" lon="-0.83156">
        <ele>145.7770996</ele>
        <time>2012-05-16T19:30:47Z</time>
      </trkpt>
      <trkpt lat="46.9478" lon="-0.83113">
        <ele>145.7770996</ele>
        <time>2012-05-16T19:30:54Z</time>
      </trkpt>
      <trkpt lat="46.94762" lon="-0.83059">
        <ele>147.699707</ele>
        <time>2012-05-16T19:31:03Z</time>
      </trkpt>
      <trkpt lat="46.94747" lon="-0.83006">
        <ele>150.1030273</ele>
        <time>2012-05-16T19:31:13Z</time>
      </trkpt>
      <trkpt lat="46.94736" lon="-0.82968">
        <ele>151.5449219</ele>
        <time>2012-05-16T19:31:21Z</time>
      </trkpt>
      <trkpt lat="46.94728" lon="-0.82939">
        <ele>153.4676514</ele>
        <time>2012-05-16T19:31:27Z</time>
      </trkpt>
      <trkpt lat="46.9472" lon="-0.82896">
        <ele>152.9869385</ele>
        <time>2012-05-16T19:31:34Z</time>
      </trkpt>
      <trkpt lat="46.94719" lon="-0.82887">
        <ele>152.9869385</ele>
        <time>2012-05-16T19:31:35Z</time>
      </trkpt>
      <trkpt lat="46.94718" lon="-0.82818">
        <ele>148.6610107</ele>
        <time>2012-05-16T19:31:41Z</time>
      </trkpt>
      <trkpt lat="46.94723" lon="-0.82753">
        <ele>146.2578125</ele>
        <time>2012-05-16T19:31:46Z</time>
      </trkpt>
      <trkpt lat="46.94726" lon="-0.82727">
        <ele>145.2963867</ele>
        <time>2012-05-16T19:31:48Z</time>
      </trkpt>
      <trkpt lat="46.94736" lon="-0.82655">
        <ele>142.8930664</ele>
        <time>2012-05-16T19:31:54Z</time>
      </trkpt>
      <trkpt lat="46.94749" lon="-0.82576">
        <ele>141.4510498</ele>
        <time>2012-05-16T19:32:01Z</time>
      </trkpt>
      <trkpt lat="46.94757" lon="-0.82525">
        <ele>140.4898682</ele>
        <time>2012-05-16T19:32:06Z</time>
      </trkpt>
      <trkpt lat="46.94759" lon="-0.82516">
        <ele>140.4898682</ele>
        <time>2012-05-16T19:32:07Z</time>
      </trkpt>
      <trkpt lat="46.94764" lon="-0.82501">
        <ele>139.5284424</ele>
        <time>2012-05-16T19:32:09Z</time>
      </trkpt>
      <trkpt lat="46.94769" lon="-0.82496">
        <ele>139.0478516</ele>
        <time>2012-05-16T19:32:10Z</time>
      </trkpt>
      <trkpt lat="46.94775" lon="-0.82493">
        <ele>138.5672607</ele>
        <time>2012-05-16T19:32:11Z</time>
      </trkpt>
      <trkpt lat="46.94823" lon="-0.82464">
        <ele>135.2025146</ele>
        <time>2012-05-16T19:32:18Z</time>
      </trkpt>
      <trkpt lat="46.94881" lon="-0.8243">
        <ele>133.2799072</ele>
        <time>2012-05-16T19:32:26Z</time>
      </trkpt>
      <trkpt lat="46.94935" lon="-0.82398">
        <ele>131.3572998</ele>
        <time>2012-05-16T19:32:34Z</time>
      </trkpt>
      <trkpt lat="46.95013" lon="-0.8235">
        <ele>129.4346924</ele>
        <time>2012-05-16T19:32:46Z</time>
      </trkpt>
      <trkpt lat="46.95071" lon="-0.82315">
        <ele>130.876709</ele>
        <time>2012-05-16T19:32:55Z</time>
      </trkpt>
      <trkpt lat="46.9509" lon="-0.82303">
        <ele>129.9152832</ele>
        <time>2012-05-16T19:32:58Z</time>
      </trkpt>
      <trkpt lat="46.95118" lon="-0.82281">
        <ele>128.4733887</ele>
        <time>2012-05-16T19:33:03Z</time>
      </trkpt>
      <trkpt lat="46.95152" lon="-0.82244">
        <ele>126.5506592</ele>
        <time>2012-05-16T19:33:10Z</time>
      </trkpt>
      <trkpt lat="46.95194" lon="-0.82198">
        <ele>125.1087646</ele>
        <time>2012-05-16T19:33:19Z</time>
      </trkpt>
      <trkpt lat="46.95209" lon="-0.82182">
        <ele>125.5893555</ele>
        <time>2012-05-16T19:33:22Z</time>
      </trkpt>
      <trkpt lat="46.95244" lon="-0.8216">
        <ele>124.1473389</ele>
        <time>2012-05-16T19:33:28Z</time>
      </trkpt>
      <trkpt lat="46.95268" lon="-0.82145">
        <ele>123.666748</ele>
        <time>2012-05-16T19:33:32Z</time>
      </trkpt>
      <trkpt lat="46.9528" lon="-0.82135">
        <ele>124.1473389</ele>
        <time>2012-05-16T19:33:34Z</time>
      </trkpt>
      <trkpt lat="46.95311" lon="-0.82088">
        <ele>123.1861572</ele>
        <time>2012-05-16T19:33:41Z</time>
      </trkpt>
      <trkpt lat="46.95335" lon="-0.82044">
        <ele>122.2247314</ele>
        <time>2012-05-16T19:33:47Z</time>
      </trkpt>
      <trkpt lat="46.95343" lon="-0.82031">
        <ele>123.1861572</ele>
        <time>2012-05-16T19:33:49Z</time>
      </trkpt>
      <trkpt lat="46.95367" lon="-0.81997">
        <ele>124.6280518</ele>
        <time>2012-05-16T19:33:56Z</time>
      </trkpt>
      <trkpt lat="46.95373" lon="-0.8199">
        <ele>125.1087646</ele>
        <time>2012-05-16T19:33:58Z</time>
      </trkpt>
      <trkpt lat="46.95378" lon="-0.81971">
        <ele>124.6280518</ele>
        <time>2012-05-16T19:34:02Z</time>
      </trkpt>
      <trkpt lat="46.95384" lon="-0.81928">
        <ele>123.666748</ele>
        <time>2012-05-16T19:34:09Z</time>
      </trkpt>
      <trkpt lat="46.95401" lon="-0.81882">
        <ele>123.1861572</ele>
        <time>2012-05-16T19:34:17Z</time>
      </trkpt>
      <trkpt lat="46.95412" lon="-0.81856">
        <ele>123.1861572</ele>
        <time>2012-05-16T19:34:22Z</time>
      </trkpt>
      <trkpt lat="46.95418" lon="-0.81823">
        <ele>123.1861572</ele>
        <time>2012-05-16T19:34:27Z</time>
      </trkpt>
      <trkpt lat="46.95419" lon="-0.81795">
        <ele>123.1861572</ele>
        <time>2012-05-16T19:34:31Z</time>
      </trkpt>
      <trkpt lat="46.95426" lon="-0.81772">
        <ele>123.1861572</ele>
        <time>2012-05-16T19:34:37Z</time>
      </trkpt>
      <trkpt lat="46.9543" lon="-0.81761">
        <ele>125.1087646</ele>
        <time>2012-05-16T19:34:43Z</time>
      </trkpt>
      <trkpt lat="46.9543" lon="-0.81758">
        <ele>127.5119629</ele>
        <time>2012-05-16T19:34:50Z</time>
      </trkpt>
      <trkpt lat="46.9543" lon="-0.81754">
        <ele>128.9541016</ele>
        <time>2012-05-16T19:34:55Z</time>
      </trkpt>
      <trkpt lat="46.95433" lon="-0.81751">
        <ele>129.9152832</ele>
        <time>2012-05-16T19:35:01Z</time>
      </trkpt>
      <trkpt lat="46.95434" lon="-0.81747">
        <ele>127.5119629</ele>
        <time>2012-05-16T19:35:07Z</time>
      </trkpt>
      <trkpt lat="46.95435" lon="-0.81742">
        <ele>126.5506592</ele>
        <time>2012-05-16T19:35:10Z</time>
      </trkpt>
      <trkpt lat="46.95433" lon="-0.81738">
        <ele>125.1087646</ele>
        <time>2012-05-16T19:35:16Z</time>
      </trkpt>
      <trkpt lat="46.95431" lon="-0.81739">
        <ele>125.5893555</ele>
        <time>2012-05-16T19:35:21Z</time>
      </trkpt>
      <trkpt lat="46.95429" lon="-0.8174">
        <ele>123.1861572</ele>
        <time>2012-05-16T19:35:27Z</time>
      </trkpt>
      <trkpt lat="46.95426" lon="-0.81739">
        <ele>122.7054443</ele>
        <time>2012-05-16T19:35:32Z</time>
      </trkpt>
      <trkpt lat="46.95423" lon="-0.81737">
        <ele>123.666748</ele>
        <time>2012-05-16T19:35:37Z</time>
      </trkpt>
      <trkpt lat="46.95422" lon="-0.81736">
        <ele>125.5893555</ele>
        <time>2012-05-16T19:35:44Z</time>
      </trkpt>
      <trkpt lat="46.95415" lon="-0.81733">
        <ele>126.0699463</ele>
        <time>2012-05-16T19:35:50Z</time>
      </trkpt>
      <trkpt lat="46.9541" lon="-0.81729">
        <ele>126.5506592</ele>
        <time>2012-05-16T19:35:54Z</time>
      </trkpt>
      <trkpt lat="46.95401" lon="-0.81726">
        <ele>126.5506592</ele>
        <time>2012-05-16T19:36:01Z</time>
      </trkpt>
      <trkpt lat="46.95396" lon="-0.81721">
        <ele>127.5119629</ele>
        <time>2012-05-16T19:36:06Z</time>
      </trkpt>
      <trkpt lat="46.95392" lon="-0.8172">
        <ele>127.0313721</ele>
        <time>2012-05-16T19:36:13Z</time>
      </trkpt>
      <trkpt lat="46.95392" lon="-0.81719">
        <ele>127.9925537</ele>
        <time>2012-05-16T19:36:25Z</time>
      </trkpt>
      <trkpt lat="46.95392" lon="-0.8172">
        <ele>127.5119629</ele>
        <time>2012-05-16T19:36:28Z</time>
      </trkpt>
      <trkpt lat="46.95388" lon="-0.8172">
        <ele>127.0313721</ele>
        <time>2012-05-16T19:36:34Z</time>
      </trkpt>
      <trkpt lat="46.9538" lon="-0.81712">
        <ele>127.5119629</ele>
        <time>2012-05-16T19:36:41Z</time>
      </trkpt>
      <trkpt lat="46.95379" lon="-0.8171">
        <ele>127.9925537</ele>
        <time>2012-05-16T19:36:42Z</time>
      </trkpt>
      <trkpt lat="46.95372" lon="-0.81698">
        <ele>128.4733887</ele>
        <time>2012-05-16T19:36:50Z</time>
      </trkpt>
      <trkpt lat="46.95365" lon="-0.81686">
        <ele>127.9925537</ele>
        <time>2012-05-16T19:36:57Z</time>
      </trkpt>
      <trkpt lat="46.95361" lon="-0.81677">
        <ele>127.5119629</ele>
        <time>2012-05-16T19:37:01Z</time>
      </trkpt>
      <trkpt lat="46.95349" lon="-0.81651">
        <ele>128.9541016</ele>
        <time>2012-05-16T19:37:12Z</time>
      </trkpt>
      <trkpt lat="46.95344" lon="-0.81637">
        <ele>128.9541016</ele>
        <time>2012-05-16T19:37:19Z</time>
      </trkpt>
      <trkpt lat="46.95339" lon="-0.81624">
        <ele>129.4346924</ele>
        <time>2012-05-16T19:37:26Z</time>
      </trkpt>
      <trkpt lat="46.9533" lon="-0.81602">
        <ele>132.3186035</ele>
        <time>2012-05-16T19:37:37Z</time>
      </trkpt>
      <trkpt lat="46.95324" lon="-0.81589">
        <ele>133.760498</ele>
        <time>2012-05-16T19:37:43Z</time>
      </trkpt>
      <trkpt lat="46.95317" lon="-0.81575">
        <ele>135.6831055</ele>
        <time>2012-05-16T19:37:50Z</time>
      </trkpt>
      <trkpt lat="46.95311" lon="-0.81557">
        <ele>137.1252441</ele>
        <time>2012-05-16T19:37:58Z</time>
      </trkpt>
      <trkpt lat="46.95305" lon="-0.8154">
        <ele>138.0865479</ele>
        <time>2012-05-16T19:38:05Z</time>
      </trkpt>
      <trkpt lat="46.95302" lon="-0.81527">
        <ele>139.0478516</ele>
        <time>2012-05-16T19:38:11Z</time>
      </trkpt>
      <trkpt lat="46.95293" lon="-0.81492">
        <ele>140.4898682</ele>
        <time>2012-05-16T19:38:22Z</time>
      </trkpt>
      <trkpt lat="46.95284" lon="-0.81468">
        <ele>141.4510498</ele>
        <time>2012-05-16T19:38:31Z</time>
      </trkpt>
      <trkpt lat="46.95281" lon="-0.81461">
        <ele>141.4510498</ele>
        <time>2012-05-16T19:38:35Z</time>
      </trkpt>
      <trkpt lat="46.95281" lon="-0.81457">
        <ele>142.4124756</ele>
        <time>2012-05-16T19:38:40Z</time>
      </trkpt>
      <trkpt lat="46.9528" lon="-0.81457">
        <ele>142.8930664</ele>
        <time>2012-05-16T19:38:49Z</time>
      </trkpt>
      <trkpt lat="46.95278" lon="-0.81454">
        <ele>142.4124756</ele>
        <time>2012-05-16T19:38:55Z</time>
      </trkpt>
      <trkpt lat="46.95277" lon="-0.81452">
        <ele>141.4510498</ele>
        <time>2012-05-16T19:38:56Z</time>
      </trkpt>
      <trkpt lat="46.95268" lon="-0.81432">
        <ele>140.970459</ele>
        <time>2012-05-16T19:39:03Z</time>
      </trkpt>
      <trkpt lat="46.9525" lon="-0.81399">
        <ele>141.4510498</ele>
        <time>2012-05-16T19:39:13Z</time>
      </trkpt>
      <trkpt lat="46.95233" lon="-0.8137">
        <ele>140.970459</ele>
        <time>2012-05-16T19:39:21Z</time>
      </trkpt>
      <trkpt lat="46.95215" lon="-0.81341">
        <ele>138.5672607</ele>
        <time>2012-05-16T19:39:28Z</time>
      </trkpt>
      <trkpt lat="46.95204" lon="-0.81322">
        <ele>138.0865479</ele>
        <time>2012-05-16T19:39:33Z</time>
      </trkpt>
      <trkpt lat="46.95197" lon="-0.81302">
        <ele>139.5284424</ele>
        <time>2012-05-16T19:39:38Z</time>
      </trkpt>
      <trkpt lat="46.95189" lon="-0.81286">
        <ele>141.4510498</ele>
        <time>2012-05-16T19:39:43Z</time>
      </trkpt>
      <trkpt lat="46.95182" lon="-0.81271">
        <ele>142.8930664</ele>
        <time>2012-05-16T19:39:48Z</time>
      </trkpt>
      <trkpt lat="46.95172" lon="-0.81246">
        <ele>143.3736572</ele>
        <time>2012-05-16T19:39:55Z</time>
      </trkpt>
      <trkpt lat="46.95161" lon="-0.81215">
        <ele>142.4124756</ele>
        <time>2012-05-16T19:40:03Z</time>
      </trkpt>
      <trkpt lat="46.95151" lon="-0.81193">
        <ele>141.4510498</ele>
        <time>2012-05-16T19:40:09Z</time>
      </trkpt>
      <trkpt lat="46.95135" lon="-0.81168">
        <ele>140.4898682</ele>
        <time>2012-05-16T19:40:17Z</time>
      </trkpt>
      <trkpt lat="46.9512" lon="-0.81144">
        <ele>140.970459</ele>
        <time>2012-05-16T19:40:25Z</time>
      </trkpt>
      <trkpt lat="46.95103" lon="-0.81121">
        <ele>142.4124756</ele>
        <time>2012-05-16T19:40:33Z</time>
      </trkpt>
      <trkpt lat="46.95087" lon="-0.81099">
        <ele>143.3736572</ele>
        <time>2012-05-16T19:40:40Z</time>
      </trkpt>
      <trkpt lat="46.95073" lon="-0.81067">
        <ele>143.8543701</ele>
        <time>2012-05-16T19:40:48Z</time>
      </trkpt>
      <trkpt lat="46.95059" lon="-0.81039">
        <ele>145.2963867</ele>
        <time>2012-05-16T19:40:56Z</time>
      </trkpt>
      <trkpt lat="46.95043" lon="-0.81013">
        <ele>144.3352051</ele>
        <time>2012-05-16T19:41:03Z</time>
      </trkpt>
      <trkpt lat="46.95029" lon="-0.80984">
        <ele>142.4124756</ele>
        <time>2012-05-16T19:41:09Z</time>
      </trkpt>
      <trkpt lat="46.95029" lon="-0.80968">
        <ele>141.9317627</ele>
        <time>2012-05-16T19:41:12Z</time>
      </trkpt>
      <trkpt lat="46.95029" lon="-0.80964">
        <ele>141.4510498</ele>
        <time>2012-05-16T19:41:14Z</time>
      </trkpt>
      <trkpt lat="46.95028" lon="-0.80963">
        <ele>141.9317627</ele>
        <time>2012-05-16T19:41:21Z</time>
      </trkpt>
      <trkpt lat="46.95028" lon="-0.80963">
        <ele>141.4510498</ele>
        <time>2012-05-16T19:41:30Z</time>
      </trkpt>
      <trkpt lat="46.95027" lon="-0.80964">
        <ele>142.4124756</ele>
        <time>2012-05-16T19:41:38Z</time>
      </trkpt>
      <trkpt lat="46.95026" lon="-0.80965">
        <ele>144.3352051</ele>
        <time>2012-05-16T19:41:55Z</time>
      </trkpt>
      <trkpt lat="46.95026" lon="-0.80964">
        <ele>144.8157959</ele>
        <time>2012-05-16T19:42:06Z</time>
      </trkpt>
      <trkpt lat="46.95028" lon="-0.80963">
        <ele>146.2578125</ele>
        <time>2012-05-16T19:42:12Z</time>
      </trkpt>
      <trkpt lat="46.95034" lon="-0.80956">
        <ele>146.2578125</ele>
        <time>2012-05-16T19:42:17Z</time>
      </trkpt>
      <trkpt lat="46.95053" lon="-0.80948">
        <ele>146.7384033</ele>
        <time>2012-05-16T19:42:26Z</time>
      </trkpt>
      <trkpt lat="46.95071" lon="-0.80944">
        <ele>145.7770996</ele>
        <time>2012-05-16T19:42:32Z</time>
      </trkpt>
      <trkpt lat="46.95076" lon="-0.80941">
        <ele>145.7770996</ele>
        <time>2012-05-16T19:42:34Z</time>
      </trkpt>
      <trkpt lat="46.95078" lon="-0.80928">
        <ele>145.7770996</ele>
        <time>2012-05-16T19:42:38Z</time>
      </trkpt>
      <trkpt lat="46.95076" lon="-0.80926">
        <ele>145.7770996</ele>
        <time>2012-05-16T19:42:39Z</time>
      </trkpt>
      <trkpt lat="46.95059" lon="-0.80905">
        <ele>145.7770996</ele>
        <time>2012-05-16T19:42:46Z</time>
      </trkpt>
      <trkpt lat="46.95044" lon="-0.80883">
        <ele>145.7770996</ele>
        <time>2012-05-16T19:42:52Z</time>
      </trkpt>
      <trkpt lat="46.95024" lon="-0.80849">
        <ele>146.2578125</ele>
        <time>2012-05-16T19:43:00Z</time>
      </trkpt>
      <trkpt lat="46.9501" lon="-0.80825">
        <ele>146.2578125</ele>
        <time>2012-05-16T19:43:06Z</time>
      </trkpt>
      <trkpt lat="46.94992" lon="-0.80794">
        <ele>146.7384033</ele>
        <time>2012-05-16T19:43:14Z</time>
      </trkpt>
      <trkpt lat="46.94974" lon="-0.80764">
        <ele>147.699707</ele>
        <time>2012-05-16T19:43:22Z</time>
      </trkpt>
      <trkpt lat="46.94954" lon="-0.80731">
        <ele>149.1416016</ele>
        <time>2012-05-16T19:43:31Z</time>
      </trkpt>
      <trkpt lat="46.94934" lon="-0.80698">
        <ele>150.5836182</ele>
        <time>2012-05-16T19:43:40Z</time>
      </trkpt>
      <trkpt lat="46.94914" lon="-0.80662">
        <ele>152.5063477</ele>
        <time>2012-05-16T19:43:50Z</time>
      </trkpt>
      <trkpt lat="46.94903" lon="-0.80641">
        <ele>153.9483643</ele>
        <time>2012-05-16T19:43:56Z</time>
      </trkpt>
      <trkpt lat="46.94895" lon="-0.80627">
        <ele>154.4289551</ele>
        <time>2012-05-16T19:44:00Z</time>
      </trkpt>
      <trkpt lat="46.94875" lon="-0.80593">
        <ele>155.8709717</ele>
        <time>2012-05-16T19:44:10Z</time>
      </trkpt>
      <trkpt lat="46.94865" lon="-0.80574">
        <ele>156.8321533</ele>
        <time>2012-05-16T19:44:17Z</time>
      </trkpt>
      <trkpt lat="46.9486" lon="-0.80572">
        <ele>157.3128662</ele>
        <time>2012-05-16T19:44:22Z</time>
      </trkpt>
      <trkpt lat="46.94858" lon="-0.80567">
        <ele>157.3128662</ele>
        <time>2012-05-16T19:44:25Z</time>
      </trkpt>
      <trkpt lat="46.94855" lon="-0.80561">
        <ele>157.7935791</ele>
        <time>2012-05-16T19:44:29Z</time>
      </trkpt>
      <trkpt lat="46.94851" lon="-0.80552">
        <ele>157.3128662</ele>
        <time>2012-05-16T19:44:35Z</time>
      </trkpt>
      <trkpt lat="46.94848" lon="-0.80548">
        <ele>157.3128662</ele>
        <time>2012-05-16T19:44:37Z</time>
      </trkpt>
      <trkpt lat="46.94838" lon="-0.80526">
        <ele>157.3128662</ele>
        <time>2012-05-16T19:44:44Z</time>
      </trkpt>
      <trkpt lat="46.94834" lon="-0.80515">
        <ele>157.3128662</ele>
        <time>2012-05-16T19:44:48Z</time>
      </trkpt>
      <trkpt lat="46.94839" lon="-0.80496">
        <ele>157.7935791</ele>
        <time>2012-05-16T19:44:56Z</time>
      </trkpt>
      <trkpt lat="46.94848" lon="-0.80485">
        <ele>157.7935791</ele>
        <time>2012-05-16T19:45:01Z</time>
      </trkpt>
      <trkpt lat="46.94859" lon="-0.80474">
        <ele>158.2741699</ele>
        <time>2012-05-16T19:45:06Z</time>
      </trkpt>
      <trkpt lat="46.94877" lon="-0.80458">
        <ele>158.7547607</ele>
        <time>2012-05-16T19:45:13Z</time>
      </trkpt>
      <trkpt lat="46.94894" lon="-0.8044">
        <ele>158.2741699</ele>
        <time>2012-05-16T19:45:18Z</time>
      </trkpt>
      <trkpt lat="46.94906" lon="-0.80425">
        <ele>157.7935791</ele>
        <time>2012-05-16T19:45:21Z</time>
      </trkpt>
      <trkpt lat="46.94918" lon="-0.80386">
        <ele>156.8321533</ele>
        <time>2012-05-16T19:45:26Z</time>
      </trkpt>
      <trkpt lat="46.94931" lon="-0.80352">
        <ele>154.9095459</ele>
        <time>2012-05-16T19:45:30Z</time>
      </trkpt>
      <trkpt lat="46.94944" lon="-0.80338">
        <ele>153.9483643</ele>
        <time>2012-05-16T19:45:32Z</time>
      </trkpt>
      <trkpt lat="46.94981" lon="-0.80301">
        <ele>150.5836182</ele>
        <time>2012-05-16T19:45:37Z</time>
      </trkpt>
      <trkpt lat="46.95005" lon="-0.80248">
        <ele>148.6610107</ele>
        <time>2012-05-16T19:45:42Z</time>
      </trkpt>
      <trkpt lat="46.9502" lon="-0.80175">
        <ele>148.6610107</ele>
        <time>2012-05-16T19:45:49Z</time>
      </trkpt>
      <trkpt lat="46.95029" lon="-0.80126">
        <ele>149.6223145</ele>
        <time>2012-05-16T19:45:55Z</time>
      </trkpt>
      <trkpt lat="46.9504" lon="-0.80094">
        <ele>150.1030273</ele>
        <time>2012-05-16T19:45:59Z</time>
      </trkpt>
      <trkpt lat="46.9505" lon="-0.80074">
        <ele>150.5836182</ele>
        <time>2012-05-16T19:46:02Z</time>
      </trkpt>
      <trkpt lat="46.95071" lon="-0.80048">
        <ele>151.5449219</ele>
        <time>2012-05-16T19:46:07Z</time>
      </trkpt>
      <trkpt lat="46.95082" lon="-0.80035">
        <ele>152.5063477</ele>
        <time>2012-05-16T19:46:10Z</time>
      </trkpt>
      <trkpt lat="46.95098" lon="-0.80017">
        <ele>153.4676514</ele>
        <time>2012-05-16T19:46:14Z</time>
      </trkpt>
      <trkpt lat="46.95126" lon="-0.79988">
        <ele>155.3902588</ele>
        <time>2012-05-16T19:46:21Z</time>
      </trkpt>
      <trkpt lat="46.95154" lon="-0.79955">
        <ele>158.7547607</ele>
        <time>2012-05-16T19:46:30Z</time>
      </trkpt>
      <trkpt lat="46.95167" lon="-0.79938">
        <ele>160.6774902</ele>
        <time>2012-05-16T19:46:36Z</time>
      </trkpt>
      <trkpt lat="46.95182" lon="-0.79921">
        <ele>162.6000977</ele>
        <time>2012-05-16T19:46:43Z</time>
      </trkpt>
      <trkpt lat="46.95193" lon="-0.79905">
        <ele>164.0421143</ele>
        <time>2012-05-16T19:46:49Z</time>
      </trkpt>
      <trkpt lat="46.95212" lon="-0.79881">
        <ele>166.4453125</ele>
        <time>2012-05-16T19:46:56Z</time>
      </trkpt>
      <trkpt lat="46.95229" lon="-0.79859">
        <ele>167.4067383</ele>
        <time>2012-05-16T19:47:03Z</time>
      </trkpt>
      <trkpt lat="46.95241" lon="-0.79841">
        <ele>167.4067383</ele>
        <time>2012-05-16T19:47:09Z</time>
      </trkpt>
      <trkpt lat="46.95253" lon="-0.79828">
        <ele>167.8873291</ele>
        <time>2012-05-16T19:47:16Z</time>
      </trkpt>
      <trkpt lat="46.95263" lon="-0.79832">
        <ele>167.4067383</ele>
        <time>2012-05-16T19:47:19Z</time>
      </trkpt>
      <trkpt lat="46.95282" lon="-0.79853">
        <ele>165.4841309</ele>
        <time>2012-05-16T19:47:24Z</time>
      </trkpt>
      <trkpt lat="46.95303" lon="-0.79846">
        <ele>164.5227051</ele>
        <time>2012-05-16T19:47:28Z</time>
      </trkpt>
      <trkpt lat="46.95308" lon="-0.79842">
        <ele>164.5227051</ele>
        <time>2012-05-16T19:47:29Z</time>
      </trkpt>
      <trkpt lat="46.95325" lon="-0.79848">
        <ele>163.0808105</ele>
        <time>2012-05-16T19:47:32Z</time>
      </trkpt>
      <trkpt lat="46.95335" lon="-0.7987">
        <ele>162.1195068</ele>
        <time>2012-05-16T19:47:35Z</time>
      </trkpt>
      <trkpt lat="46.95348" lon="-0.79898">
        <ele>161.638916</ele>
        <time>2012-05-16T19:47:39Z</time>
      </trkpt>
      <trkpt lat="46.95364" lon="-0.79934">
        <ele>160.6774902</ele>
        <time>2012-05-16T19:47:45Z</time>
      </trkpt>
      <trkpt lat="46.9538" lon="-0.79948">
        <ele>160.1968994</ele>
        <time>2012-05-16T19:47:49Z</time>
      </trkpt>
      <trkpt lat="46.9539" lon="-0.79946">
        <ele>160.1968994</ele>
        <time>2012-05-16T19:47:51Z</time>
      </trkpt>
      <trkpt lat="46.9541" lon="-0.79934">
        <ele>159.2354736</ele>
        <time>2012-05-16T19:47:55Z</time>
      </trkpt>
      <trkpt lat="46.95439" lon="-0.79924">
        <ele>159.2354736</ele>
        <time>2012-05-16T19:47:59Z</time>
      </trkpt>
      <trkpt lat="46.95459" lon="-0.79917">
        <ele>159.7161865</ele>
        <time>2012-05-16T19:48:02Z</time>
      </trkpt>
      <trkpt lat="46.95476" lon="-0.79904">
        <ele>159.7161865</ele>
        <time>2012-05-16T19:48:06Z</time>
      </trkpt>
      <trkpt lat="46.95477" lon="-0.79906">
        <ele>160.1968994</ele>
        <time>2012-05-16T19:48:07Z</time>
      </trkpt>
      <trkpt lat="46.95479" lon="-0.79913">
        <ele>160.6774902</ele>
        <time>2012-05-16T19:48:13Z</time>
      </trkpt>
      <trkpt lat="46.95482" lon="-0.79919">
        <ele>160.6774902</ele>
        <time>2012-05-16T19:48:17Z</time>
      </trkpt>
      <trkpt lat="46.95483" lon="-0.79922">
        <ele>160.6774902</ele>
        <time>2012-05-16T19:48:19Z</time>
      </trkpt>
    </trkseg>
  </trk>
</gpx>